Darstellungsparameter: Aktuell verwendete Einstellungen:
Skalierung der Graphiken ... ?
xyx+y,   Skalierungsfaktor:      Skalierung: Modus: x, Faktor: 1
Darstellungszeitraum ... ?
Vom - - bis: - -   Zeitraum: 01.01.2020 - 31.03.2020
Min/Max/Avg-Anzeige ... ?
Zeige MMA aktuell
Zeige MMA Monat
Zeige MMA alles
Zeige --A aktuell
Zeige --A Monat
Zeige --A alles
Keine MMA-Anzeige
MMA:
Average (ber die Originaldaten)
MMA-Basis: 01.01.2020 - 31.03.2020
Quicknavigation für Darstellung... ?
Tage:      1T, 2T, 3T, 5T -1T -2T -3T -5T +1T +2T +3T +5T
Wochen: 1W, 2W, 3W -1W -2W -3W +1W +2W +3W
Monate: 1M, 3M, 6M -1M -3M -6M +1M +3M +6M
Jahre:    1J, 3J, 5J, 10J -1J -3J -5J -10J +1J +3J +5J +10J
Nutze für die Darstellung ... ?
Originaldaten oder Mittelwerte auf ...
Stundenbasis Tagesbasis Wochenbasis
Monatsbasis Jahresbasis      Datenbasis: Original-Daten
Darstellen als:
Statistik (Auto) Statistik J:M      Darstellung:
Zur Graphik,    zurück zur Übersicht aller Sensoren.
 
Tabellarische Datenbersicht: ?
 
Sensor: Nr:Datum:Temp:Feuchte:
Aussen-T/F 1 01-01-2020 00:03:17 0.4 C 45 %
2 01-01-2020 00:13:17 0.4 C 45 %
3 01-01-2020 00:23:17 0.3 C 45 %
4 01-01-2020 00:33:17 -0.9 C 41 %
5 01-01-2020 00:43:17 -0.3 C 45 %
6 01-01-2020 00:53:18 -0.5 C 44 %
7 01-01-2020 01:03:17 -0.5 C 44 %
8 01-01-2020 01:13:17 -0.6 C 44 %
9 01-01-2020 01:23:17 -0.6 C 45 %
10 01-01-2020 01:33:17 -0.7 C 45 %
11 01-01-2020 01:43:17 -1.1 C 44 %
12 01-01-2020 01:53:18 -0.9 C 45 %
13 01-01-2020 02:03:17 -0.9 C 45 %
14 01-01-2020 02:13:17 -0.5 C 46 %
15 01-01-2020 02:23:17 -0.2 C 45 %
16 01-01-2020 02:33:18 -0.1 C 45 %
17 01-01-2020 02:43:18 0 C 45 %
18 01-01-2020 02:53:17 0.1 C 45 %
19 01-01-2020 03:03:17 0.1 C 45 %
20 01-01-2020 03:13:18 0.1 C 45 %
21 01-01-2020 03:23:17 0.2 C 45 %
22 01-01-2020 03:33:18 0.1 C 45 %
23 01-01-2020 03:43:18 0.1 C 45 %
24 01-01-2020 03:53:17 0.1 C 45 %
25 01-01-2020 04:03:18 0.2 C 45 %
Sensor: Nr:Datum:Temp:Feuchte:
Aussen-T/F 26 01-01-2020 04:13:18 0.2 C 45 %
27 01-01-2020 04:23:17 0.3 C 45 %
28 01-01-2020 04:33:18 0.3 C 45 %
29 01-01-2020 04:43:18 0.3 C 44 %
30 01-01-2020 04:53:17 0.3 C 44 %
31 01-01-2020 05:03:18 0.4 C 44 %
32 01-01-2020 05:13:18 0.5 C 44 %
33 01-01-2020 05:23:17 0.4 C 44 %
34 01-01-2020 05:33:18 0.4 C 44 %
35 01-01-2020 05:43:18 0.4 C 44 %
36 01-01-2020 05:53:17 0.4 C 43 %
37 01-01-2020 06:03:17 0.4 C 43 %
38 01-01-2020 06:13:17 0.5 C 43 %
39 01-01-2020 06:23:17 0.4 C 42 %
40 01-01-2020 06:33:17 0.6 C 42 %
41 01-01-2020 06:43:17 0.6 C 42 %
42 01-01-2020 06:53:17 0.6 C 42 %
43 01-01-2020 07:03:18 0.6 C 41 %
44 01-01-2020 07:13:18 0.6 C 41 %
45 01-01-2020 07:23:17 0.6 C 41 %
46 01-01-2020 07:33:17 0.6 C 41 %
47 01-01-2020 07:43:17 0.6 C 41 %
48 01-01-2020 07:53:17 0.6 C 41 %
49 01-01-2020 08:03:17 0.6 C 41 %
50 01-01-2020 08:13:17 0.6 C 41 %
Sensor: Nr:Datum:Temp:Feuchte:
Aussen-T/F 51 01-01-2020 08:23:18 0.7 C 40 %
52 01-01-2020 08:33:17 0.7 C 40 %
53 01-01-2020 08:43:17 0.7 C 40 %
54 01-01-2020 08:53:17 0.8 C 40 %
55 01-01-2020 09:03:17 0.8 C 40 %
56 01-01-2020 09:13:17 1.1 C 38 %
57 01-01-2020 09:23:17 1.3 C 38 %
58 01-01-2020 09:33:17 1.4 C 37 %
59 01-01-2020 09:43:17 1.5 C 37 %
60 01-01-2020 09:53:17 1.7 C 36 %
61 01-01-2020 10:03:18 1.9 C 36 %
62 01-01-2020 10:13:18 2 C 34 %
63 01-01-2020 10:23:17 2.1 C 33 %
64 01-01-2020 10:33:17 2.2 C 32 %
65 01-01-2020 10:43:17 2.3 C 32 %
66 01-01-2020 10:53:17 2.4 C 32 %
67 01-01-2020 11:03:17 2.4 C 31 %
68 01-01-2020 11:13:17 2.7 C 31 %
69 01-01-2020 11:23:18 2.7 C 30 %
70 01-01-2020 11:33:17 2.7 C 30 %
71 01-01-2020 11:43:17 2.8 C 30 %
72 01-01-2020 11:53:18 2.9 C 30 %
73 01-01-2020 12:03:17 3.2 C 28 %
74 01-01-2020 12:13:17 3 C 29 %
75 01-01-2020 12:23:18 2.7 C 30 %
Sensor: Nr:Datum:Temp:Feuchte:
Aussen-T/F 76 01-01-2020 12:33:17 2.7 C 30 %
77 01-01-2020 12:43:17 2.5 C 30 %
78 01-01-2020 12:53:18 2.1 C 32 %
79 01-01-2020 13:03:17 1.6 C 36 %
80 01-01-2020 13:13:17 1.6 C 37 %
81 01-01-2020 13:23:18 1.4 C 37 %
82 01-01-2020 13:33:17 1.5 C 38 %
83 01-01-2020 13:43:17 1.5 C 38 %
84 01-01-2020 13:53:17 1.6 C 39 %
85 01-01-2020 14:03:17 1.6 C 39 %
86 01-01-2020 14:13:17 1.6 C 39 %
87 01-01-2020 14:23:17 1.6 C 40 %
88 01-01-2020 14:33:17 1.4 C 40 %
89 01-01-2020 14:43:17 1.3 C 41 %
90 01-01-2020 14:53:17 1.2 C 41 %
91 01-01-2020 15:03:17 1.3 C 41 %
92 01-01-2020 15:13:17 1.2 C 41 %
93 01-01-2020 15:23:17 1.6 C 41 %
94 01-01-2020 15:33:17 1.7 C 38 %
95 01-01-2020 15:43:17 1.1 C 38 %
96 01-01-2020 15:53:17 0.7 C 40 %
97 01-01-2020 16:03:17 0.5 C 43 %
98 01-01-2020 16:13:17 -0.1 C 43 %
99 01-01-2020 16:23:17 -0.3 C 44 %
100 01-01-2020 16:33:18 -0.7 C 44 %
Sensor: Nr:Datum:Temp:Feuchte:
Aussen-T/F 101 01-01-2020 16:43:18 -0.7 C 45 %
102 01-01-2020 16:53:17 -0.8 C 45 %
103 01-01-2020 17:03:17 -1 C 45 %
104 01-01-2020 17:13:17 -1.3 C 45 %
105 01-01-2020 17:23:18 -1.5 C 45 %
106 01-01-2020 17:33:17 -1.8 C 45 %
107 01-01-2020 17:43:17 -1.9 C 45 %
108 01-01-2020 17:53:18 -1.8 C 45 %
109 01-01-2020 18:03:17 -1.9 C 45 %
110 01-01-2020 18:13:17 -1.9 C 45 %
111 01-01-2020 18:23:17 -2.1 C 45 %
112 01-01-2020 18:33:17 -2.1 C 45 %
113 01-01-2020 18:43:18 -2.1 C 45 %
114 01-01-2020 18:53:17 -2.2 C 45 %
115 01-01-2020 19:03:17 -2.4 C 45 %
116 01-01-2020 19:13:18 -2.5 C 45 %
117 01-01-2020 19:23:17 -2.4 C 45 %
118 01-01-2020 19:33:17 -2.3 C 45 %
119 01-01-2020 19:43:17 -2.2 C 45 %
120 01-01-2020 19:53:17 -2.4 C 45 %
121 01-01-2020 20:03:17 -2.2 C 45 %
122 01-01-2020 20:13:17 -2.1 C 45 %
123 01-01-2020 20:23:18 -2.3 C 45 %
124 01-01-2020 20:33:17 -2.1 C 45 %
125 01-01-2020 20:43:17 -2.6 C 43 %
Sensor: Nr:Datum:Temp:Feuchte:
Aussen-T/F 126 01-01-2020 20:53:17 -2.8 C 43 %
127 01-01-2020 21:03:17 -2.8 C 43 %
128 01-01-2020 21:13:17 -3 C 43 %
129 01-01-2020 21:23:18 -3.1 C 43 %
130 01-01-2020 21:33:17 -3.1 C 43 %
131 01-01-2020 21:43:17 -3.2 C 42 %
132 01-01-2020 21:53:17 -2.8 C 43 %
133 01-01-2020 22:03:17 -3.1 C 42 %
134 01-01-2020 22:13:17 -3.2 C 42 %
135 01-01-2020 22:23:17 -3 C 43 %
136 01-01-2020 22:33:17 -2.8 C 43 %
137 01-01-2020 22:43:17 -2.8 C 43 %
138 01-01-2020 22:53:17 -3.2 C 42 %
139 01-01-2020 23:03:17 -3.2 C 42 %
140 01-01-2020 23:13:17 -2.7 C 44 %
141 01-01-2020 23:23:17 -2.3 C 45 %
142 01-01-2020 23:33:17 -2.4 C 44 %
143 01-01-2020 23:43:17 -2.2 C 45 %
144 01-01-2020 23:53:17 -2.2 C 45 %
145 02-01-2020 00:03:17 -2.3 C 44 %
146 02-01-2020 00:13:17 -2.4 C 44 %
147 02-01-2020 00:23:17 -2.6 C 43 %
148 02-01-2020 00:33:17 -2.4 C 43 %
149 02-01-2020 00:43:17 -2.4 C 44 %
150 02-01-2020 00:53:17 -2.6 C 43 %
Sensor: Nr:Datum:Temp:Feuchte:
Aussen-T/F 151 02-01-2020 01:03:17 -2.3 C 44 %
152 02-01-2020 01:13:17 -2.1 C 45 %
153 02-01-2020 01:23:17 -1.9 C 45 %
154 02-01-2020 01:33:17 -1.9 C 45 %
155 02-01-2020 01:43:17 -1.8 C 45 %
156 02-01-2020 01:53:17 -1.7 C 45 %
157 02-01-2020 02:03:17 -1.6 C 45 %
158 02-01-2020 02:13:17 -1.5 C 45 %
159 02-01-2020 02:23:17 -1.4 C 45 %
160 02-01-2020 02:33:17 -1.3 C 45 %
161 02-01-2020 02:43:17 -1.3 C 45 %
162 02-01-2020 02:53:17 -1.3 C 45 %
163 02-01-2020 03:03:17 -1.2 C 45 %
164 02-01-2020 03:13:18 -1.1 C 45 %
165 02-01-2020 03:23:17 -1.1 C 45 %
166 02-01-2020 03:33:18 -1 C 45 %
167 02-01-2020 03:43:18 -0.9 C 45 %
168 02-01-2020 03:53:17 -0.9 C 45 %
169 02-01-2020 04:03:18 -0.8 C 45 %
170 02-01-2020 04:13:18 -0.7 C 45 %
171 02-01-2020 04:23:17 -0.7 C 45 %
172 02-01-2020 04:33:17 -0.7 C 45 %
173 02-01-2020 04:43:17 -0.7 C 45 %
174 02-01-2020 04:53:17 -0.8 C 45 %
175 02-01-2020 05:03:17 -0.9 C 45 %
Sensor: Nr:Datum:Temp:Feuchte:
Aussen-T/F 176 02-01-2020 05:13:17 -0.9 C 45 %
177 02-01-2020 05:23:18 -0.9 C 45 %
178 02-01-2020 05:33:17 -0.9 C 45 %
179 02-01-2020 05:43:17 -0.8 C 44 %
180 02-01-2020 05:53:18 -0.8 C 44 %
181 02-01-2020 06:03:17 -0.9 C 44 %
182 02-01-2020 06:13:17 -0.9 C 43 %
183 02-01-2020 06:23:17 -0.9 C 43 %
184 02-01-2020 06:33:18 -0.7 C 42 %
185 02-01-2020 06:43:18 -0.7 C 41 %
186 02-01-2020 06:53:17 -0.7 C 40 %
187 02-01-2020 07:03:18 -0.7 C 40 %
188 02-01-2020 07:13:18 -0.7 C 40 %
189 02-01-2020 07:23:17 -0.7 C 39 %
190 02-01-2020 07:33:17 -0.7 C 39 %
191 02-01-2020 07:43:17 -0.7 C 40 %
192 02-01-2020 07:53:17 -0.6 C 41 %
193 02-01-2020 08:03:18 -0.6 C 41 %
194 02-01-2020 08:13:18 -0.5 C 41 %
195 02-01-2020 08:23:17 -0.4 C 41 %
196 02-01-2020 08:33:17 -0.3 C 40 %
197 02-01-2020 08:43:17 -0.3 C 41 %
198 02-01-2020 08:53:17 -0.2 C 42 %
199 02-01-2020 09:03:17 -0.1 C 42 %
200 02-01-2020 09:13:17 0.1 C 42 %
Sensor: Nr:Datum:Temp:Feuchte:
Aussen-T/F 201 02-01-2020 09:23:17 0.1 C 40 %
202 02-01-2020 09:33:18 0.4 C 38 %
203 02-01-2020 09:43:18 0.5 C 37 %
204 02-01-2020 09:53:17 0.4 C 39 %
205 02-01-2020 10:03:17 0.4 C 40 %
206 02-01-2020 10:13:18 0.7 C 41 %
207 02-01-2020 10:23:17 1.1 C 42 %
208 02-01-2020 10:33:18 1.1 C 39 %
209 02-01-2020 10:43:18 1.3 C 39 %
210 02-01-2020 10:53:17 1.5 C 38 %
211 02-01-2020 11:03:18 1.7 C 38 %
212 02-01-2020 11:13:18 1.6 C 35 %
213 02-01-2020 11:23:17 1.9 C 37 %
214 02-01-2020 11:33:17 2.1 C 36 %
215 02-01-2020 11:43:17 2.1 C 35 %
216 02-01-2020 11:53:17 2.1 C 34 %
217 02-01-2020 12:03:17 2.2 C 34 %
218 02-01-2020 12:13:17 2.3 C 35 %
219 02-01-2020 12:23:17 2.3 C 35 %
220 02-01-2020 12:33:17 2.6 C 34 %
221 02-01-2020 12:43:17 3 C 35 %
222 02-01-2020 12:53:17 2.8 C 32 %
223 02-01-2020 13:03:17 2.9 C 31 %
224 02-01-2020 13:13:17 3.1 C 30 %
225 02-01-2020 13:23:17 3.3 C 29 %
Sensor: Nr:Datum:Temp:Feuchte:
Aussen-T/F 226 02-01-2020 13:33:17 3.6 C 29 %
227 02-01-2020 13:43:17 3.3 C 29 %
228 02-01-2020 13:53:18 3.1 C 30 %
229 02-01-2020 14:03:17 3.4 C 30 %
230 02-01-2020 14:13:17 3.4 C 30 %
231 02-01-2020 14:23:18 3.5 C 30 %
232 02-01-2020 14:33:17 3.4 C 30 %
233 02-01-2020 14:43:17 3.7 C 30 %
234 02-01-2020 14:53:17 3.4 C 30 %
235 02-01-2020 15:03:17 3.1 C 31 %
236 02-01-2020 15:13:17 3 C 31 %
237 02-01-2020 15:23:18 2.7 C 32 %
238 02-01-2020 15:33:17 2.5 C 33 %
239 02-01-2020 15:43:17 2.5 C 34 %
240 02-01-2020 15:53:17 2.4 C 35 %
241 02-01-2020 16:03:17 2.4 C 35 %
242 02-01-2020 16:13:17 2.3 C 35 %
243 02-01-2020 16:23:18 2.2 C 36 %
244 02-01-2020 16:33:17 2.2 C 37 %
245 02-01-2020 16:43:17 2.3 C 37 %
246 02-01-2020 16:53:17 2.2 C 37 %
247 02-01-2020 17:03:17 2.1 C 38 %
248 02-01-2020 17:13:17 2 C 38 %
249 02-01-2020 17:23:18 2.1 C 40 %
250 02-01-2020 17:33:17 2.1 C 40 %
Sensor: Nr:Datum:Temp:Feuchte:
Aussen-T/F 251 02-01-2020 17:43:17 2.1 C 40 %
252 02-01-2020 17:53:17 2.1 C 40 %
253 02-01-2020 18:03:17 2.1 C 40 %
254 02-01-2020 18:13:17 2.1 C 40 %
255 02-01-2020 18:23:17 2.1 C 40 %
256 02-01-2020 18:33:17 2.1 C 40 %
257 02-01-2020 18:43:18 2.2 C 39 %
258 02-01-2020 18:53:17 2.3 C 40 %
259 02-01-2020 19:03:17 2.2 C 40 %
260 02-01-2020 19:13:18 2.2 C 40 %
261 02-01-2020 19:23:17 2.3 C 40 %
262 02-01-2020 19:33:17 2.3 C 40 %
263 02-01-2020 19:43:18 2.3 C 40 %
264 02-01-2020 19:53:17 2.3 C 40 %
265 02-01-2020 20:03:18 2.3 C 40 %
266 02-01-2020 20:13:18 2.4 C 40 %
267 02-01-2020 20:23:17 2.5 C 40 %
268 02-01-2020 20:33:17 2.6 C 40 %
269 02-01-2020 20:43:17 2.6 C 40 %
270 02-01-2020 20:53:17 2.5 C 39 %
271 02-01-2020 21:03:18 2.5 C 40 %
272 02-01-2020 21:13:18 2.5 C 40 %
273 02-01-2020 21:23:17 2.5 C 40 %
274 02-01-2020 21:33:18 2.5 C 40 %
275 02-01-2020 21:43:18 2.3 C 40 %
Sensor: Nr:Datum:Temp:Feuchte:
Aussen-T/F 276 02-01-2020 21:53:17 1.9 C 42 %
277 02-01-2020 22:03:17 2.3 C 43 %
278 02-01-2020 22:13:17 2.4 C 43 %
279 02-01-2020 22:23:17 2.5 C 43 %
280 02-01-2020 22:33:17 2.6 C 43 %
281 02-01-2020 22:43:18 2.7 C 43 %
282 02-01-2020 22:53:17 2.7 C 42 %
283 02-01-2020 23:03:17 2.8 C 42 %
284 02-01-2020 23:13:17 2.8 C 42 %
285 02-01-2020 23:23:17 2.8 C 41 %
286 02-01-2020 23:33:18 2.8 C 42 %
287 02-01-2020 23:43:18 2.9 C 42 %
288 02-01-2020 23:53:17 2.8 C 41 %
289 03-01-2020 00:03:18 2.9 C 42 %
290 03-01-2020 00:13:18 3 C 41 %
291 03-01-2020 00:23:17 3.1 C 41 %
292 03-01-2020 00:33:17 3.2 C 41 %
293 03-01-2020 00:43:17 3.2 C 41 %
294 03-01-2020 00:53:17 3.4 C 42 %
295 03-01-2020 01:03:17 3.4 C 42 %
296 03-01-2020 01:13:17 3.5 C 42 %
297 03-01-2020 01:23:18 3.5 C 42 %
298 03-01-2020 01:33:17 3.5 C 42 %
299 03-01-2020 01:43:17 3.6 C 42 %
300 03-01-2020 01:53:18 3.6 C 42 %
Sensor: Nr:Datum:Temp:Feuchte:
Aussen-T/F 301 03-01-2020 02:03:17 3.7 C 42 %
302 03-01-2020 02:13:17 3.7 C 42 %
303 03-01-2020 02:23:17 3.9 C 42 %
304 03-01-2020 02:33:17 3.7 C 42 %
305 03-01-2020 02:43:18 3.7 C 43 %
306 03-01-2020 02:53:17 3.9 C 44 %
307 03-01-2020 03:03:17 3.8 C 44 %
308 03-01-2020 03:13:17 3.8 C 44 %
309 03-01-2020 03:23:17 3.8 C 44 %
310 03-01-2020 03:33:17 3.9 C 44 %
311 03-01-2020 03:43:17 3.9 C 44 %
312 03-01-2020 03:53:18 3.9 C 44 %
313 03-01-2020 04:03:17 4 C 43 %
314 03-01-2020 04:13:17 4 C 43 %
315 03-01-2020 04:23:18 4 C 42 %
316 03-01-2020 04:33:17 4.1 C 42 %
317 03-01-2020 04:43:17 4.1 C 42 %
318 03-01-2020 04:53:17 4.2 C 42 %
319 03-01-2020 05:03:17 4.2 C 41 %
320 03-01-2020 05:13:17 4.3 C 40 %
321 03-01-2020 05:23:17 4.3 C 40 %
322 03-01-2020 05:33:17 4.4 C 40 %
323 03-01-2020 05:43:17 4.4 C 40 %
324 03-01-2020 05:53:17 4.4 C 40 %
325 03-01-2020 06:03:17 4.4 C 40 %
Sensor: Nr:Datum:Temp:Feuchte:
Aussen-T/F 326 03-01-2020 06:13:17 4.4 C 40 %
327 03-01-2020 06:23:18 4.4 C 40 %
328 03-01-2020 06:33:17 4.7 C 40 %
329 03-01-2020 06:43:17 5.3 C 40 %
330 03-01-2020 06:53:18 6.7 C 34 %
331 03-01-2020 07:03:18 7.1 C 31 %
332 03-01-2020 07:13:18 7.7 C 30 %
333 03-01-2020 07:23:17 8 C 29 %
334 03-01-2020 07:33:17 7.9 C 30 %
335 03-01-2020 07:43:17 7.8 C 30 %
336 03-01-2020 07:53:17 7.9 C 29 %
337 03-01-2020 08:03:18 7.9 C 30 %
338 03-01-2020 08:13:18 8 C 29 %
339 03-01-2020 08:23:17 7.9 C 29 %
340 03-01-2020 08:33:18 7.8 C 29 %
341 03-01-2020 08:43:18 7.9 C 29 %
342 03-01-2020 08:53:17 8 C 29 %
343 03-01-2020 09:03:17 8.2 C 28 %
344 03-01-2020 09:13:17 8.2 C 28 %
345 03-01-2020 09:23:17 8.2 C 28 %
346 03-01-2020 09:33:17 8.4 C 28 %
347 03-01-2020 09:43:17 8.4 C 27 %
348 03-01-2020 09:53:17 8.4 C 27 %
349 03-01-2020 10:03:17 8.6 C 27 %
350 03-01-2020 10:13:17 8.6 C 27 %
Sensor: Nr:Datum:Temp:Feuchte:
Aussen-T/F 351 03-01-2020 10:23:17 8.6 C 27 %
352 03-01-2020 10:33:17 8.6 C 27 %
353 03-01-2020 10:43:18 8.6 C 27 %
354 03-01-2020 10:53:17 8.6 C 27 %
355 03-01-2020 11:03:18 8.3 C 27 %
356 03-01-2020 11:13:18 8.5 C 27 %
357 03-01-2020 11:23:18 8.6 C 27 %
358 03-01-2020 11:33:17 8.9 C 27 %
359 03-01-2020 11:43:17 8.9 C 27 %
360 03-01-2020 11:53:17 8.7 C 27 %
361 03-01-2020 12:03:17 8.6 C 27 %
362 03-01-2020 12:13:17 8.4 C 27 %
363 03-01-2020 12:23:17 8.6 C 27 %
364 03-01-2020 12:33:17 8.7 C 27 %
365 03-01-2020 12:43:17 8.5 C 27 %
366 03-01-2020 12:53:17 8.6 C 27 %
367 03-01-2020 13:03:17 8.5 C 27 %
368 03-01-2020 13:13:18 8.5 C 28 %
369 03-01-2020 13:23:17 8.6 C 28 %
370 03-01-2020 13:33:17 8.8 C 27 %
371 03-01-2020 13:43:18 8.8 C 28 %
372 03-01-2020 13:53:17 8.7 C 28 %
373 03-01-2020 14:03:17 8.7 C 28 %
374 03-01-2020 14:13:17 8.5 C 28 %
375 03-01-2020 14:23:18 8.5 C 29 %
Sensor: Nr:Datum:Temp:Feuchte:
Aussen-T/F 376 03-01-2020 14:33:17 8.5 C 29 %
377 03-01-2020 14:43:17 8.5 C 29 %
378 03-01-2020 14:53:17 8.5 C 30 %
379 03-01-2020 15:03:17 9 C 28 %
380 03-01-2020 15:13:17 9 C 28 %
381 03-01-2020 15:23:17 9 C 28 %
382 03-01-2020 15:33:17 9.1 C 28 %
383 03-01-2020 15:43:18 9.2 C 28 %
384 03-01-2020 15:53:17 9 C 28 %
385 03-01-2020 16:03:17 9 C 28 %
386 03-01-2020 16:13:17 9 C 29 %
387 03-01-2020 16:23:17 8.9 C 30 %
388 03-01-2020 16:33:17 9 C 29 %
389 03-01-2020 16:43:17 9 C 29 %
390 03-01-2020 16:53:17 9 C 29 %
391 03-01-2020 17:03:17 8.6 C 31 %
392 03-01-2020 17:13:17 8.6 C 31 %
393 03-01-2020 17:23:17 8.9 C 31 %
394 03-01-2020 17:33:17 8.8 C 30 %
395 03-01-2020 17:43:17 8.9 C 30 %
396 03-01-2020 17:53:17 9 C 30 %
397 03-01-2020 18:03:17 9 C 30 %
398 03-01-2020 18:13:18 9.1 C 30 %
399 03-01-2020 18:23:18 9.3 C 30 %
400 03-01-2020 18:33:18 9.3 C 30 %
Sensor: Nr:Datum:Temp:Feuchte:
Aussen-T/F 401 03-01-2020 18:43:18 9.2 C 30 %
402 03-01-2020 18:53:17 9.3 C 30 %
403 03-01-2020 19:03:18 9.2 C 30 %
404 03-01-2020 19:13:18 8.9 C 32 %
405 03-01-2020 19:23:17 8.9 C 32 %
406 03-01-2020 19:33:17 9.2 C 31 %
407 03-01-2020 19:43:17 9.3 C 31 %
408 03-01-2020 19:53:17 9.2 C 31 %
409 03-01-2020 20:03:18 9 C 31 %
410 03-01-2020 20:13:18 8.9 C 35 %
411 03-01-2020 20:23:17 8.9 C 35 %
412 03-01-2020 20:33:17 8.8 C 35 %
413 03-01-2020 20:43:17 8.7 C 36 %
414 03-01-2020 20:53:18 8.6 C 39 %
415 03-01-2020 21:03:17 8.2 C 37 %
416 03-01-2020 21:13:17 7.8 C 35 %
417 03-01-2020 21:23:17 7.5 C 35 %
418 03-01-2020 21:33:18 7.4 C 36 %
419 03-01-2020 21:43:18 7.2 C 35 %
420 03-01-2020 21:53:17 6.8 C 35 %
421 03-01-2020 22:03:18 6.8 C 34 %
422 03-01-2020 22:13:18 6.7 C 35 %
423 03-01-2020 22:23:17 6.5 C 33 %
424 03-01-2020 22:33:17 6.4 C 34 %
425 03-01-2020 22:43:17 6 C 33 %
Sensor: Nr:Datum:Temp:Feuchte:
Aussen-T/F 426 03-01-2020 22:53:17 6 C 34 %
427 03-01-2020 23:03:17 5.7 C 35 %
428 03-01-2020 23:13:17 5.9 C 34 %
429 03-01-2020 23:23:17 5.8 C 35 %
430 03-01-2020 23:33:17 5.8 C 33 %
431 03-01-2020 23:43:17 5.7 C 35 %
432 03-01-2020 23:53:17 5.8 C 35 %
433 04-01-2020 00:03:18 5.7 C 35 %
434 04-01-2020 00:13:18 5.6 C 35 %
435 04-01-2020 00:23:17 5.4 C 35 %
436 04-01-2020 00:33:17 5.6 C 33 %
437 04-01-2020 00:43:17 5.6 C 33 %
438 04-01-2020 00:53:17 5.4 C 34 %
439 04-01-2020 01:03:17 5.3 C 34 %
440 04-01-2020 01:13:17 4.6 C 36 %
441 04-01-2020 01:23:17 4.6 C 36 %
442 04-01-2020 01:33:17 4.6 C 36 %
443 04-01-2020 01:43:17 3.6 C 37 %
444 04-01-2020 01:53:18 3.6 C 41 %
445 04-01-2020 02:03:17 3.5 C 41 %
446 04-01-2020 02:13:17 3.9 C 37 %
447 04-01-2020 02:23:17 3.8 C 35 %
448 04-01-2020 02:33:17 3.5 C 37 %
449 04-01-2020 02:43:17 3.4 C 40 %
450 04-01-2020 02:53:17 3.8 C 39 %
Sensor: Nr:Datum:Temp:Feuchte:
Aussen-T/F 451 04-01-2020 03:03:18 3.7 C 39 %
452 04-01-2020 03:13:18 3.9 C 40 %
453 04-01-2020 03:23:17 3.3 C 39 %
454 04-01-2020 03:33:17 3 C 41 %
455 04-01-2020 03:43:17 3.4 C 42 %
456 04-01-2020 03:53:17 3.7 C 36 %
457 04-01-2020 04:03:17 3.7 C 35 %
458 04-01-2020 04:13:17 3.4 C 35 %
459 04-01-2020 04:23:17 3.3 C 36 %
460 04-01-2020 04:33:17 3.1 C 37 %
461 04-01-2020 04:43:17 2.8 C 38 %
462 04-01-2020 04:53:17 2.6 C 39 %
463 04-01-2020 05:03:17 2.9 C 40 %
464 04-01-2020 05:13:17 2.4 C 38 %
465 04-01-2020 05:23:17 2.5 C 40 %
466 04-01-2020 05:33:17 1.8 C 40 %
467 04-01-2020 05:43:18 2 C 41 %
468 04-01-2020 05:53:17 2.3 C 40 %
469 04-01-2020 06:03:17 2.2 C 39 %
470 04-01-2020 06:13:17 2.8 C 36 %
471 04-01-2020 06:23:17 2.6 C 35 %
472 04-01-2020 06:33:17 2.4 C 37 %
473 04-01-2020 06:43:17 2.7 C 37 %
474 04-01-2020 06:53:17 2.7 C 34 %
475 04-01-2020 07:03:17 2.7 C 34 %
Sensor: Nr:Datum:Temp:Feuchte:
Aussen-T/F 476 04-01-2020 07:13:17 2.5 C 34 %
477 04-01-2020 07:23:17 2.5 C 34 %
478 04-01-2020 07:33:17 2 C 36 %
479 04-01-2020 07:43:17 2 C 36 %
480 04-01-2020 07:53:17 2.1 C 37 %
481 04-01-2020 08:03:17 1.7 C 39 %
482 04-01-2020 08:13:17 1.6 C 41 %
483 04-01-2020 08:23:17 1.3 C 41 %
484 04-01-2020 08:33:17 1.2 C 43 %
485 04-01-2020 08:43:17 1.3 C 42 %
486 04-01-2020 08:53:17 1.2 C 41 %
487 04-01-2020 09:03:17 1 C 41 %
488 04-01-2020 09:13:17 0.8 C 44 %
489 04-01-2020 09:23:17 1 C 44 %
490 04-01-2020 09:33:18 1.4 C 45 %
491 04-01-2020 09:43:18 1.7 C 44 %
492 04-01-2020 09:53:17 1.9 C 41 %
493 04-01-2020 10:03:18 2.1 C 39 %
494 04-01-2020 10:13:18 2.3 C 38 %
495 04-01-2020 10:23:17 3.1 C 35 %
496 04-01-2020 10:33:17 3.6 C 33 %
497 04-01-2020 10:43:17 5.1 C 27 %
498 04-01-2020 10:53:17 5.1 C 27 %
499 04-01-2020 11:03:17 5.4 C 27 %
500 04-01-2020 11:13:17 5.4 C 27 %
Sensor: Nr:Datum:Temp:Feuchte:
Aussen-T/F 501 04-01-2020 11:23:17 5.6 C 27 %
502 04-01-2020 11:33:17 5.6 C 27 %
503 04-01-2020 11:43:17 5.6 C 26 %
504 04-01-2020 11:53:17 5.8 C 26 %
505 04-01-2020 12:03:17 5.9 C 26 %
506 04-01-2020 12:13:18 6 C 26 %
507 04-01-2020 12:23:17 6.2 C 26 %
508 04-01-2020 12:33:17 6.2 C 26 %
509 04-01-2020 12:43:17 6.3 C 26 %
510 04-01-2020 12:53:17 6.5 C 26 %
511 04-01-2020 13:03:17 6.7 C 26 %
512 04-01-2020 13:13:17 6.7 C 26 %
513 04-01-2020 13:23:17 6.7 C 26 %
514 04-01-2020 13:33:17 6.8 C 25 %
515 04-01-2020 13:43:17 7 C 25 %
516 04-01-2020 13:53:18 7 C 25 %
517 04-01-2020 14:03:18 7 C 25 %
518 04-01-2020 14:13:18 7 C 25 %
519 04-01-2020 14:23:18 7.1 C 25 %
520 04-01-2020 14:33:17 7.1 C 25 %
521 04-01-2020 14:43:18 7 C 25 %
522 04-01-2020 14:53:17 7 C 25 %
523 04-01-2020 15:03:17 7.1 C 25 %
524 04-01-2020 15:13:17 7 C 25 %
525 04-01-2020 15:23:17 7 C 25 %
Sensor: Nr:Datum:Temp:Feuchte:
Aussen-T/F 526 04-01-2020 15:33:18 7 C 25 %
527 04-01-2020 15:43:18 7 C 25 %
528 04-01-2020 15:53:18 6.9 C 25 %
529 04-01-2020 16:03:17 6.9 C 25 %
530 04-01-2020 16:13:18 6.9 C 25 %
531 04-01-2020 16:23:17 6.9 C 25 %
532 04-01-2020 16:33:17 6.8 C 25 %
533 04-01-2020 16:43:17 6.8 C 25 %
534 04-01-2020 16:53:17 6.8 C 25 %
535 04-01-2020 17:03:17 6.8 C 25 %
536 04-01-2020 17:13:17 6.8 C 25 %
537 04-01-2020 17:23:17 6.7 C 25 %
538 04-01-2020 17:33:18 6.7 C 25 %
539 04-01-2020 17:43:18 6.6 C 25 %
540 04-01-2020 17:53:17 6.6 C 25 %
541 04-01-2020 18:03:17 6.7 C 25 %
542 04-01-2020 18:13:17 6.6 C 25 %
543 04-01-2020 18:23:17 6.8 C 25 %
544 04-01-2020 18:33:17 6.7 C 25 %
545 04-01-2020 18:43:17 6.6 C 25 %
546 04-01-2020 18:53:17 6.5 C 25 %
547 04-01-2020 19:03:17 6.6 C 25 %
548 04-01-2020 19:13:17 6.7 C 25 %
549 04-01-2020 19:23:17 6.5 C 26 %
550 04-01-2020 19:33:17 6 C 27 %
Sensor: Nr:Datum:Temp:Feuchte:
Aussen-T/F 551 04-01-2020 19:43:17 5.8 C 30 %
552 04-01-2020 19:53:17 5.6 C 30 %
553 04-01-2020 20:03:17 5.5 C 31 %
554 04-01-2020 20:13:17 5.6 C 31 %
555 04-01-2020 20:23:18 5.7 C 30 %
556 04-01-2020 20:33:18 5.8 C 30 %
557 04-01-2020 20:43:18 6 C 29 %
558 04-01-2020 20:53:17 6.1 C 29 %
559 04-01-2020 21:03:17 5.8 C 30 %
560 04-01-2020 21:13:17 5.5 C 33 %
561 04-01-2020 21:23:17 5.3 C 35 %
562 04-01-2020 21:33:17 5.3 C 38 %
563 04-01-2020 21:43:17 5.2 C 37 %
564 04-01-2020 21:53:18 5.3 C 40 %
565 04-01-2020 22:03:17 5.3 C 40 %
566 04-01-2020 22:13:17 5.3 C 39 %
567 04-01-2020 22:23:17 5.3 C 37 %
568 04-01-2020 22:33:17 5.4 C 37 %
569 04-01-2020 22:43:17 5.4 C 37 %
570 04-01-2020 22:53:17 5.4 C 36 %
571 04-01-2020 23:03:17 5.5 C 35 %
572 04-01-2020 23:13:17 5.6 C 35 %
573 04-01-2020 23:23:17 5.6 C 34 %
574 04-01-2020 23:33:18 5.6 C 35 %
575 04-01-2020 23:43:18 5.7 C 34 %
Sensor: Nr:Datum:Temp:Feuchte:
Aussen-T/F 576 04-01-2020 23:53:17 5.6 C 35 %
577 05-01-2020 00:03:17 5.6 C 33 %
578 05-01-2020 00:13:17 5.5 C 35 %
579 05-01-2020 00:23:17 5.4 C 35 %
580 05-01-2020 00:33:18 5.4 C 35 %
581 05-01-2020 00:43:18 5.3 C 36 %
582 05-01-2020 00:53:17 5.3 C 36 %
583 05-01-2020 01:03:17 5.1 C 37 %
584 05-01-2020 01:13:17 5 C 40 %
585 05-01-2020 01:23:17 4.9 C 42 %
586 05-01-2020 01:33:17 4.8 C 41 %
587 05-01-2020 01:43:18 4.8 C 42 %
588 05-01-2020 01:53:17 4.7 C 42 %
589 05-01-2020 02:03:18 4.8 C 41 %
590 05-01-2020 02:13:18 4.7 C 41 %
591 05-01-2020 02:23:17 4.6 C 43 %
592 05-01-2020 02:33:17 4.5 C 44 %
593 05-01-2020 02:43:17 4.6 C 44 %
594 05-01-2020 02:53:17 4.6 C 42 %
595 05-01-2020 03:03:17 4.6 C 42 %
596 05-01-2020 03:13:17 4.6 C 41 %
597 05-01-2020 03:23:17 4.3 C 42 %
598 05-01-2020 03:33:17 4.3 C 43 %
599 05-01-2020 03:43:17 4.4 C 44 %
600 05-01-2020 03:53:17 4.5 C 44 %
Sensor: Nr:Datum:Temp:Feuchte:
Aussen-T/F 601 05-01-2020 04:03:17 4.4 C 43 %
602 05-01-2020 04:13:17 4.4 C 43 %
603 05-01-2020 04:23:17 4.3 C 42 %
604 05-01-2020 04:33:17 4.3 C 43 %
605 05-01-2020 04:43:17 4.4 C 43 %
606 05-01-2020 04:53:17 4.4 C 42 %
607 05-01-2020 05:03:17 4.4 C 42 %
608 05-01-2020 05:13:17 4.4 C 42 %
609 05-01-2020 05:23:17 4.4 C 42 %
610 05-01-2020 05:33:18 4.5 C 43 %
611 05-01-2020 05:43:18 4.6 C 43 %
612 05-01-2020 05:53:17 4.5 C 43 %
613 05-01-2020 06:03:17 4.6 C 43 %
614 05-01-2020 06:13:17 4.6 C 43 %
615 05-01-2020 06:23:17 4.6 C 42 %
616 05-01-2020 06:33:17 4.7 C 41 %
617 05-01-2020 06:43:17 4.7 C 40 %
618 05-01-2020 06:53:17 4.6 C 41 %
619 05-01-2020 07:03:17 4.6 C 41 %
620 05-01-2020 07:13:17 4.6 C 42 %
621 05-01-2020 07:23:17 4.5 C 42 %
622 05-01-2020 07:33:17 4.5 C 41 %
623 05-01-2020 07:43:17 4.4 C 41 %
624 05-01-2020 07:53:17 4.4 C 41 %
625 05-01-2020 08:03:18 4.3 C 42 %
Sensor: Nr:Datum:Temp:Feuchte:
Aussen-T/F 626 05-01-2020 08:13:18 4.3 C 42 %
627 05-01-2020 08:23:17 4.3 C 41 %
628 05-01-2020 08:33:17 4.4 C 42 %
629 05-01-2020 08:43:17 4.4 C 41 %
630 05-01-2020 08:53:17 4.6 C 40 %
631 05-01-2020 09:03:18 4.6 C 39 %
632 05-01-2020 09:13:18 4.6 C 40 %
633 05-01-2020 09:23:17 4.7 C 38 %
634 05-01-2020 09:33:18 4.8 C 38 %
635 05-01-2020 09:43:18 5 C 36 %
636 05-01-2020 09:53:17 5.1 C 35 %
637 05-01-2020 10:03:17 5.3 C 35 %
638 05-01-2020 10:13:18 5.4 C 34 %
639 05-01-2020 10:23:18 5.4 C 34 %
640 05-01-2020 10:33:18 5.5 C 33 %
641 05-01-2020 10:43:18 5.5 C 33 %
642 05-01-2020 10:53:17 5.5 C 34 %
643 05-01-2020 11:03:17 5.7 C 34 %
644 05-01-2020 11:13:17 5.7 C 33 %
645 05-01-2020 11:23:17 5.7 C 33 %
646 05-01-2020 11:33:17 5.9 C 32 %
647 05-01-2020 11:43:17 5.9 C 32 %
648 05-01-2020 11:53:17 6 C 32 %
649 05-01-2020 12:03:17 6 C 31 %
650 05-01-2020 12:13:17 6 C 31 %
Sensor: Nr:Datum:Temp:Feuchte:
Aussen-T/F 651 05-01-2020 12:23:17 6.1 C 31 %
652 05-01-2020 12:33:17 6.2 C 31 %
653 05-01-2020 12:43:17 6.2 C 31 %
654 05-01-2020 12:53:17 6.2 C 31 %
655 05-01-2020 13:03:17 6.3 C 31 %
656 05-01-2020 13:13:17 6.5 C 30 %
657 05-01-2020 13:23:17 6.5 C 30 %
658 05-01-2020 13:33:18 6.5 C 30 %
659 05-01-2020 13:43:18 6.6 C 30 %
660 05-01-2020 13:53:18 6.6 C 30 %
661 05-01-2020 14:03:18 6.7 C 30 %
662 05-01-2020 14:13:18 6.6 C 30 %
663 05-01-2020 14:23:18 6.7 C 30 %
664 05-01-2020 14:33:18 6.7 C 30 %
665 05-01-2020 14:43:18 6.7 C 30 %
666 05-01-2020 14:53:17 6.7 C 30 %
667 05-01-2020 15:03:18 6.6 C 30 %
668 05-01-2020 15:13:18 6.6 C 30 %
669 05-01-2020 15:23:18 6.5 C 31 %
670 05-01-2020 15:33:18 6.3 C 33 %
671 05-01-2020 15:43:18 6.1 C 34 %
672 05-01-2020 15:53:18 6 C 35 %
673 05-01-2020 16:03:18 6 C 35 %
674 05-01-2020 16:13:18 5.9 C 36 %
675 05-01-2020 16:23:17 5.8 C 36 %
Sensor: Nr:Datum:Temp:Feuchte:
Aussen-T/F 676 05-01-2020 16:33:17 5.7 C 36 %
677 05-01-2020 16:43:17 5.7 C 35 %
678 05-01-2020 16:53:18 5.6 C 36 %
679 05-01-2020 17:03:18 5.6 C 35 %
680 05-01-2020 17:13:18 5.6 C 34 %
681 05-01-2020 17:23:18 5.7 C 31 %
682 05-01-2020 17:33:18 5.6 C 31 %
683 05-01-2020 17:43:18 5.6 C 31 %
684 05-01-2020 17:53:17 5.7 C 31 %
685 05-01-2020 18:03:17 5.6 C 31 %
686 05-01-2020 18:13:17 5.5 C 31 %
687 05-01-2020 18:23:17 5.6 C 30 %
688 05-01-2020 18:33:17 5.7 C 29 %
689 05-01-2020 18:43:17 5.5 C 30 %
690 05-01-2020 18:53:17 5.6 C 30 %
691 05-01-2020 19:03:17 5.5 C 30 %
692 05-01-2020 19:13:17 5.6 C 30 %
693 05-01-2020 19:23:17 5.4 C 31 %
694 05-01-2020 19:33:17 5.3 C 31 %
695 05-01-2020 19:43:17 5.4 C 31 %
696 05-01-2020 19:53:18 5.3 C 31 %
697 05-01-2020 20:03:18 5.2 C 32 %
698 05-01-2020 20:13:18 5.5 C 29 %
699 05-01-2020 20:23:18 5.3 C 30 %
700 05-01-2020 20:33:18 5.3 C 30 %
Sensor: Nr:Datum:Temp:Feuchte:
Aussen-T/F 701 05-01-2020 20:43:18 5.2 C 31 %
702 05-01-2020 20:53:18 5.2 C 31 %
703 05-01-2020 21:03:18 5 C 32 %
704 05-01-2020 21:13:18 5.1 C 32 %
705 05-01-2020 21:23:18 5 C 32 %
706 05-01-2020 21:33:17 4.9 C 34 %
707 05-01-2020 21:43:17 4.8 C 35 %
708 05-01-2020 21:53:17 4.8 C 35 %
709 05-01-2020 22:03:17 4.8 C 35 %
710 05-01-2020 22:13:17 4.8 C 35 %
711 05-01-2020 22:23:17 4.7 C 35 %
712 05-01-2020 22:33:17 4.7 C 35 %
713 05-01-2020 22:43:17 4.7 C 35 %
714 05-01-2020 22:53:17 4.6 C 36 %
715 05-01-2020 23:03:17 4.5 C 36 %
716 05-01-2020 23:13:17 4.4 C 37 %
717 05-01-2020 23:23:17 4.4 C 36 %
718 05-01-2020 23:33:17 4.5 C 36 %
719 05-01-2020 23:43:17 4.4 C 35 %
720 05-01-2020 23:53:17 4.5 C 33 %
721 06-01-2020 00:03:18 4.4 C 33 %
722 06-01-2020 00:13:18 4.5 C 33 %
723 06-01-2020 00:23:18 4.4 C 32 %
724 06-01-2020 00:33:18 4.4 C 34 %
725 06-01-2020 00:43:18 4.4 C 32 %
Sensor: Nr:Datum:Temp:Feuchte:
Aussen-T/F 726 06-01-2020 00:53:18 4.3 C 33 %
727 06-01-2020 01:03:18 4.3 C 32 %
728 06-01-2020 01:13:18 4.3 C 32 %
729 06-01-2020 01:23:17 4.4 C 31 %
730 06-01-2020 01:33:18 4.2 C 32 %
731 06-01-2020 01:43:18 4.2 C 32 %
732 06-01-2020 01:53:17 4.1 C 33 %
733 06-01-2020 02:03:18 4.2 C 31 %
734 06-01-2020 02:13:18 4.2 C 32 %
735 06-01-2020 02:23:18 4.3 C 32 %
736 06-01-2020 02:33:18 4.1 C 32 %
737 06-01-2020 02:43:18 4.2 C 31 %
738 06-01-2020 02:53:18 4.1 C 30 %
739 06-01-2020 03:03:18 4.2 C 30 %
740 06-01-2020 03:13:18 4.2 C 31 %
741 06-01-2020 03:23:17 4.1 C 31 %
742 06-01-2020 03:33:18 4.1 C 32 %
743 06-01-2020 03:43:18 3.9 C 32 %
744 06-01-2020 03:53:18 4.1 C 31 %
745 06-01-2020 04:03:18 4.1 C 31 %
746 06-01-2020 04:13:18 4.1 C 29 %
747 06-01-2020 04:23:18 4.1 C 30 %
748 06-01-2020 04:33:18 3.8 C 32 %
749 06-01-2020 04:43:18 3.8 C 34 %
750 06-01-2020 04:53:17 3.7 C 33 %
Sensor: Nr:Datum:Temp:Feuchte:
Aussen-T/F 751 06-01-2020 05:03:18 3.8 C 33 %
752 06-01-2020 05:13:18 3.8 C 33 %
753 06-01-2020 05:23:18 3.5 C 35 %
754 06-01-2020 05:33:18 3.6 C 35 %
755 06-01-2020 05:43:18 3.6 C 35 %
756 06-01-2020 05:53:18 3.5 C 35 %
757 06-01-2020 06:03:18 3.5 C 33 %
758 06-01-2020 06:13:18 3.5 C 33 %
759 06-01-2020 06:23:18 3.3 C 35 %
760 06-01-2020 06:33:18 3.3 C 35 %
761 06-01-2020 06:43:18 3.2 C 36 %
762 06-01-2020 06:53:18 3 C 36 %
763 06-01-2020 07:03:18 3 C 35 %
764 06-01-2020 07:13:18 2.8 C 36 %
765 06-01-2020 07:23:18 2.9 C 37 %
766 06-01-2020 07:33:17 2.7 C 38 %
767 06-01-2020 07:43:17 2.6 C 38 %
768 06-01-2020 07:53:18 2.6 C 38 %
769 06-01-2020 08:03:17 2.7 C 35 %
770 06-01-2020 08:13:17 2.6 C 35 %
771 06-01-2020 08:23:17 2.4 C 35 %
772 06-01-2020 08:33:17 2.2 C 36 %
773 06-01-2020 08:43:17 2.3 C 38 %
774 06-01-2020 08:53:17 2.4 C 38 %
775 06-01-2020 09:03:17 2.6 C 38 %
Sensor: Nr:Datum:Temp:Feuchte:
Aussen-T/F 776 06-01-2020 09:13:17 2.8 C 36 %
777 06-01-2020 09:23:18 3 C 35 %
778 06-01-2020 09:33:18 3.2 C 32 %
779 06-01-2020 09:43:18 2.7 C 33 %
780 06-01-2020 09:53:17 2.7 C 34 %
781 06-01-2020 10:03:18 3.4 C 35 %
782 06-01-2020 10:13:18 3.3 C 31 %
783 06-01-2020 10:23:17 3 C 31 %
784 06-01-2020 10:33:18 2.7 C 32 %
785 06-01-2020 10:43:18 2.4 C 34 %
786 06-01-2020 10:53:17 1.9 C 37 %
787 06-01-2020 11:03:17 1.6 C 40 %
788 06-01-2020 11:13:17 1.6 C 41 %
789 06-01-2020 11:23:17 1.7 C 42 %
790 06-01-2020 11:33:17 2.2 C 40 %
791 06-01-2020 11:43:17 2 C 37 %
792 06-01-2020 11:53:17 1.9 C 40 %
793 06-01-2020 12:03:17 2 C 38 %
794 06-01-2020 12:13:17 2 C 38 %
795 06-01-2020 12:23:18 2.1 C 39 %
796 06-01-2020 12:33:18 2.1 C 38 %
797 06-01-2020 12:43:18 2.3 C 38 %
798 06-01-2020 12:53:17 2.3 C 38 %
799 06-01-2020 13:03:18 2.5 C 38 %
800 06-01-2020 13:13:18 2.4 C 38 %
Sensor: Nr:Datum:Temp:Feuchte:
Aussen-T/F 801 06-01-2020 13:23:17 2.1 C 39 %
802 06-01-2020 13:33:17 2.4 C 40 %
803 06-01-2020 13:43:17 2.7 C 39 %
804 06-01-2020 13:53:17 2.6 C 37 %
805 06-01-2020 14:03:17 2.5 C 38 %
806 06-01-2020 14:13:17 2.6 C 39 %
807 06-01-2020 14:23:17 2.5 C 39 %
808 06-01-2020 14:33:18 2.4 C 39 %
809 06-01-2020 14:43:18 2.8 C 40 %
810 06-01-2020 14:53:17 2.7 C 40 %
811 06-01-2020 15:03:18 2.6 C 39 %
812 06-01-2020 15:13:18 2.8 C 38 %
813 06-01-2020 15:23:18 2.8 C 39 %
814 06-01-2020 15:33:18 2.7 C 39 %
815 06-01-2020 15:43:18 2.6 C 40 %
816 06-01-2020 15:53:18 2.4 C 39 %
817 06-01-2020 16:03:18 2 C 40 %
818 06-01-2020 16:13:18 1.7 C 42 %
819 06-01-2020 16:23:17 1.8 C 43 %
820 06-01-2020 16:33:17 1.8 C 42 %
821 06-01-2020 16:43:17 1.2 C 41 %
822 06-01-2020 16:53:18 1.2 C 44 %
823 06-01-2020 17:03:18 1.3 C 43 %
824 06-01-2020 17:13:18 0.5 C 43 %
825 06-01-2020 17:23:18 0.8 C 45 %
Sensor: Nr:Datum:Temp:Feuchte:
Aussen-T/F 826 06-01-2020 17:33:18 0.8 C 45 %
827 06-01-2020 17:43:18 0.5 C 43 %
828 06-01-2020 17:53:17 0.1 C 44 %
829 06-01-2020 18:03:18 0 C 45 %
830 06-01-2020 18:13:18 -0.1 C 45 %
831 06-01-2020 18:23:18 0 C 45 %
832 06-01-2020 18:33:17 -0.4 C 45 %
833 06-01-2020 18:43:17 -0.1 C 45 %
834 06-01-2020 18:53:17 -0.2 C 45 %
835 06-01-2020 19:03:18 -0.2 C 45 %
836 06-01-2020 19:13:18 -0.5 C 44 %
837 06-01-2020 19:23:17 -0.6 C 44 %
838 06-01-2020 19:33:17 -1.3 C 43 %
839 06-01-2020 19:43:17 -1 C 45 %
840 06-01-2020 19:53:18 -1.1 C 45 %
841 06-01-2020 20:03:18 -1.5 C 44 %
842 06-01-2020 20:13:18 -1 C 45 %
843 06-01-2020 20:23:18 -0.8 C 45 %
844 06-01-2020 20:33:18 -0.7 C 45 %
845 06-01-2020 20:43:18 -0.8 C 45 %
846 06-01-2020 20:53:18 -0.9 C 44 %
847 06-01-2020 21:03:18 -1.1 C 44 %
848 06-01-2020 21:13:18 -1.1 C 44 %
849 06-01-2020 21:23:18 -1.3 C 44 %
850 06-01-2020 21:33:18 -1.2 C 45 %
Sensor: Nr:Datum:Temp:Feuchte:
Aussen-T/F 851 06-01-2020 21:43:18 -0.8 C 45 %
852 06-01-2020 21:53:18 -0.5 C 46 %
853 06-01-2020 22:03:18 -0.3 C 46 %
854 06-01-2020 22:13:18 0.2 C 46 %
855 06-01-2020 22:23:17 0.5 C 45 %
856 06-01-2020 22:33:17 0.6 C 42 %
857 06-01-2020 22:43:17 0.5 C 42 %
858 06-01-2020 22:53:18 0.6 C 42 %
859 06-01-2020 23:03:18 0.7 C 44 %
860 06-01-2020 23:13:18 0.8 C 44 %
861 06-01-2020 23:23:18 0.7 C 43 %
862 06-01-2020 23:33:18 0.6 C 44 %
863 06-01-2020 23:43:18 0.8 C 45 %
864 06-01-2020 23:53:18 1 C 43 %
865 07-01-2020 00:03:18 1.2 C 43 %
866 07-01-2020 00:13:18 1.8 C 39 %
867 07-01-2020 00:23:17 2 C 37 %
868 07-01-2020 00:33:17 1.8 C 39 %
869 07-01-2020 00:43:17 2.3 C 36 %
870 07-01-2020 00:53:17 2.5 C 35 %
871 07-01-2020 01:03:17 2.5 C 36 %
872 07-01-2020 01:13:17 2.6 C 35 %
873 07-01-2020 01:23:17 2.8 C 35 %
874 07-01-2020 01:33:17 3 C 34 %
875 07-01-2020 01:43:17 3 C 34 %
Sensor: Nr:Datum:Temp:Feuchte:
Aussen-T/F 876 07-01-2020 01:53:18 3 C 35 %
877 07-01-2020 02:03:18 3.3 C 33 %
878 07-01-2020 02:13:18 3.1 C 33 %
879 07-01-2020 02:23:17 2.8 C 37 %
880 07-01-2020 02:33:17 2.8 C 38 %
881 07-01-2020 02:43:17 2.8 C 38 %
882 07-01-2020 02:53:18 2.8 C 38 %
883 07-01-2020 03:03:18 2.8 C 38 %
884 07-01-2020 03:13:18 2.7 C 39 %
885 07-01-2020 03:23:18 2.7 C 40 %
886 07-01-2020 03:33:18 2.7 C 40 %
887 07-01-2020 03:43:18 2.7 C 39 %
888 07-01-2020 03:53:18 2.9 C 39 %
889 07-01-2020 04:03:18 2.9 C 40 %
890 07-01-2020 04:13:18 3 C 37 %
891 07-01-2020 04:23:18 3 C 37 %
892 07-01-2020 04:33:18 3.2 C 36 %
893 07-01-2020 04:43:18 3.2 C 36 %
894 07-01-2020 04:53:18 3.3 C 38 %
895 07-01-2020 05:03:18 3.5 C 37 %
896 07-01-2020 05:13:18 3.3 C 37 %
897 07-01-2020 05:23:17 3.4 C 37 %
898 07-01-2020 05:33:17 3.5 C 37 %
899 07-01-2020 05:43:17 3.5 C 38 %
900 07-01-2020 05:53:18 3.6 C 37 %
Sensor: Nr:Datum:Temp:Feuchte:
Aussen-T/F 901 07-01-2020 06:03:18 3.6 C 37 %
902 07-01-2020 06:13:18 3.7 C 36 %
903 07-01-2020 06:23:18 3.9 C 36 %
904 07-01-2020 06:33:18 4 C 35 %
905 07-01-2020 06:43:18 4.3 C 34 %
906 07-01-2020 06:53:17 4.3 C 34 %
907 07-01-2020 07:03:18 4.3 C 34 %
908 07-01-2020 07:13:18 4.4 C 34 %
909 07-01-2020 07:23:18 4.4 C 34 %
910 07-01-2020 07:33:18 4.4 C 34 %
911 07-01-2020 07:43:18 4.3 C 34 %
912 07-01-2020 07:53:18 4.3 C 35 %
913 07-01-2020 08:03:18 4.4 C 35 %
914 07-01-2020 08:13:18 4.4 C 35 %
915 07-01-2020 08:23:17 4.3 C 35 %
916 07-01-2020 08:33:17 3.9 C 37 %
917 07-01-2020 08:43:17 3.6 C 40 %
918 07-01-2020 08:53:17 3.8 C 41 %
919 07-01-2020 09:03:18 4 C 38 %
920 07-01-2020 09:13:18 3.9 C 40 %
921 07-01-2020 09:23:17 4 C 37 %
922 07-01-2020 09:33:17 4.2 C 37 %
923 07-01-2020 09:43:17 4.5 C 35 %
924 07-01-2020 09:53:18 4.6 C 35 %
925 07-01-2020 10:03:17 4.8 C 35 %
Sensor: Nr:Datum:Temp:Feuchte:
Aussen-T/F 926 07-01-2020 10:13:17 4.9 C 35 %
927 07-01-2020 10:23:17 5.1 C 33 %
928 07-01-2020 10:33:17 5.4 C 33 %
929 07-01-2020 10:43:17 5.5 C 33 %
930 07-01-2020 10:53:17 5.6 C 33 %
931 07-01-2020 11:03:17 5.9 C 32 %
932 07-01-2020 11:13:17 6.1 C 31 %
933 07-01-2020 11:23:18 6.3 C 31 %
934 07-01-2020 11:33:18 6.3 C 31 %
935 07-01-2020 11:43:18 6.4 C 31 %
936 07-01-2020 11:53:17 6.4 C 30 %
937 07-01-2020 12:03:18 6.6 C 30 %
938 07-01-2020 12:13:18 6.8 C 30 %
939 07-01-2020 12:23:18 6.8 C 29 %
940 07-01-2020 12:33:17 6.7 C 29 %
941 07-01-2020 12:43:17 6.5 C 30 %
942 07-01-2020 12:53:18 6.5 C 30 %
943 07-01-2020 13:03:17 6.8 C 29 %
944 07-01-2020 13:13:17 7 C 27 %
945 07-01-2020 13:23:17 6.9 C 29 %
946 07-01-2020 13:33:17 6.9 C 28 %
947 07-01-2020 13:43:17 6.8 C 29 %
948 07-01-2020 13:53:17 7 C 27 %
949 07-01-2020 14:03:18 7.1 C 27 %
950 07-01-2020 14:13:18 7 C 27 %
Sensor: Nr:Datum:Temp:Feuchte:
Aussen-T/F 951 07-01-2020 14:23:17 7.1 C 27 %
952 07-01-2020 14:33:17 7.3 C 26 %
953 07-01-2020 14:43:17 6.8 C 28 %
954 07-01-2020 14:53:17 7.2 C 26 %
955 07-01-2020 15:03:17 6.7 C 28 %
956 07-01-2020 15:13:17 6.4 C 28 %
957 07-01-2020 15:23:17 6.3 C 28 %
958 07-01-2020 15:33:17 6 C 29 %
959 07-01-2020 15:43:17 5.7 C 30 %
960 07-01-2020 15:53:17 5.5 C 31 %
961 07-01-2020 16:03:17 5.3 C 31 %
962 07-01-2020 16:13:17 5.4 C 31 %
963 07-01-2020 16:23:17 5.4 C 31 %
964 07-01-2020 16:33:17 4.5 C 35 %
965 07-01-2020 16:43:17 4 C 37 %
966 07-01-2020 16:53:17 4.1 C 37 %
967 07-01-2020 17:03:18 3.6 C 40 %
968 07-01-2020 17:13:18 3.5 C 40 %
969 07-01-2020 17:23:18 3.3 C 41 %
970 07-01-2020 17:33:18 3.3 C 42 %
971 07-01-2020 17:43:18 3.1 C 41 %
972 07-01-2020 17:53:17 2.9 C 43 %
973 07-01-2020 18:03:18 3.1 C 43 %
974 07-01-2020 18:13:18 3.2 C 43 %
975 07-01-2020 18:23:18 2.9 C 43 %
Sensor: Nr:Datum:Temp:Feuchte:
Aussen-T/F 976 07-01-2020 18:33:18 2.7 C 43 %
977 07-01-2020 18:43:18 2.9 C 44 %
978 07-01-2020 18:53:18 2.7 C 43 %
979 07-01-2020 19:03:17 2.8 C 44 %
980 07-01-2020 19:13:17 2.5 C 43 %
981 07-01-2020 19:23:17 2.5 C 43 %
982 07-01-2020 19:33:18 2.5 C 43 %
983 07-01-2020 19:43:18 2.5 C 43 %
984 07-01-2020 19:53:17 3 C 43 %
985 07-01-2020 20:03:18 3.6 C 42 %
986 07-01-2020 20:13:18 4.1 C 38 %
987 07-01-2020 20:23:18 3.6 C 38 %
988 07-01-2020 20:33:18 3.6 C 39 %
989 07-01-2020 20:43:18 4 C 37 %
990 07-01-2020 20:53:17 4.7 C 35 %
991 07-01-2020 21:03:18 5.1 C 32 %
992 07-01-2020 21:13:18 5.1 C 32 %
993 07-01-2020 21:23:18 5.3 C 31 %
994 07-01-2020 21:33:18 5.7 C 31 %
995 07-01-2020 21:43:18 5.7 C 30 %
996 07-01-2020 21:53:17 5.7 C 30 %
997 07-01-2020 22:03:18 6 C 28 %
998 07-01-2020 22:13:18 5.8 C 29 %
999 07-01-2020 22:24:17 5.9 C 29 %
1000 07-01-2020 22:33:17 5.7 C 29 %
Sensor: Nr:Datum:Temp:Feuchte:
Aussen-T/F 1001 07-01-2020 22:43:17 5.7 C 30 %
1002 07-01-2020 22:53:17 5.9 C 29 %
1003 07-01-2020 23:03:18 6 C 28 %
1004 07-01-2020 23:13:18 6 C 28 %
1005 07-01-2020 23:23:18 6.1 C 28 %
1006 07-01-2020 23:33:18 5.9 C 28 %
1007 07-01-2020 23:43:18 5.6 C 30 %
1008 07-01-2020 23:53:18 5.7 C 29 %
1009 08-01-2020 00:04:17 5.7 C 29 %
1010 08-01-2020 00:14:17 5.4 C 30 %
1011 08-01-2020 00:24:17 5.6 C 29 %
1012 08-01-2020 00:34:17 5.6 C 28 %
1013 08-01-2020 00:44:17 5.5 C 29 %
1014 08-01-2020 00:53:18 5.7 C 28 %
1015 08-01-2020 01:03:18 5.4 C 28 %
1016 08-01-2020 01:13:18 5.6 C 28 %
1017 08-01-2020 01:24:17 5.4 C 28 %
1018 08-01-2020 01:33:18 5.4 C 28 %
1019 08-01-2020 01:43:18 5.3 C 28 %
1020 08-01-2020 01:53:17 4.7 C 30 %
1021 08-01-2020 02:03:18 4.7 C 30 %
1022 08-01-2020 02:13:18 5 C 30 %
1023 08-01-2020 02:23:18 5 C 30 %
1024 08-01-2020 02:33:18 5.3 C 30 %
1025 08-01-2020 02:43:18 5.4 C 30 %
Sensor: Nr:Datum:Temp:Feuchte:
Aussen-T/F 1026 08-01-2020 02:53:18 5.5 C 30 %
1027 08-01-2020 03:03:18 5.9 C 30 %
1028 08-01-2020 03:13:18 5.8 C 30 %
1029 08-01-2020 03:23:18 5.9 C 30 %
1030 08-01-2020 03:33:18 5.8 C 30 %
1031 08-01-2020 03:43:18 6 C 30 %
1032 08-01-2020 03:53:17 5.9 C 30 %
1033 08-01-2020 04:03:18 5.9 C 30 %
1034 08-01-2020 04:13:18 5.8 C 31 %
1035 08-01-2020 04:23:18 5.8 C 31 %
1036 08-01-2020 04:33:18 5.7 C 32 %
1037 08-01-2020 04:43:18 5.7 C 32 %
1038 08-01-2020 04:54:17 5.6 C 33 %
1039 08-01-2020 05:04:17 5.6 C 33 %
1040 08-01-2020 05:14:17 5.7 C 33 %
1041 08-01-2020 05:24:17 5.8 C 34 %
1042 08-01-2020 05:34:17 5.7 C 34 %
1043 08-01-2020 05:44:17 5.8 C 35 %
1044 08-01-2020 05:54:17 5.8 C 35 %
1045 08-01-2020 06:04:17 6 C 35 %
1046 08-01-2020 06:14:17 5.9 C 35 %
1047 08-01-2020 06:24:17 6 C 35 %
1048 08-01-2020 06:34:17 6.2 C 35 %
1049 08-01-2020 06:44:17 6.1 C 36 %
1050 08-01-2020 06:54:17 6 C 39 %
Sensor: Nr:Datum:Temp:Feuchte:
Aussen-T/F 1051 08-01-2020 07:04:17 5.8 C 41 %
1052 08-01-2020 07:14:17 5.9 C 42 %
1053 08-01-2020 07:24:18 6 C 42 %
1054 08-01-2020 07:34:18 6.1 C 42 %
1055 08-01-2020 07:44:18 6.2 C 42 %
1056 08-01-2020 07:54:17 6.2 C 42 %
1057 08-01-2020 08:04:17 6.3 C 42 %
1058 08-01-2020 08:14:17 6.2 C 42 %
1059 08-01-2020 08:24:17 6.2 C 42 %
1060 08-01-2020 08:34:18 6.1 C 42 %
1061 08-01-2020 08:44:18 6.6 C 41 %
1062 08-01-2020 08:54:17 6.7 C 39 %
1063 08-01-2020 09:04:17 6.8 C 39 %
1064 08-01-2020 09:14:17 6.8 C 39 %
1065 08-01-2020 09:24:17 6.7 C 39 %
1066 08-01-2020 09:34:17 6.7 C 40 %
1067 08-01-2020 09:44:17 6.9 C 39 %
1068 08-01-2020 09:54:17 7.1 C 38 %
1069 08-01-2020 10:04:17 7.1 C 38 %
1070 08-01-2020 10:14:17 7.2 C 37 %
1071 08-01-2020 10:24:17 7.4 C 36 %
1072 08-01-2020 10:34:17 7.3 C 36 %
1073 08-01-2020 10:44:17 7.4 C 36 %
1074 08-01-2020 10:54:17 7.5 C 35 %
1075 08-01-2020 11:04:17 7.7 C 35 %
Sensor: Nr:Datum:Temp:Feuchte:
Aussen-T/F 1076 08-01-2020 11:14:17 7.8 C 35 %
1077 08-01-2020 11:24:17 7.9 C 34 %
1078 08-01-2020 11:34:17 7.8 C 35 %
1079 08-01-2020 11:44:17 7.9 C 34 %
1080 08-01-2020 11:54:17 7.7 C 35 %
1081 08-01-2020 12:04:17 7.6 C 36 %
1082 08-01-2020 12:14:17 7.7 C 36 %
1083 08-01-2020 12:24:16 7.9 C 35 %
1084 08-01-2020 12:34:17 8 C 34 %
1085 08-01-2020 12:44:17 8.1 C 34 %
1086 08-01-2020 12:54:17 8.8 C 33 %
1087 08-01-2020 13:04:17 9 C 31 %
1088 08-01-2020 13:14:17 8.8 C 32 %
1089 08-01-2020 13:24:17 8.7 C 32 %
1090 08-01-2020 13:34:17 8.8 C 32 %
1091 08-01-2020 13:44:17 8.8 C 32 %
1092 08-01-2020 13:54:17 8.7 C 32 %
1093 08-01-2020 14:04:16 8.9 C 32 %
1094 08-01-2020 14:14:16 9 C 32 %
1095 08-01-2020 14:24:16 9 C 32 %
1096 08-01-2020 14:34:16 9 C 32 %
1097 08-01-2020 14:44:16 9.1 C 32 %
1098 08-01-2020 14:54:16 9.3 C 31 %
1099 08-01-2020 15:04:16 9.4 C 31 %
1100 08-01-2020 15:14:16 9.4 C 31 %
Sensor: Nr:Datum:Temp:Feuchte:
Aussen-T/F 1101 08-01-2020 15:24:16 9.4 C 31 %
1102 08-01-2020 15:34:16 9.3 C 32 %
1103 08-01-2020 15:44:16 9.3 C 32 %
1104 08-01-2020 15:54:16 9.4 C 32 %
1105 08-01-2020 16:04:17 9.3 C 32 %
1106 08-01-2020 16:14:17 9.3 C 32 %
1107 08-01-2020 16:24:17 9.2 C 33 %
1108 08-01-2020 16:34:17 9.2 C 33 %
1109 08-01-2020 16:44:17 9.3 C 33 %
1110 08-01-2020 16:54:17 9.3 C 34 %
1111 08-01-2020 17:04:17 9.3 C 34 %
1112 08-01-2020 17:14:17 9.3 C 34 %
1113 08-01-2020 17:24:17 9.3 C 34 %
1114 08-01-2020 17:34:17 9.2 C 35 %
1115 08-01-2020 17:44:17 9.2 C 35 %
1116 08-01-2020 17:54:17 9.1 C 35 %
1117 08-01-2020 18:04:17 9.2 C 35 %
1118 08-01-2020 18:14:17 9.1 C 36 %
1119 08-01-2020 18:24:17 9.1 C 36 %
1120 08-01-2020 18:34:17 9.2 C 35 %
1121 08-01-2020 18:44:17 9.4 C 35 %
1122 08-01-2020 18:54:17 9.4 C 35 %
1123 08-01-2020 19:04:17 9.5 C 36 %
1124 08-01-2020 19:14:17 9.6 C 35 %
1125 08-01-2020 19:24:17 9.7 C 35 %
Sensor: Nr:Datum:Temp:Feuchte:
Aussen-T/F 1126 08-01-2020 19:34:17 9.6 C 35 %
1127 08-01-2020 19:44:17 9.5 C 35 %
1128 08-01-2020 19:54:17 9.3 C 36 %
1129 08-01-2020 20:04:17 9.7 C 36 %
1130 08-01-2020 20:14:17 9.7 C 35 %
1131 08-01-2020 20:24:17 9.9 C 35 %
1132 08-01-2020 20:34:17 9.8 C 35 %
1133 08-01-2020 20:44:17 9.9 C 35 %
1134 08-01-2020 20:54:16 9.9 C 35 %
1135 08-01-2020 21:04:17 10 C 35 %
1136 08-01-2020 21:14:17 9.8 C 35 %
1137 08-01-2020 21:24:17 9.8 C 35 %
1138 08-01-2020 21:34:17 9.9 C 36 %
1139 08-01-2020 21:44:17 10 C 35 %
1140 08-01-2020 21:54:16 9.6 C 37 %
1141 08-01-2020 22:04:16 9.5 C 37 %
1142 08-01-2020 22:14:16 9.6 C 38 %
1143 08-01-2020 22:24:16 9.9 C 36 %
1144 08-01-2020 22:34:16 9.8 C 36 %
1145 08-01-2020 22:44:16 9.6 C 37 %
1146 08-01-2020 22:54:16 9.6 C 38 %
1147 08-01-2020 23:04:16 9.7 C 38 %
1148 08-01-2020 23:14:16 9.5 C 38 %
1149 08-01-2020 23:24:16 9.5 C 39 %
1150 08-01-2020 23:34:16 9.5 C 39 %
Sensor: Nr:Datum:Temp:Feuchte:
Aussen-T/F 1151 08-01-2020 23:44:16 9.5 C 39 %
1152 08-01-2020 23:54:16 9.5 C 40 %
1153 09-01-2020 00:04:16 9.1 C 40 %
1154 09-01-2020 00:14:16 9.2 C 40 %
1155 09-01-2020 00:24:16 9.2 C 40 %
1156 09-01-2020 00:34:16 9.1 C 41 %
1157 09-01-2020 00:44:16 9 C 41 %
1158 09-01-2020 00:54:16 9 C 41 %
1159 09-01-2020 01:04:16 9.1 C 42 %
1160 09-01-2020 01:14:16 9 C 41 %
1161 09-01-2020 01:24:16 9 C 42 %
1162 09-01-2020 01:34:16 8.9 C 42 %
1163 09-01-2020 01:44:16 8.9 C 42 %
1164 09-01-2020 01:54:16 8.9 C 42 %
1165 09-01-2020 02:04:16 8.9 C 42 %
1166 09-01-2020 02:14:16 8.7 C 42 %
1167 09-01-2020 02:24:16 8.8 C 42 %
1168 09-01-2020 02:34:16 8.7 C 42 %
1169 09-01-2020 02:44:16 8.8 C 42 %
1170 09-01-2020 02:54:18 8.8 C 41 %
1171 09-01-2020 03:04:18 8.8 C 40 %
1172 09-01-2020 03:14:18 8.7 C 40 %
1173 09-01-2020 03:24:17 8.7 C 40 %
1174 09-01-2020 03:34:17 8.7 C 40 %
1175 09-01-2020 03:44:17 8.6 C 40 %
Sensor: Nr:Datum:Temp:Feuchte:
Aussen-T/F 1176 09-01-2020 03:54:17 8.5 C 40 %
1177 09-01-2020 04:04:17 8.4 C 41 %
1178 09-01-2020 04:14:17 8.5 C 42 %
1179 09-01-2020 04:24:17 8.5 C 42 %
1180 09-01-2020 04:34:17 8.5 C 42 %
1181 09-01-2020 04:44:17 8.6 C 42 %
1182 09-01-2020 04:54:17 8.5 C 42 %
1183 09-01-2020 05:04:17 8.5 C 42 %
1184 09-01-2020 05:14:17 8.5 C 42 %
1185 09-01-2020 05:24:17 8.5 C 42 %
1186 09-01-2020 05:34:17 8.5 C 41 %
1187 09-01-2020 05:44:17 8.5 C 42 %
1188 09-01-2020 05:54:18 8.5 C 42 %
1189 09-01-2020 06:04:18 8.5 C 41 %
1190 09-01-2020 06:14:18 8.5 C 41 %
1191 09-01-2020 06:24:18 8.6 C 41 %
1192 09-01-2020 06:34:18 8.6 C 41 %
1193 09-01-2020 06:44:18 8.6 C 41 %
1194 09-01-2020 06:54:18 8.7 C 41 %
1195 09-01-2020 07:04:18 8.7 C 41 %
1196 09-01-2020 07:14:18 8.8 C 41 %
1197 09-01-2020 07:24:18 8.8 C 41 %
1198 09-01-2020 07:34:18 9 C 41 %
1199 09-01-2020 07:44:18 9 C 41 %
1200 09-01-2020 07:54:18 9 C 41 %
Sensor: Nr:Datum:Temp:Feuchte:
Aussen-T/F 1201 09-01-2020 08:04:18 9 C 41 %
1202 09-01-2020 08:14:18 9 C 41 %
1203 09-01-2020 08:24:18 9.3 C 41 %
1204 09-01-2020 08:34:18 9.2 C 41 %
1205 09-01-2020 08:44:18 9.5 C 41 %
1206 09-01-2020 08:54:18 9.6 C 41 %
1207 09-01-2020 09:04:18 9.8 C 40 %
1208 09-01-2020 09:14:18 10 C 40 %
1209 09-01-2020 09:24:18 9.8 C 40 %
1210 09-01-2020 09:34:17 9.8 C 39 %
1211 09-01-2020 09:44:17 10.1 C 39 %
1212 09-01-2020 09:54:17 10.3 C 37 %
1213 09-01-2020 10:04:17 10.7 C 35 %
1214 09-01-2020 10:14:17 10.8 C 35 %
1215 09-01-2020 10:24:17 11.1 C 33 %
1216 09-01-2020 10:34:18 11.4 C 32 %
1217 09-01-2020 10:44:18 11.5 C 32 %
1218 09-01-2020 10:54:17 11.6 C 32 %
1219 09-01-2020 11:04:18 11.8 C 31 %
1220 09-01-2020 11:14:18 12 C 30 %
1221 09-01-2020 11:24:18 12.2 C 30 %
1222 09-01-2020 11:34:18 12.3 C 30 %
1223 09-01-2020 11:44:18 12.5 C 30 %
1224 09-01-2020 11:54:17 12.7 C 29 %
1225 09-01-2020 12:04:17 12.8 C 29 %
Sensor: Nr:Datum:Temp:Feuchte:
Aussen-T/F 1226 09-01-2020 12:14:17 12.9 C 28 %
1227 09-01-2020 12:24:17 13 C 27 %
1228 09-01-2020 12:34:17 13 C 27 %
1229 09-01-2020 12:44:17 13.1 C 27 %
1230 09-01-2020 12:54:17 13.2 C 27 %
1231 09-01-2020 13:04:17 13.2 C 27 %
1232 09-01-2020 13:14:17 13.2 C 27 %
1233 09-01-2020 13:24:17 13.2 C 26 %
1234 09-01-2020 13:34:18 13.3 C 27 %
1235 09-01-2020 13:44:18 13.3 C 26 %
1236 09-01-2020 13:54:18 13.1 C 26 %
1237 09-01-2020 14:04:18 13 C 26 %
1238 09-01-2020 14:14:18 12.7 C 28 %
1239 09-01-2020 14:24:17 12.3 C 29 %
1240 09-01-2020 14:34:17 12.2 C 29 %
1241 09-01-2020 14:44:17 12.1 C 30 %
1242 09-01-2020 14:54:17 12.2 C 30 %
1243 09-01-2020 15:04:17 12.3 C 30 %
1244 09-01-2020 15:14:18 12.1 C 29 %
1245 09-01-2020 15:24:18 12.4 C 28 %
1246 09-01-2020 15:34:17 12.4 C 29 %
1247 09-01-2020 15:44:17 12.4 C 29 %
1248 09-01-2020 15:54:17 12.4 C 29 %
1249 09-01-2020 16:04:17 12.4 C 29 %
1250 09-01-2020 16:14:17 12.5 C 28 %
Sensor: Nr:Datum:Temp:Feuchte:
Aussen-T/F 1251 09-01-2020 16:24:17 12.1 C 29 %
1252 09-01-2020 16:34:17 12.3 C 28 %
1253 09-01-2020 16:44:17 12.2 C 29 %
1254 09-01-2020 16:54:17 12 C 29 %
1255 09-01-2020 17:04:17 12.2 C 29 %
1256 09-01-2020 17:14:17 12.3 C 28 %
1257 09-01-2020 17:24:18 12.1 C 28 %
1258 09-01-2020 17:34:17 12.1 C 28 %
1259 09-01-2020 17:44:17 12 C 28 %
1260 09-01-2020 17:54:18 11.7 C 30 %
1261 09-01-2020 18:04:18 11.4 C 30 %
1262 09-01-2020 18:14:18 11.3 C 31 %
1263 09-01-2020 18:24:17 10.9 C 32 %
1264 09-01-2020 18:34:17 11.1 C 30 %
1265 09-01-2020 18:44:17 11 C 30 %
1266 09-01-2020 18:54:17 11 C 30 %
1267 09-01-2020 19:04:17 11.4 C 29 %
1268 09-01-2020 19:14:17 11.3 C 29 %
1269 09-01-2020 19:24:17 11 C 30 %
1270 09-01-2020 19:34:18 10.7 C 31 %
1271 09-01-2020 19:44:18 10.8 C 31 %
1272 09-01-2020 19:54:17 10.1 C 35 %
1273 09-01-2020 20:04:18 10 C 37 %
1274 09-01-2020 20:14:18 9.7 C 37 %
1275 09-01-2020 20:24:17 9.7 C 35 %
Sensor: Nr:Datum:Temp:Feuchte:
Aussen-T/F 1276 09-01-2020 20:34:17 9.9 C 37 %
1277 09-01-2020 20:44:17 9.7 C 36 %
1278 09-01-2020 20:54:17 9.6 C 35 %
1279 09-01-2020 21:04:17 9.4 C 37 %
1280 09-01-2020 21:14:18 9.3 C 38 %
1281 09-01-2020 21:24:18 9.2 C 39 %
1282 09-01-2020 21:34:18 9.1 C 40 %
1283 09-01-2020 21:44:18 9.3 C 37 %
1284 09-01-2020 21:54:17 9.2 C 37 %
1285 09-01-2020 22:04:18 9.2 C 38 %
1286 09-01-2020 22:14:18 9.2 C 38 %
1287 09-01-2020 22:24:17 9.2 C 38 %
1288 09-01-2020 22:34:18 9.2 C 38 %
1289 09-01-2020 22:44:18 9.3 C 36 %
1290 09-01-2020 22:54:18 9.4 C 34 %
1291 09-01-2020 23:04:18 9.8 C 32 %
1292 09-01-2020 23:14:18 9.8 C 31 %
1293 09-01-2020 23:24:18 9.7 C 31 %
1294 09-01-2020 23:34:18 9.6 C 32 %
1295 09-01-2020 23:44:18 10 C 30 %
1296 09-01-2020 23:54:17 10.2 C 30 %
1297 10-01-2020 00:04:17 10.1 C 30 %
1298 10-01-2020 00:14:17 10.1 C 30 %
1299 10-01-2020 00:24:17 9.9 C 30 %
1300 10-01-2020 00:34:17 9.8 C 31 %
Sensor: Nr:Datum:Temp:Feuchte:
Aussen-T/F 1301 10-01-2020 00:44:17 9.6 C 32 %
1302 10-01-2020 00:54:17 9.5 C 32 %
1303 10-01-2020 01:04:17 9.9 C 30 %
1304 10-01-2020 01:14:17 9.7 C 31 %
1305 10-01-2020 01:24:17 9.7 C 31 %
1306 10-01-2020 01:34:17 9.6 C 31 %
1307 10-01-2020 01:44:17 9.3 C 31 %
1308 10-01-2020 01:54:17 9.6 C 31 %
1309 10-01-2020 02:04:17 9.5 C 31 %
1310 10-01-2020 02:14:17 9.7 C 31 %
1311 10-01-2020 02:24:18 9.7 C 30 %
1312 10-01-2020 02:34:17 9.8 C 30 %
1313 10-01-2020 02:44:17 9.8 C 30 %
1314 10-01-2020 02:54:18 9.6 C 30 %
1315 10-01-2020 03:04:17 10.1 C 29 %
1316 10-01-2020 03:14:17 9.8 C 30 %
1317 10-01-2020 03:24:17 9.8 C 30 %
1318 10-01-2020 03:34:18 10.1 C 28 %
1319 10-01-2020 03:44:18 10 C 27 %
1320 10-01-2020 03:54:17 10 C 27 %
1321 10-01-2020 04:04:18 10.1 C 26 %
1322 10-01-2020 04:14:18 10.2 C 26 %
1323 10-01-2020 04:24:18 10 C 26 %
1324 10-01-2020 04:34:18 9.9 C 26 %
1325 10-01-2020 04:44:18 9.8 C 26 %
Sensor: Nr:Datum:Temp:Feuchte:
Aussen-T/F 1326 10-01-2020 04:54:17 9.7 C 26 %
1327 10-01-2020 05:04:18 9.5 C 26 %
1328 10-01-2020 05:14:18 9.8 C 26 %
1329 10-01-2020 05:24:18 9.7 C 26 %
1330 10-01-2020 05:34:18 9.1 C 27 %
1331 10-01-2020 05:44:18 9.2 C 27 %
1332 10-01-2020 05:54:18 9.3 C 27 %
1333 10-01-2020 06:04:18 9.2 C 27 %
1334 10-01-2020 06:14:18 8.9 C 28 %
1335 10-01-2020 06:24:18 8.3 C 32 %
1336 10-01-2020 06:34:17 8 C 36 %
1337 10-01-2020 06:44:17 8 C 39 %
1338 10-01-2020 06:54:17 7.8 C 40 %
1339 10-01-2020 07:04:17 7.8 C 40 %
1340 10-01-2020 07:14:17 7.8 C 40 %
1341 10-01-2020 07:24:17 7.8 C 41 %
1342 10-01-2020 07:34:17 7.7 C 41 %
1343 10-01-2020 07:44:17 7.7 C 40 %
1344 10-01-2020 07:54:18 7.7 C 40 %
1345 10-01-2020 08:04:18 7.7 C 40 %
1346 10-01-2020 08:14:18 7.8 C 38 %
1347 10-01-2020 08:24:17 7.6 C 38 %
1348 10-01-2020 08:34:17 7.7 C 39 %
1349 10-01-2020 08:44:17 8 C 35 %
1350 10-01-2020 08:54:17 8 C 35 %
Sensor: Nr:Datum:Temp:Feuchte:
Aussen-T/F 1351 10-01-2020 09:04:17 8.5 C 32 %
1352 10-01-2020 09:14:17 8.4 C 32 %
1353 10-01-2020 09:24:17 8.7 C 31 %
1354 10-01-2020 09:34:17 8.9 C 31 %
1355 10-01-2020 09:44:17 9 C 30 %
1356 10-01-2020 09:54:17 9.1 C 30 %
1357 10-01-2020 10:04:18 9.1 C 30 %
1358 10-01-2020 10:14:18 9.1 C 30 %
1359 10-01-2020 10:24:18 9.2 C 30 %
1360 10-01-2020 10:34:17 9.2 C 30 %
1361 10-01-2020 10:44:17 9.5 C 30 %
1362 10-01-2020 10:54:18 9.5 C 29 %
1363 10-01-2020 11:04:18 10.2 C 26 %
1364 10-01-2020 11:14:18 10.2 C 26 %
1365 10-01-2020 11:24:17 10.2 C 26 %
1366 10-01-2020 11:34:17 10.4 C 26 %
1367 10-01-2020 11:44:17 10.3 C 26 %
1368 10-01-2020 11:54:17 10.7 C 26 %
1369 10-01-2020 12:04:17 10.8 C 26 %
1370 10-01-2020 12:14:17 11 C 26 %
1371 10-01-2020 12:24:17 10.1 C 27 %
1372 10-01-2020 12:34:17 10.4 C 27 %
1373 10-01-2020 12:44:17 10.6 C 26 %
1374 10-01-2020 12:54:17 9.4 C 31 %
1375 10-01-2020 13:04:17 8.7 C 31 %
Sensor: Nr:Datum:Temp:Feuchte:
Aussen-T/F 1376 10-01-2020 13:14:17 8.3 C 34 %
1377 10-01-2020 13:24:17 8.4 C 32 %
1378 10-01-2020 13:34:17 8.7 C 33 %
1379 10-01-2020 13:44:17 8.7 C 33 %
1380 10-01-2020 13:54:17 8.6 C 35 %
1381 10-01-2020 14:04:18 8.4 C 32 %
1382 10-01-2020 14:14:18 8.8 C 30 %
1383 10-01-2020 14:24:29 9 C 29 %
1384 10-01-2020 14:34:17 9 C 28 %
1385 10-01-2020 14:44:17 9 C 27 %
1386 10-01-2020 14:54:17 9 C 26 %
1387 10-01-2020 15:04:20 8.9 C 27 %
1388 10-01-2020 15:14:20 8.8 C 27 %
1389 10-01-2020 15:24:17 8.7 C 27 %
1390 10-01-2020 15:34:18 8.6 C 27 %
1391 10-01-2020 15:44:18 8.6 C 27 %
1392 10-01-2020 15:54:17 8.6 C 27 %
1393 10-01-2020 16:04:17 8.3 C 28 %
1394 10-01-2020 16:14:17 7.6 C 31 %
1395 10-01-2020 16:24:17 7.5 C 34 %
1396 10-01-2020 16:34:18 7.4 C 32 %
1397 10-01-2020 16:44:18 7.2 C 33 %
1398 10-01-2020 16:54:17 7 C 32 %
1399 10-01-2020 17:04:18 6.7 C 34 %
1400 10-01-2020 17:14:18 6.8 C 34 %
Sensor: Nr:Datum:Temp:Feuchte:
Aussen-T/F 1401 10-01-2020 17:24:17 6.9 C 32 %
1402 10-01-2020 17:34:18 6.7 C 32 %
1403 10-01-2020 17:44:18 6.6 C 32 %
1404 10-01-2020 17:54:17 6.9 C 31 %
1405 10-01-2020 18:04:17 7 C 31 %
1406 10-01-2020 18:14:17 7 C 30 %
1407 10-01-2020 18:24:18 6.8 C 31 %
1408 10-01-2020 18:34:17 7 C 30 %
1409 10-01-2020 18:44:17 7.1 C 30 %
1410 10-01-2020 18:54:17 6.6 C 32 %
1411 10-01-2020 19:04:17 6.5 C 33 %
1412 10-01-2020 19:14:18 6.3 C 35 %
1413 10-01-2020 19:24:17 6 C 37 %
1414 10-01-2020 19:34:17 6 C 36 %
1415 10-01-2020 19:44:17 5.9 C 39 %
1416 10-01-2020 19:54:17 5.8 C 36 %
1417 10-01-2020 20:04:17 5.9 C 38 %
1418 10-01-2020 20:14:18 6 C 34 %
1419 10-01-2020 20:24:17 6 C 34 %
1420 10-01-2020 20:34:18 6 C 32 %
1421 10-01-2020 20:44:18 6 C 31 %
1422 10-01-2020 20:54:17 6 C 31 %
1423 10-01-2020 21:04:17 6.1 C 30 %
1424 10-01-2020 21:14:17 5.8 C 31 %
1425 10-01-2020 21:24:17 5.8 C 31 %
Sensor: Nr:Datum:Temp:Feuchte:
Aussen-T/F 1426 10-01-2020 21:34:17 6 C 30 %
1427 10-01-2020 21:44:17 6.2 C 30 %
1428 10-01-2020 21:54:17 6 C 30 %
1429 10-01-2020 22:04:18 6.1 C 30 %
1430 10-01-2020 22:14:18 6.2 C 30 %
1431 10-01-2020 22:24:17 6.2 C 30 %
1432 10-01-2020 22:34:17 6.2 C 30 %
1433 10-01-2020 22:44:17 6.2 C 29 %
1434 10-01-2020 22:54:17 6.1 C 30 %
1435 10-01-2020 23:04:17 6.2 C 30 %
1436 10-01-2020 23:14:17 6.2 C 30 %
1437 10-01-2020 23:24:17 6.1 C 30 %
1438 10-01-2020 23:34:17 5.9 C 30 %
1439 10-01-2020 23:44:17 5.8 C 30 %
1440 10-01-2020 23:54:18 5.8 C 30 %
1441 11-01-2020 00:04:17 5.5 C 30 %
1442 11-01-2020 00:14:17 5.3 C 30 %
1443 11-01-2020 00:24:17 5.4 C 30 %
1444 11-01-2020 00:34:18 5 C 30 %
1445 11-01-2020 00:44:18 4.7 C 32 %
1446 11-01-2020 00:54:17 4.1 C 35 %
1447 11-01-2020 01:04:18 3.5 C 37 %
1448 11-01-2020 01:14:18 3.8 C 39 %
1449 11-01-2020 01:24:17 4.1 C 38 %
1450 11-01-2020 01:34:17 4.3 C 36 %
Sensor: Nr:Datum:Temp:Feuchte:
Aussen-T/F 1451 11-01-2020 01:44:17 4.5 C 36 %
1452 11-01-2020 01:54:17 4.3 C 35 %
1453 11-01-2020 02:04:17 3.7 C 38 %
1454 11-01-2020 02:14:17 3.7 C 39 %
1455 11-01-2020 02:24:17 3.3 C 39 %
1456 11-01-2020 02:34:18 2.7 C 41 %
1457 11-01-2020 02:44:18 2.9 C 42 %
1458 11-01-2020 02:54:17 3.2 C 42 %
1459 11-01-2020 03:04:18 3 C 41 %
1460 11-01-2020 03:14:18 2.6 C 41 %
1461 11-01-2020 03:24:17 2.3 C 44 %
1462 11-01-2020 03:34:17 2.9 C 45 %
1463 11-01-2020 03:44:17 3 C 43 %
1464 11-01-2020 03:54:17 2.9 C 44 %
1465 11-01-2020 04:04:17 2.9 C 44 %
1466 11-01-2020 04:14:17 3 C 43 %
1467 11-01-2020 04:24:17 3.1 C 44 %
1468 11-01-2020 04:34:18 3.4 C 40 %
1469 11-01-2020 04:44:18 3.3 C 40 %
1470 11-01-2020 04:54:17 3.3 C 40 %
1471 11-01-2020 05:04:18 3.1 C 39 %
1472 11-01-2020 05:14:18 2.9 C 40 %
1473 11-01-2020 05:24:17 2.7 C 41 %
1474 11-01-2020 05:34:17 2.7 C 42 %
1475 11-01-2020 05:44:17 3 C 40 %
Sensor: Nr:Datum:Temp:Feuchte:
Aussen-T/F 1476 11-01-2020 05:54:17 3 C 40 %
1477 11-01-2020 06:04:17 2.9 C 40 %
1478 11-01-2020 06:14:17 2.9 C 40 %
1479 11-01-2020 06:24:17 2.9 C 40 %
1480 11-01-2020 06:34:17 2.8 C 40 %
1481 11-01-2020 06:44:18 2.7 C 40 %
1482 11-01-2020 06:54:17 2.7 C 40 %
1483 11-01-2020 07:04:17 2.8 C 40 %
1484 11-01-2020 07:14:17 2.6 C 40 %
1485 11-01-2020 07:24:17 2.4 C 40 %
1486 11-01-2020 07:34:17 2.5 C 41 %
1487 11-01-2020 07:44:18 1.9 C 41 %
1488 11-01-2020 07:54:17 1 C 40 %
1489 11-01-2020 08:04:17 1 C 45 %
1490 11-01-2020 08:14:17 0.6 C 45 %
1491 11-01-2020 08:24:17 0.4 C 45 %
1492 11-01-2020 08:34:17 0.5 C 46 %
1493 11-01-2020 08:44:18 0.9 C 47 %
1494 11-01-2020 08:54:17 0.2 C 45 %
1495 11-01-2020 09:04:17 1 C 46 %
1496 11-01-2020 09:14:17 1 C 45 %
1497 11-01-2020 09:24:17 1.3 C 45 %
1498 11-01-2020 09:34:17 1.8 C 43 %
1499 11-01-2020 09:44:17 1.9 C 40 %
1500 11-01-2020 09:54:18 1.9 C 40 %
Sensor: Nr:Datum:Temp:Feuchte:
Aussen-T/F 1501 11-01-2020 10:04:18 2 C 38 %
1502 11-01-2020 10:14:18 2.2 C 38 %
1503 11-01-2020 10:24:17 2.4 C 38 %
1504 11-01-2020 10:34:17 2.4 C 37 %
1505 11-01-2020 10:44:17 2.5 C 37 %
1506 11-01-2020 10:54:18 2.7 C 38 %
1507 11-01-2020 11:04:17 3.4 C 37 %
1508 11-01-2020 11:14:17 4.1 C 34 %
1509 11-01-2020 11:24:17 4.1 C 32 %
1510 11-01-2020 11:34:18 4.4 C 30 %
1511 11-01-2020 11:44:18 4.9 C 30 %
1512 11-01-2020 11:54:17 5.5 C 29 %
1513 11-01-2020 12:04:17 5.9 C 29 %
1514 11-01-2020 12:14:17 6.2 C 28 %
1515 11-01-2020 12:24:17 6.6 C 23 %
1516 11-01-2020 12:34:18 7 C 20 %
1517 11-01-2020 12:44:18 7 C 20 %
1518 11-01-2020 12:54:17 7.3 C 20 %
1519 11-01-2020 13:04:17 7.2 C 20 %
1520 11-01-2020 13:14:17 7.2 C 20 %
1521 11-01-2020 13:24:18 7 C 20 %
1522 11-01-2020 13:34:17 7 C 20 %
1523 11-01-2020 13:44:17 6.9 C 20 %
1524 11-01-2020 13:54:17 6.8 C 20 %
1525 11-01-2020 14:04:17 6.9 C 20 %
Sensor: Nr:Datum:Temp:Feuchte:
Aussen-T/F 1526 11-01-2020 14:14:18 6.8 C 20 %
1527 11-01-2020 14:24:17 6.8 C 20 %
1528 11-01-2020 14:34:18 6.7 C 20 %
1529 11-01-2020 14:44:18 6.7 C 20 %
1530 11-01-2020 14:54:17 6.6 C 20 %
1531 11-01-2020 15:04:17 6.6 C 20 %
1532 11-01-2020 15:14:17 6.5 C 20 %
1533 11-01-2020 15:24:18 6.6 C 20 %
1534 11-01-2020 15:34:17 6.4 C 20 %
1535 11-01-2020 15:44:17 6.4 C 20 %
1536 11-01-2020 15:54:17 6.6 C 20 %
1537 11-01-2020 16:04:18 6.4 C 20 %
1538 11-01-2020 16:14:18 6.2 C 20 %
1539 11-01-2020 16:24:17 6.2 C 20 %
1540 11-01-2020 16:34:41 6.1 C 20 %
1541 11-01-2020 16:44:41 6.1 C 20 %
1542 11-01-2020 16:54:17 6 C 20 %
1543 11-01-2020 17:04:18 5.9 C 20 %
1544 11-01-2020 17:14:18 5.8 C 20 %
1545 11-01-2020 17:24:17 5.7 C 20 %
1546 11-01-2020 17:34:18 5.2 C 20 %
1547 11-01-2020 17:44:18 5.3 C 20 %
1548 11-01-2020 17:54:17 5 C 23 %
1549 11-01-2020 18:04:17 5.1 C 20 %
1550 11-01-2020 18:14:17 5 C 20 %
Sensor: Nr:Datum:Temp:Feuchte:
Aussen-T/F 1551 11-01-2020 18:24:17 4.5 C 26 %
1552 11-01-2020 18:34:17 4.1 C 27 %
1553 11-01-2020 18:44:17 3.9 C 30 %
1554 11-01-2020 18:54:17 3.8 C 31 %
1555 11-01-2020 19:04:17 3.6 C 31 %
1556 11-01-2020 19:14:17 3 C 33 %
1557 11-01-2020 19:24:17 2.8 C 35 %
1558 11-01-2020 19:34:17 2.7 C 35 %
1559 11-01-2020 19:44:17 2.7 C 34 %
1560 11-01-2020 19:54:17 2.8 C 34 %
1561 11-01-2020 20:04:17 2.5 C 34 %
1562 11-01-2020 20:14:18 2.4 C 35 %
1563 11-01-2020 20:24:17 2.4 C 34 %
1564 11-01-2020 20:34:17 1.9 C 36 %
1565 11-01-2020 20:44:17 2.2 C 36 %
1566 11-01-2020 20:54:17 2.1 C 36 %
1567 11-01-2020 21:04:17 2.1 C 36 %
1568 11-01-2020 21:14:17 1.9 C 37 %
1569 11-01-2020 21:24:17 1.7 C 37 %
1570 11-01-2020 21:34:17 1.5 C 38 %
1571 11-01-2020 21:44:17 1.1 C 40 %
1572 11-01-2020 21:54:17 1.5 C 40 %
1573 11-01-2020 22:04:17 1.3 C 40 %
1574 11-01-2020 22:14:18 1.1 C 40 %
1575 11-01-2020 22:24:17 0.9 C 42 %
Sensor: Nr:Datum:Temp:Feuchte:
Aussen-T/F 1576 11-01-2020 22:34:17 0.8 C 43 %
1577 11-01-2020 22:44:17 1.2 C 41 %
1578 11-01-2020 22:54:17 0.9 C 41 %
1579 11-01-2020 23:04:17 0.9 C 42 %
1580 11-01-2020 23:14:17 1.7 C 39 %
1581 11-01-2020 23:24:17 1.2 C 38 %
1582 11-01-2020 23:34:17 0.8 C 41 %
1583 11-01-2020 23:44:17 0.5 C 42 %
1584 11-01-2020 23:54:17 0.5 C 43 %
1585 12-01-2020 00:04:17 0.7 C 44 %
1586 12-01-2020 00:14:17 1.1 C 42 %
1587 12-01-2020 00:24:17 0.8 C 41 %
1588 12-01-2020 00:34:17 1.3 C 40 %
1589 12-01-2020 00:44:17 0.7 C 41 %
1590 12-01-2020 00:54:17 0.7 C 42 %
1591 12-01-2020 01:04:17 0.7 C 42 %
1592 12-01-2020 01:14:17 0.8 C 43 %
1593 12-01-2020 01:24:17 1.1 C 42 %
1594 12-01-2020 01:34:17 0.8 C 41 %
1595 12-01-2020 01:44:17 1.2 C 40 %
1596 12-01-2020 01:54:17 1.8 C 39 %
1597 12-01-2020 02:04:17 1.7 C 37 %
1598 12-01-2020 02:14:17 1.9 C 36 %
1599 12-01-2020 02:24:17 1.9 C 36 %
1600 12-01-2020 02:34:17 1.8 C 37 %
Sensor: Nr:Datum:Temp:Feuchte:
Aussen-T/F 1601 12-01-2020 02:44:17 1.9 C 35 %
1602 12-01-2020 02:54:17 1.4 C 37 %
1603 12-01-2020 03:04:17 2.2 C 35 %
1604 12-01-2020 03:14:17 1.5 C 37 %
1605 12-01-2020 03:24:17 1.7 C 36 %
1606 12-01-2020 03:34:17 1.4 C 37 %
1607 12-01-2020 03:44:17 1 C 40 %
1608 12-01-2020 03:54:17 1.5 C 41 %
1609 12-01-2020 04:04:17 1.4 C 41 %
1610 12-01-2020 04:14:17 1.5 C 40 %
1611 12-01-2020 04:24:17 1.8 C 41 %
1612 12-01-2020 04:34:17 2.1 C 38 %
1613 12-01-2020 04:44:17 2.3 C 37 %
1614 12-01-2020 04:54:17 2.7 C 35 %
1615 12-01-2020 05:04:17 3 C 33 %
1616 12-01-2020 05:14:18 3.3 C 31 %
1617 12-01-2020 05:24:17 3.2 C 31 %
1618 12-01-2020 05:34:17 3.2 C 31 %
1619 12-01-2020 05:44:17 3.5 C 31 %
1620 12-01-2020 05:54:17 3.6 C 30 %
1621 12-01-2020 06:04:18 3.7 C 30 %
1622 12-01-2020 06:14:18 3.6 C 30 %
1623 12-01-2020 06:24:17 3.6 C 30 %
1624 12-01-2020 06:34:17 3.7 C 30 %
1625 12-01-2020 06:44:17 3.6 C 30 %
Sensor: Nr:Datum:Temp:Feuchte:
Aussen-T/F 1626 12-01-2020 06:54:17 3.7 C 30 %
1627 12-01-2020 07:04:17 3.7 C 30 %
1628 12-01-2020 07:14:17 4.1 C 29 %
1629 12-01-2020 07:24:17 3.7 C 30 %
1630 12-01-2020 07:34:17 3.7 C 30 %
1631 12-01-2020 07:44:17 3.8 C 29 %
1632 12-01-2020 07:54:17 3.8 C 29 %
1633 12-01-2020 08:04:18 3.7 C 29 %
1634 12-01-2020 08:14:18 3.7 C 29 %
1635 12-01-2020 08:24:17 3.7 C 29 %
1636 12-01-2020 08:34:17 4 C 28 %
1637 12-01-2020 08:44:17 4.2 C 27 %
1638 12-01-2020 08:54:17 4.2 C 27 %
1639 12-01-2020 09:04:17 4.2 C 27 %
1640 12-01-2020 09:14:17 4.2 C 27 %
1641 12-01-2020 09:24:17 4.3 C 27 %
1642 12-01-2020 09:34:17 4.5 C 26 %
1643 12-01-2020 09:44:17 4.7 C 26 %
1644 12-01-2020 09:54:17 4.7 C 26 %
1645 12-01-2020 10:04:17 4.8 C 26 %
1646 12-01-2020 10:14:17 4.8 C 26 %
1647 12-01-2020 10:24:17 4.9 C 25 %
1648 12-01-2020 10:34:18 4.9 C 25 %
1649 12-01-2020 10:44:18 4.9 C 25 %
1650 12-01-2020 10:54:17 5 C 25 %
Sensor: Nr:Datum:Temp:Feuchte:
Aussen-T/F 1651 12-01-2020 11:04:17 5.3 C 23 %
1652 12-01-2020 11:14:17 5.3 C 23 %
1653 12-01-2020 11:24:18 5.3 C 23 %
1654 12-01-2020 11:34:17 5.3 C 23 %
1655 12-01-2020 11:44:17 5.3 C 23 %
1656 12-01-2020 11:54:17 5.5 C 23 %
1657 12-01-2020 12:04:18 5.7 C 23 %
1658 12-01-2020 12:14:18 5.8 C 23 %
1659 12-01-2020 12:24:17 6.1 C 21 %
1660 12-01-2020 12:34:17 6.4 C 21 %
1661 12-01-2020 12:44:17 6.1 C 21 %
1662 12-01-2020 12:54:17 6.1 C 21 %
1663 12-01-2020 13:04:18 6.2 C 21 %
1664 12-01-2020 13:14:18 6.3 C 21 %
1665 12-01-2020 13:24:17 6.5 C 21 %
1666 12-01-2020 13:34:17 6.8 C 21 %
1667 12-01-2020 13:44:17 6.7 C 23 %
1668 12-01-2020 13:54:18 6.7 C 23 %
1669 12-01-2020 14:04:17 6.9 C 21 %
1670 12-01-2020 14:14:17 6.8 C 23 %
1671 12-01-2020 14:24:17 6.9 C 23 %
1672 12-01-2020 14:34:18 6.9 C 25 %
1673 12-01-2020 14:44:18 6.8 C 25 %
1674 12-01-2020 14:54:17 6.8 C 25 %
1675 12-01-2020 15:04:17 6.7 C 25 %
Sensor: Nr:Datum:Temp:Feuchte:
Aussen-T/F 1676 12-01-2020 15:14:17 6.8 C 25 %
1677 12-01-2020 15:24:18 6.8 C 25 %
1678 12-01-2020 15:34:17 6.8 C 25 %
1679 12-01-2020 15:44:17 6.7 C 25 %
1680 12-01-2020 15:54:17 6.6 C 25 %
1681 12-01-2020 16:04:18 6.7 C 25 %
1682 12-01-2020 16:14:18 6.5 C 25 %
1683 12-01-2020 16:24:18 6.3 C 26 %
1684 12-01-2020 16:34:17 6.3 C 27 %
1685 12-01-2020 16:44:17 6.1 C 27 %
1686 12-01-2020 16:54:17 6.1 C 27 %
1687 12-01-2020 17:04:18 6.1 C 27 %
1688 12-01-2020 17:14:18 6 C 27 %
1689 12-01-2020 17:24:17 6 C 28 %
1690 12-01-2020 17:34:17 6 C 28 %
1691 12-01-2020 17:44:17 5.9 C 29 %
1692 12-01-2020 17:54:18 5.7 C 30 %
1693 12-01-2020 18:04:18 5.4 C 30 %
1694 12-01-2020 18:14:18 5.5 C 30 %
1695 12-01-2020 18:24:17 5.4 C 30 %
1696 12-01-2020 18:34:17 5.6 C 30 %
1697 12-01-2020 18:44:17 5.6 C 30 %
1698 12-01-2020 18:54:18 5.7 C 30 %
1699 12-01-2020 19:04:17 5 C 31 %
1700 12-01-2020 19:14:17 4.7 C 34 %
Sensor: Nr:Datum:Temp:Feuchte:
Aussen-T/F 1701 12-01-2020 19:24:17 4.9 C 36 %
1702 12-01-2020 19:34:18 5.6 C 33 %
1703 12-01-2020 19:44:18 5.9 C 32 %
1704 12-01-2020 19:54:17 6 C 31 %
1705 12-01-2020 20:04:18 6 C 31 %
1706 12-01-2020 20:14:18 5.9 C 31 %
1707 12-01-2020 20:24:17 5.7 C 32 %
1708 12-01-2020 20:34:17 5.6 C 32 %
1709 12-01-2020 20:44:17 5.8 C 33 %
1710 12-01-2020 20:54:17 6 C 32 %
1711 12-01-2020 21:04:17 6.1 C 32 %
1712 12-01-2020 21:14:17 6.2 C 32 %
1713 12-01-2020 21:24:17 6.2 C 32 %
1714 12-01-2020 21:34:18 6.1 C 32 %
1715 12-01-2020 21:44:18 6.5 C 31 %
1716 12-01-2020 21:54:17 6.5 C 31 %
1717 12-01-2020 22:04:18 6.4 C 31 %
1718 12-01-2020 22:14:18 6.3 C 32 %
1719 12-01-2020 22:24:17 6 C 32 %
1720 12-01-2020 22:34:17 6.3 C 32 %
1721 12-01-2020 22:44:17 6.2 C 33 %
1722 12-01-2020 22:54:17 5.8 C 33 %
1723 12-01-2020 23:04:17 5.6 C 36 %
1724 12-01-2020 23:14:17 5.2 C 35 %
1725 12-01-2020 23:24:17 5 C 39 %
Sensor: Nr:Datum:Temp:Feuchte:
Aussen-T/F 1726 12-01-2020 23:34:18 6 C 35 %
1727 12-01-2020 23:44:18 5.7 C 33 %
1728 12-01-2020 23:54:17 5.9 C 34 %
1729 13-01-2020 00:04:18 6.3 C 32 %
1730 13-01-2020 00:14:18 5.9 C 33 %
1731 13-01-2020 00:24:17 6.4 C 32 %
1732 13-01-2020 00:34:17 6.5 C 32 %
1733 13-01-2020 00:44:17 6.7 C 31 %
1734 13-01-2020 00:54:18 6.4 C 32 %
1735 13-01-2020 01:04:17 6.1 C 36 %
1736 13-01-2020 01:14:17 5.9 C 37 %
1737 13-01-2020 01:24:17 5.7 C 40 %
1738 13-01-2020 01:34:18 5.6 C 41 %
1739 13-01-2020 01:44:18 5.6 C 42 %
1740 13-01-2020 01:54:17 5.7 C 40 %
1741 13-01-2020 02:04:17 5.9 C 39 %
1742 13-01-2020 02:14:17 5.9 C 38 %
1743 13-01-2020 02:24:18 6 C 36 %
1744 13-01-2020 02:34:17 5.7 C 37 %
1745 13-01-2020 02:44:17 5.9 C 37 %
1746 13-01-2020 02:54:17 5.6 C 39 %
1747 13-01-2020 03:04:18 5.6 C 40 %
1748 13-01-2020 03:14:18 5.7 C 39 %
1749 13-01-2020 03:24:17 5.1 C 38 %
1750 13-01-2020 03:34:17 4.7 C 41 %
Sensor: Nr:Datum:Temp:Feuchte:
Aussen-T/F 1751 13-01-2020 03:44:17 4 C 41 %
1752 13-01-2020 03:54:17 4.1 C 42 %
1753 13-01-2020 04:04:17 3.5 C 44 %
1754 13-01-2020 04:14:17 3.5 C 44 %
1755 13-01-2020 04:24:17 4 C 43 %
1756 13-01-2020 04:34:18 4.1 C 43 %
1757 13-01-2020 04:44:18 3.7 C 43 %
1758 13-01-2020 04:54:17 4 C 43 %
1759 13-01-2020 05:04:18 4.3 C 43 %
1760 13-01-2020 05:14:18 4.3 C 42 %
1761 13-01-2020 05:24:18 4.5 C 42 %
1762 13-01-2020 05:34:17 4.6 C 42 %
1763 13-01-2020 05:44:17 4.6 C 42 %
1764 13-01-2020 05:54:17 4.9 C 42 %
1765 13-01-2020 06:04:17 4.9 C 42 %
1766 13-01-2020 06:14:17 4.8 C 40 %
1767 13-01-2020 06:24:17 4.6 C 40 %
1768 13-01-2020 06:34:17 4.2 C 40 %
1769 13-01-2020 06:44:17 4.7 C 41 %
1770 13-01-2020 06:54:17 4.7 C 40 %
1771 13-01-2020 07:04:17 4.4 C 37 %
1772 13-01-2020 07:14:17 4.1 C 38 %
1773 13-01-2020 07:24:18 4.2 C 39 %
1774 13-01-2020 07:34:17 3.9 C 41 %
1775 13-01-2020 07:44:17 3.9 C 42 %
Sensor: Nr:Datum:Temp:Feuchte:
Aussen-T/F 1776 13-01-2020 07:54:17 3.8 C 42 %
1777 13-01-2020 08:04:18 3.9 C 42 %
1778 13-01-2020 08:14:18 4.3 C 40 %
1779 13-01-2020 08:24:17 4.2 C 40 %
1780 13-01-2020 08:34:17 4.7 C 40 %
1781 13-01-2020 08:44:17 4.8 C 38 %
1782 13-01-2020 08:54:17 4.9 C 38 %
1783 13-01-2020 09:04:17 5.2 C 36 %
1784 13-01-2020 09:14:17 5.4 C 35 %
1785 13-01-2020 09:24:17 5.6 C 34 %
1786 13-01-2020 09:34:18 5.7 C 33 %
1787 13-01-2020 09:44:18 5.8 C 33 %
1788 13-01-2020 09:54:18 5.9 C 33 %
1789 13-01-2020 10:04:17 5.9 C 34 %
1790 13-01-2020 10:14:17 6.2 C 32 %
1791 13-01-2020 10:24:17 6.4 C 32 %
1792 13-01-2020 10:34:18 6.7 C 31 %
1793 13-01-2020 10:44:18 6.8 C 31 %
1794 13-01-2020 10:54:17 6.8 C 31 %
1795 13-01-2020 11:04:17 6.9 C 31 %
1796 13-01-2020 11:14:17 7.1 C 30 %
1797 13-01-2020 11:24:17 7.5 C 29 %
1798 13-01-2020 11:34:17 7.8 C 29 %
1799 13-01-2020 11:44:17 7.8 C 29 %
1800 13-01-2020 11:54:17 7.9 C 29 %
Sensor: Nr:Datum:Temp:Feuchte:
Aussen-T/F 1801 13-01-2020 12:04:18 8 C 29 %
1802 13-01-2020 12:14:18 8 C 28 %
1803 13-01-2020 12:24:18 8.1 C 28 %
1804 13-01-2020 12:34:17 8.1 C 28 %
1805 13-01-2020 12:44:18 8.1 C 28 %
1806 13-01-2020 12:54:17 7.8 C 28 %
1807 13-01-2020 13:04:17 7.4 C 30 %
1808 13-01-2020 13:14:17 7.3 C 30 %
1809 13-01-2020 13:24:17 7.3 C 30 %
1810 13-01-2020 13:34:17 7.5 C 30 %
1811 13-01-2020 13:44:17 7.7 C 30 %
1812 13-01-2020 13:54:17 6.9 C 33 %
1813 13-01-2020 14:04:17 6.9 C 36 %
1814 13-01-2020 14:14:17 7 C 36 %
1815 13-01-2020 14:24:17 7.3 C 35 %
1816 13-01-2020 14:34:17 7.3 C 33 %
1817 13-01-2020 14:44:17 7.3 C 31 %
1818 13-01-2020 14:54:17 7 C 30 %
1819 13-01-2020 15:04:18 7.2 C 31 %
1820 13-01-2020 15:14:18 7.5 C 29 %
1821 13-01-2020 15:24:17 7.5 C 28 %
1822 13-01-2020 15:34:17 7.5 C 28 %
1823 13-01-2020 15:44:17 7.4 C 28 %
1824 13-01-2020 15:54:17 7.4 C 27 %
1825 13-01-2020 16:04:17 7.2 C 29 %
Sensor: Nr:Datum:Temp:Feuchte:
Aussen-T/F 1826 13-01-2020 16:14:17 7.1 C 28 %
1827 13-01-2020 16:24:17 7 C 29 %
1828 13-01-2020 16:34:17 6.9 C 30 %
1829 13-01-2020 16:44:17 6.6 C 30 %
1830 13-01-2020 16:54:17 6.7 C 30 %
1831 13-01-2020 17:04:18 6.6 C 31 %
1832 13-01-2020 17:14:18 6.5 C 30 %
1833 13-01-2020 17:24:17 6.2 C 31 %
1834 13-01-2020 17:34:18 5.8 C 32 %
1835 13-01-2020 17:44:18 5.4 C 33 %
1836 13-01-2020 17:54:17 5.3 C 35 %
1837 13-01-2020 18:04:17 5.3 C 36 %
1838 13-01-2020 18:14:17 5.3 C 36 %
1839 13-01-2020 18:24:18 5.6 C 35 %
1840 13-01-2020 18:34:17 5.7 C 34 %
1841 13-01-2020 18:44:17 5.6 C 34 %
1842 13-01-2020 18:54:17 5.3 C 35 %
1843 13-01-2020 19:04:18 5.5 C 35 %
1844 13-01-2020 19:14:18 5.8 C 34 %
1845 13-01-2020 19:24:17 5.9 C 33 %
1846 13-01-2020 19:34:17 6.2 C 31 %
1847 13-01-2020 19:44:17 6.1 C 32 %
1848 13-01-2020 19:54:17 5.6 C 34 %
1849 13-01-2020 20:04:17 5.6 C 35 %
1850 13-01-2020 20:14:17 5.5 C 35 %
Sensor: Nr:Datum:Temp:Feuchte:
Aussen-T/F 1851 13-01-2020 20:24:17 5.5 C 35 %
1852 13-01-2020 20:34:18 5.6 C 35 %
1853 13-01-2020 20:44:18 5.7 C 35 %
1854 13-01-2020 20:54:17 5.7 C 35 %
1855 13-01-2020 21:04:17 5.7 C 35 %
1856 13-01-2020 21:14:17 5.7 C 35 %
1857 13-01-2020 21:24:17 5.4 C 36 %
1858 13-01-2020 21:34:17 5.6 C 37 %
1859 13-01-2020 21:44:17 5.5 C 36 %
1860 13-01-2020 21:54:17 5.4 C 37 %
1861 13-01-2020 22:04:18 5.6 C 37 %
1862 13-01-2020 22:14:18 5.7 C 37 %
1863 13-01-2020 22:24:17 5.9 C 36 %
1864 13-01-2020 22:34:17 6 C 35 %
1865 13-01-2020 22:44:17 6.1 C 34 %
1866 13-01-2020 22:54:18 6.3 C 34 %
1867 13-01-2020 23:04:17 6.2 C 35 %
1868 13-01-2020 23:14:17 6 C 35 %
1869 13-01-2020 23:24:17 6 C 35 %
1870 13-01-2020 23:34:17 6.2 C 35 %
1871 13-01-2020 23:44:17 6.1 C 37 %
1872 13-01-2020 23:54:17 6.3 C 36 %
1873 14-01-2020 00:04:18 6.4 C 36 %
1874 14-01-2020 00:14:18 6.5 C 35 %
1875 14-01-2020 00:24:18 6.7 C 35 %
Sensor: Nr:Datum:Temp:Feuchte:
Aussen-T/F 1876 14-01-2020 00:34:17 6.5 C 35 %
1877 14-01-2020 00:44:17 6.6 C 35 %
1878 14-01-2020 00:54:17 6.5 C 35 %
1879 14-01-2020 01:04:18 6.3 C 36 %
1880 14-01-2020 01:14:18 6 C 36 %
1881 14-01-2020 01:24:17 5.8 C 38 %
1882 14-01-2020 01:34:17 5.6 C 40 %
1883 14-01-2020 01:44:17 6.1 C 37 %
1884 14-01-2020 01:54:17 6 C 36 %
1885 14-01-2020 02:04:17 6.2 C 35 %
1886 14-01-2020 02:14:17 6.5 C 33 %
1887 14-01-2020 02:24:17 6.5 C 32 %
1888 14-01-2020 02:34:18 6.4 C 32 %
1889 14-01-2020 02:44:18 6.3 C 33 %
1890 14-01-2020 02:54:17 6.4 C 32 %
1891 14-01-2020 03:04:17 6.5 C 32 %
1892 14-01-2020 03:14:17 6.7 C 32 %
1893 14-01-2020 03:24:17 6.6 C 31 %
1894 14-01-2020 03:34:17 6.5 C 31 %
1895 14-01-2020 03:44:17 6.7 C 30 %
1896 14-01-2020 03:54:17 7 C 30 %
1897 14-01-2020 04:04:18 7.1 C 30 %
1898 14-01-2020 04:14:18 6.8 C 30 %
1899 14-01-2020 04:24:17 6.7 C 30 %
1900 14-01-2020 04:34:17 6.5 C 31 %
Sensor: Nr:Datum:Temp:Feuchte:
Aussen-T/F 1901 14-01-2020 04:44:17 6.6 C 32 %
1902 14-01-2020 04:54:17 6.6 C 31 %
1903 14-01-2020 05:04:17 7.2 C 29 %
1904 14-01-2020 05:14:17 7.3 C 28 %
1905 14-01-2020 05:24:17 7.6 C 27 %
1906 14-01-2020 05:34:17 7.4 C 28 %
1907 14-01-2020 05:44:17 7.2 C 27 %
1908 14-01-2020 05:54:18 7.2 C 27 %
1909 14-01-2020 06:04:17 7.3 C 27 %
1910 14-01-2020 06:14:17 7.3 C 27 %
1911 14-01-2020 06:24:17 6.9 C 29 %
1912 14-01-2020 06:34:18 7 C 28 %
1913 14-01-2020 06:44:18 7.2 C 27 %
1914 14-01-2020 06:54:17 7.2 C 27 %
1915 14-01-2020 07:04:17 7.3 C 26 %
1916 14-01-2020 07:14:17 6.8 C 28 %
1917 14-01-2020 07:24:17 7 C 27 %
1918 14-01-2020 07:34:18 6.9 C 28 %
1919 14-01-2020 07:44:18 7.1 C 26 %
1920 14-01-2020 07:54:17 7.3 C 26 %
1921 14-01-2020 08:04:17 7.6 C 25 %
1922 14-01-2020 08:14:17 8 C 25 %
1923 14-01-2020 08:24:17 7.9 C 25 %
1924 14-01-2020 08:34:17 7.9 C 25 %
1925 14-01-2020 08:44:17 7.9 C 25 %
Sensor: Nr:Datum:Temp:Feuchte:
Aussen-T/F 1926 14-01-2020 08:54:18 8.1 C 25 %
1927 14-01-2020 09:04:18 8.5 C 23 %
1928 14-01-2020 09:14:18 8.3 C 25 %
1929 14-01-2020 09:24:17 8.6 C 25 %
1930 14-01-2020 09:34:17 8.4 C 25 %
1931 14-01-2020 09:44:17 8.7 C 25 %
1932 14-01-2020 09:54:17 8.9 C 25 %
1933 14-01-2020 10:04:18 9.4 C 21 %
1934 14-01-2020 10:14:18 9.5 C 20 %
1935 14-01-2020 10:24:18 9.2 C 20 %
1936 14-01-2020 10:34:18 9.1 C 20 %
1937 14-01-2020 10:44:18 9.1 C 21 %
1938 14-01-2020 10:54:17 9.2 C 20 %
1939 14-01-2020 11:04:17 9.4 C 20 %
1940 14-01-2020 11:14:17 9.5 C 20 %
1941 14-01-2020 11:24:17 9.8 C 20 %
1942 14-01-2020 11:34:18 9.9 C 20 %
1943 14-01-2020 11:44:18 9.9 C 20 %
1944 14-01-2020 11:54:17 9.7 C 20 %
1945 14-01-2020 12:04:17 9.8 C 20 %
1946 14-01-2020 12:14:17 9.8 C 20 %
1947 14-01-2020 12:24:17 10 C 20 %
1948 14-01-2020 12:34:17 10.1 C 20 %
1949 14-01-2020 12:44:17 10.1 C 20 %
1950 14-01-2020 12:54:18 10.2 C 20 %
Sensor: Nr:Datum:Temp:Feuchte:
Aussen-T/F 1951 14-01-2020 13:04:18 10.2 C 20 %
1952 14-01-2020 13:14:18 10.1 C 20 %
1953 14-01-2020 13:24:18 10.4 C 20 %
1954 14-01-2020 13:34:17 10.5 C 20 %
1955 14-01-2020 13:44:17 10.8 C 20 %
1956 14-01-2020 13:54:17 11.5 C 20 %
1957 14-01-2020 14:04:17 12 C 20 %
1958 14-01-2020 14:14:17 12.1 C 20 %
1959 14-01-2020 14:24:17 12.1 C 20 %
1960 14-01-2020 14:34:17 12 C 20 %
1961 14-01-2020 14:44:17 12 C 20 %
1962 14-01-2020 14:54:17 12 C 20 %
1963 14-01-2020 15:04:17 12.2 C 20 %
1964 14-01-2020 15:14:17 12.2 C 20 %
1965 14-01-2020 15:24:17 12.1 C 20 %
1966 14-01-2020 15:34:18 11.9 C 20 %
1967 14-01-2020 15:44:18 11.5 C 20 %
1968 14-01-2020 15:54:17 11.1 C 20 %
1969 14-01-2020 16:04:18 10.8 C 20 %
1970 14-01-2020 16:14:18 11.1 C 20 %
1971 14-01-2020 16:24:17 10.9 C 20 %
1972 14-01-2020 16:34:18 10.6 C 20 %
1973 14-01-2020 16:44:18 10.7 C 20 %
1974 14-01-2020 16:54:17 10.8 C 20 %
1975 14-01-2020 17:04:17 10.7 C 20 %
Sensor: Nr:Datum:Temp:Feuchte:
Aussen-T/F 1976 14-01-2020 17:14:18 10.7 C 20 %
1977 14-01-2020 17:24:17 10.6 C 20 %
1978 14-01-2020 17:34:17 10.6 C 20 %
1979 14-01-2020 17:44:17 11 C 20 %
1980 14-01-2020 17:54:18 10.7 C 20 %
1981 14-01-2020 18:04:17 10.7 C 20 %
1982 14-01-2020 18:14:17 10.9 C 20 %
1983 14-01-2020 18:24:17 10.4 C 20 %
1984 14-01-2020 18:34:18 10.5 C 20 %
1985 14-01-2020 18:44:18 10.8 C 20 %
1986 14-01-2020 18:54:17 11.1 C 20 %
1987 14-01-2020 19:04:17 11.2 C 20 %
1988 14-01-2020 19:14:17 11 C 20 %
1989 14-01-2020 19:24:17 10.9 C 20 %
1990 14-01-2020 19:34:17 10.9 C 20 %
1991 14-01-2020 19:44:17 11 C 20 %
1992 14-01-2020 19:54:17 10.7 C 20 %
1993 14-01-2020 20:04:18 10.8 C 20 %
1994 14-01-2020 20:14:18 10.8 C 20 %
1995 14-01-2020 20:24:18 11 C 20 %
1996 14-01-2020 20:34:17 11.5 C 20 %
1997 14-01-2020 20:44:17 11.5 C 20 %
1998 14-01-2020 20:54:17 11.5 C 20 %
1999 14-01-2020 21:04:18 11.7 C 20 %
2000 14-01-2020 21:14:18 11.4 C 20 %
Sensor: Nr:Datum:Temp:Feuchte:
Aussen-T/F 2001 14-01-2020 21:24:17 11.6 C 20 %
2002 14-01-2020 21:34:18 12.2 C 20 %
2003 14-01-2020 21:44:18 11.7 C 20 %
2004 14-01-2020 21:54:18 11.5 C 20 %
2005 14-01-2020 22:04:17 11.7 C 20 %
2006 14-01-2020 22:14:17 11.7 C 20 %
2007 14-01-2020 22:24:17 11.4 C 20 %
2008 14-01-2020 22:34:18 11.7 C 20 %
2009 14-01-2020 22:44:18 11.1 C 20 %
2010 14-01-2020 22:54:17 11.3 C 20 %
2011 14-01-2020 23:04:18 11.7 C 20 %
2012 14-01-2020 23:14:18 11.6 C 20 %
2013 14-01-2020 23:24:17 11.8 C 20 %
2014 14-01-2020 23:34:18 11.7 C 20 %
2015 14-01-2020 23:44:18 11.3 C 20 %
2016 14-01-2020 23:54:17 11.2 C 20 %
2017 15-01-2020 00:04:17 11.3 C 20 %
2018 15-01-2020 00:14:17 11.1 C 20 %
2019 15-01-2020 00:24:17 11.8 C 20 %
2020 15-01-2020 00:34:18 11.5 C 20 %
2021 15-01-2020 00:44:18 11.2 C 20 %
2022 15-01-2020 00:54:17 11.3 C 20 %
2023 15-01-2020 01:04:17 11.3 C 20 %
2024 15-01-2020 01:14:17 11.1 C 20 %
2025 15-01-2020 01:24:17 10.8 C 20 %
Sensor: Nr:Datum:Temp:Feuchte:
Aussen-T/F 2026 15-01-2020 01:34:18 10.9 C 20 %
2027 15-01-2020 01:44:18 11 C 20 %
2028 15-01-2020 01:54:17 10.8 C 20 %
2029 15-01-2020 02:04:18 10.3 C 20 %
2030 15-01-2020 02:14:18 10.2 C 20 %
2031 15-01-2020 02:24:18 10.2 C 20 %
2032 15-01-2020 02:34:17 10.2 C 20 %
2033 15-01-2020 02:44:17 10 C 20 %
2034 15-01-2020 02:54:17 9.8 C 20 %
2035 15-01-2020 03:04:18 9.6 C 23 %
2036 15-01-2020 03:14:18 9.9 C 23 %
2037 15-01-2020 03:24:17 10 C 21 %
2038 15-01-2020 03:34:17 9.4 C 25 %
2039 15-01-2020 03:44:17 9.3 C 26 %
2040 15-01-2020 03:54:17 9.2 C 27 %
2041 15-01-2020 04:04:18 9.1 C 27 %
2042 15-01-2020 04:14:18 9.1 C 27 %
2043 15-01-2020 04:24:17 9 C 27 %
2044 15-01-2020 04:34:17 8.7 C 29 %
2045 15-01-2020 04:44:17 8.5 C 28 %
2046 15-01-2020 04:54:17 8.2 C 28 %
2047 15-01-2020 05:04:17 8.3 C 28 %
2048 15-01-2020 05:14:17 8.6 C 27 %
2049 15-01-2020 05:24:17 9.2 C 25 %
2050 15-01-2020 05:34:17 9.7 C 25 %
Sensor: Nr:Datum:Temp:Feuchte:
Aussen-T/F 2051 15-01-2020 05:44:17 9.6 C 25 %
2052 15-01-2020 05:54:17 9.8 C 23 %
2053 15-01-2020 06:04:17 9.8 C 21 %
2054 15-01-2020 06:14:17 9.7 C 21 %
2055 15-01-2020 06:24:17 9.8 C 20 %
2056 15-01-2020 06:34:18 9.1 C 20 %
2057 15-01-2020 06:44:18 8.7 C 21 %
2058 15-01-2020 06:54:17 8 C 25 %
2059 15-01-2020 07:04:17 7.5 C 25 %
2060 15-01-2020 07:14:17 7.3 C 26 %
2061 15-01-2020 07:24:17 7 C 27 %
2062 15-01-2020 07:34:18 7 C 27 %
2063 15-01-2020 07:44:18 7 C 27 %
2064 15-01-2020 07:54:18 6.2 C 29 %
2065 15-01-2020 08:04:17 6 C 31 %
2066 15-01-2020 08:14:18 5.8 C 31 %
2067 15-01-2020 08:24:17 5.8 C 31 %
2068 15-01-2020 08:34:17 5.7 C 32 %
2069 15-01-2020 08:44:17 6.3 C 30 %
2070 15-01-2020 08:54:17 6.7 C 30 %
2071 15-01-2020 09:04:18 6.6 C 30 %
2072 15-01-2020 09:14:18 6.6 C 29 %
2073 15-01-2020 09:24:17 6.9 C 29 %
2074 15-01-2020 09:34:18 6.6 C 29 %
2075 15-01-2020 09:44:18 6.8 C 30 %
Sensor: Nr:Datum:Temp:Feuchte:
Aussen-T/F 2076 15-01-2020 09:54:18 7.1 C 28 %
2077 15-01-2020 10:04:18 7.5 C 27 %
2078 15-01-2020 10:14:18 7.6 C 27 %
2079 15-01-2020 10:24:17 7.7 C 27 %
2080 15-01-2020 10:34:18 7.3 C 27 %
2081 15-01-2020 10:44:18 7.4 C 27 %
2082 15-01-2020 10:54:17 8.3 C 27 %
2083 15-01-2020 11:04:17 9.1 C 25 %
2084 15-01-2020 11:14:17 9.7 C 20 %
2085 15-01-2020 11:24:17 10 C 20 %
2086 15-01-2020 11:34:17 10.9 C 20 %
2087 15-01-2020 11:44:17 10.9 C 20 %
2088 15-01-2020 11:54:17 11 C 20 %
2089 15-01-2020 12:04:18 11.2 C 20 %
2090 15-01-2020 12:14:18 11.6 C 20 %
2091 15-01-2020 12:24:17 11.6 C 20 %
2092 15-01-2020 12:34:18 11.5 C 20 %
2093 15-01-2020 12:44:18 11.1 C 20 %
2094 15-01-2020 12:54:18 11.6 C 20 %
2095 15-01-2020 13:04:18 12 C 20 %
2096 15-01-2020 13:14:18 12.2 C 20 %
2097 15-01-2020 13:24:18 12.5 C 20 %
2098 15-01-2020 13:34:17 12.5 C 20 %
2099 15-01-2020 13:44:17 12.2 C 20 %
2100 15-01-2020 13:54:17 11.8 C 20 %
Sensor: Nr:Datum:Temp:Feuchte:
Aussen-T/F 2101 15-01-2020 14:04:17 11.4 C 20 %
2102 15-01-2020 14:14:17 11.2 C 20 %
2103 15-01-2020 14:24:17 11.6 C 20 %
2104 15-01-2020 14:34:18 11.7 C 20 %
2105 15-01-2020 14:44:18 12 C 20 %
2106 15-01-2020 14:54:18 12.7 C 20 %
2107 15-01-2020 15:04:17 13.1 C 20 %
2108 15-01-2020 15:14:17 13.1 C 20 %
2109 15-01-2020 15:24:17 13.1 C 20 %
2110 15-01-2020 15:34:17 13.2 C 20 %
2111 15-01-2020 15:44:17 12.9 C 20 %
2112 15-01-2020 15:54:17 13.2 C 20 %
2113 15-01-2020 16:04:17 12.9 C 20 %
2114 15-01-2020 16:14:17 12.7 C 20 %
2115 15-01-2020 16:24:17 12.5 C 20 %
2116 15-01-2020 16:34:18 12.6 C 20 %
2117 15-01-2020 16:44:18 12.1 C 20 %
2118 15-01-2020 16:54:17 12 C 20 %
2119 15-01-2020 17:04:18 11.8 C 20 %
2120 15-01-2020 17:14:18 11.7 C 20 %
2121 15-01-2020 17:24:17 11.9 C 20 %
2122 15-01-2020 17:34:18 11.9 C 20 %
2123 15-01-2020 17:44:18 11.4 C 20 %
2124 15-01-2020 17:54:18 11.2 C 20 %
2125 15-01-2020 18:04:17 11.2 C 20 %
Sensor: Nr:Datum:Temp:Feuchte:
Aussen-T/F 2126 15-01-2020 18:14:17 11.2 C 20 %
2127 15-01-2020 18:24:17 11.2 C 20 %
2128 15-01-2020 18:34:17 11.8 C 20 %
2129 15-01-2020 18:44:17 11.9 C 20 %
2130 15-01-2020 18:54:17 12.2 C 20 %
2131 15-01-2020 19:04:18 12 C 20 %
2132 15-01-2020 19:14:18 12.2 C 20 %
2133 15-01-2020 19:24:18 12 C 20 %
2134 15-01-2020 19:34:17 12.5 C 20 %
2135 15-01-2020 19:44:17 12.9 C 20 %
2136 15-01-2020 19:54:18 12.9 C 20 %
2137 15-01-2020 20:04:17 13 C 20 %
2138 15-01-2020 20:14:18 12.8 C 20 %
2139 15-01-2020 20:24:17 12.7 C 20 %
2140 15-01-2020 20:34:17 12.5 C 20 %
2141 15-01-2020 20:44:17 12.7 C 20 %
2142 15-01-2020 20:54:17 12.6 C 20 %
2143 15-01-2020 21:04:18 12.7 C 20 %
2144 15-01-2020 21:14:18 12.8 C 20 %
2145 15-01-2020 21:24:18 12.5 C 20 %
2146 15-01-2020 21:34:17 12.4 C 20 %
2147 15-01-2020 21:44:17 10.8 C 25 %
2148 15-01-2020 21:54:17 10.2 C 28 %
2149 15-01-2020 22:04:18 10.1 C 30 %
2150 15-01-2020 22:14:18 9.8 C 35 %
Sensor: Nr:Datum:Temp:Feuchte:
Aussen-T/F 2151 15-01-2020 22:24:18 9.4 C 38 %
2152 15-01-2020 22:34:17 9.3 C 40 %
2153 15-01-2020 22:44:17 9.3 C 40 %
2154 15-01-2020 22:54:17 9.1 C 40 %
2155 15-01-2020 23:04:18 9.1 C 40 %
2156 15-01-2020 23:14:18 9.1 C 38 %
2157 15-01-2020 23:24:17 9.1 C 36 %
2158 15-01-2020 23:34:17 8.9 C 37 %
2159 15-01-2020 23:44:17 8.6 C 36 %
2160 15-01-2020 23:54:17 8.4 C 37 %
2161 16-01-2020 00:04:17 8.7 C 34 %
2162 16-01-2020 00:14:17 8.4 C 36 %
2163 16-01-2020 00:24:17 9.2 C 33 %
2164 16-01-2020 00:34:17 8.6 C 36 %
2165 16-01-2020 00:44:17 8.7 C 37 %
2166 16-01-2020 00:54:18 8.8 C 37 %
2167 16-01-2020 01:04:17 8.9 C 37 %
2168 16-01-2020 01:14:17 9 C 36 %
2169 16-01-2020 01:24:17 9.1 C 35 %
2170 16-01-2020 01:34:18 9 C 36 %
2171 16-01-2020 01:44:18 8.9 C 37 %
2172 16-01-2020 01:54:17 8.6 C 38 %
2173 16-01-2020 02:04:17 8.6 C 40 %
2174 16-01-2020 02:14:17 8.6 C 39 %
2175 16-01-2020 02:24:17 8.8 C 37 %
Sensor: Nr:Datum:Temp:Feuchte:
Aussen-T/F 2176 16-01-2020 02:34:17 8.7 C 38 %
2177 16-01-2020 02:44:18 8.6 C 42 %
2178 16-01-2020 02:54:17 8.7 C 42 %
2179 16-01-2020 03:04:18 8.6 C 42 %
2180 16-01-2020 03:14:18 8.6 C 42 %
2181 16-01-2020 03:24:18 8.7 C 43 %
2182 16-01-2020 03:34:17 8.6 C 42 %
2183 16-01-2020 03:44:17 8.6 C 42 %
2184 16-01-2020 03:54:17 8.7 C 42 %
2185 16-01-2020 04:04:18 8.7 C 42 %
2186 16-01-2020 04:14:18 8.6 C 42 %
2187 16-01-2020 04:24:17 8.6 C 42 %
2188 16-01-2020 04:34:18 8.4 C 42 %
2189 16-01-2020 04:44:18 8.2 C 42 %
2190 16-01-2020 04:54:17 8.2 C 42 %
2191 16-01-2020 05:04:17 8.3 C 42 %
2192 16-01-2020 05:14:17 8.1 C 42 %
2193 16-01-2020 05:24:17 8.1 C 42 %
2194 16-01-2020 05:34:17 7.7 C 42 %
2195 16-01-2020 05:44:17 7.1 C 42 %
2196 16-01-2020 05:54:17 7.9 C 42 %
2197 16-01-2020 06:04:17 8 C 42 %
2198 16-01-2020 06:14:17 7.6 C 42 %
2199 16-01-2020 06:24:17 7.2 C 41 %
2200 16-01-2020 06:34:18 7.1 C 42 %
Sensor: Nr:Datum:Temp:Feuchte:
Aussen-T/F 2201 16-01-2020 06:44:18 7.3 C 42 %
2202 16-01-2020 06:54:17 6.8 C 42 %
2203 16-01-2020 07:04:17 6.2 C 41 %
2204 16-01-2020 07:14:17 5.6 C 42 %
2205 16-01-2020 07:24:17 6 C 42 %
2206 16-01-2020 07:34:18 6.7 C 43 %
2207 16-01-2020 07:44:18 6.9 C 42 %
2208 16-01-2020 07:54:17 6.9 C 42 %
2209 16-01-2020 08:04:17 6.7 C 42 %
2210 16-01-2020 08:14:17 6.4 C 42 %
2211 16-01-2020 08:24:17 5.9 C 42 %
2212 16-01-2020 08:34:17 5.9 C 42 %
2213 16-01-2020 08:44:17 5.6 C 42 %
2214 16-01-2020 08:54:18 5.4 C 42 %
2215 16-01-2020 09:04:17 5.2 C 42 %
2216 16-01-2020 09:14:17 5.2 C 42 %
2217 16-01-2020 09:24:17 5.6 C 42 %
2218 16-01-2020 09:34:17 5.4 C 42 %
2219 16-01-2020 09:44:17 5.7 C 42 %
2220 16-01-2020 09:54:17 6.3 C 42 %
2221 16-01-2020 10:04:17 6.5 C 42 %
2222 16-01-2020 10:14:17 6.5 C 42 %
2223 16-01-2020 10:24:17 6.7 C 42 %
2224 16-01-2020 10:34:17 6.9 C 42 %
2225 16-01-2020 10:44:17 6.8 C 42 %
Sensor: Nr:Datum:Temp:Feuchte:
Aussen-T/F 2226 16-01-2020 10:54:18 7.1 C 41 %
2227 16-01-2020 11:04:17 6.9 C 41 %
2228 16-01-2020 11:14:17 6.7 C 41 %
2229 16-01-2020 11:24:17 6.8 C 41 %
2230 16-01-2020 11:34:17 6.9 C 41 %
2231 16-01-2020 11:44:17 6.8 C 41 %
2232 16-01-2020 11:54:17 6.8 C 41 %
2233 16-01-2020 12:04:18 6.7 C 41 %
2234 16-01-2020 12:14:18 6.5 C 41 %
2235 16-01-2020 12:24:17 6.3 C 41 %
2236 16-01-2020 12:34:17 6.4 C 41 %
2237 16-01-2020 12:44:18 6.7 C 41 %
2238 16-01-2020 12:54:17 7.5 C 41 %
2239 16-01-2020 13:04:18 7.5 C 41 %
2240 16-01-2020 13:14:18 7.7 C 41 %
2241 16-01-2020 13:24:17 7.6 C 40 %
2242 16-01-2020 13:34:17 7.8 C 40 %
2243 16-01-2020 13:44:17 7.8 C 40 %
2244 16-01-2020 13:54:18 7.9 C 40 %
2245 16-01-2020 14:04:17 8.1 C 38 %
2246 16-01-2020 14:14:17 8.3 C 37 %
2247 16-01-2020 14:24:17 9 C 36 %
2248 16-01-2020 14:34:17 9.1 C 36 %
2249 16-01-2020 14:44:17 8.9 C 35 %
2250 16-01-2020 14:54:17 8.7 C 35 %
Sensor: Nr:Datum:Temp:Feuchte:
Aussen-T/F 2251 16-01-2020 15:04:17 8.9 C 35 %
2252 16-01-2020 15:14:17 8.6 C 35 %
2253 16-01-2020 15:24:17 8.5 C 35 %
2254 16-01-2020 15:34:18 8.4 C 35 %
2255 16-01-2020 15:44:18 8.4 C 35 %
2256 16-01-2020 15:54:17 8 C 35 %
2257 16-01-2020 16:04:17 7.6 C 37 %
2258 16-01-2020 16:14:17 7.5 C 37 %
2259 16-01-2020 16:24:17 7.5 C 37 %
2260 16-01-2020 16:34:17 7.1 C 37 %
2261 16-01-2020 16:44:17 7.5 C 39 %
2262 16-01-2020 16:54:18 7.1 C 38 %
2263 16-01-2020 17:04:17 6.8 C 40 %
2264 16-01-2020 17:14:17 7 C 40 %
2265 16-01-2020 17:24:17 6.9 C 40 %
2266 16-01-2020 17:34:18 6.9 C 40 %
2267 16-01-2020 17:44:18 7 C 40 %
2268 16-01-2020 17:54:17 6.5 C 40 %
2269 16-01-2020 18:04:17 6.3 C 40 %
2270 16-01-2020 18:14:17 6.5 C 41 %
2271 16-01-2020 18:24:17 6.5 C 41 %
2272 16-01-2020 18:34:17 6.5 C 41 %
2273 16-01-2020 18:44:17 5.9 C 41 %
2274 16-01-2020 18:54:18 5.9 C 42 %
2275 16-01-2020 19:04:17 6.1 C 42 %
Sensor: Nr:Datum:Temp:Feuchte:
Aussen-T/F 2276 16-01-2020 19:14:17 6.2 C 43 %
2277 16-01-2020 19:24:17 5.4 C 42 %
2278 16-01-2020 19:34:17 5.3 C 43 %
2279 16-01-2020 19:44:17 5.3 C 43 %
2280 16-01-2020 19:54:17 5.2 C 43 %
2281 16-01-2020 20:04:18 5.3 C 43 %
2282 16-01-2020 20:14:18 5.4 C 43 %
2283 16-01-2020 20:24:18 5.7 C 43 %
2284 16-01-2020 20:34:17 5.9 C 42 %
2285 16-01-2020 20:44:17 5.7 C 40 %
2286 16-01-2020 20:54:17 5.4 C 41 %
2287 16-01-2020 21:04:18 5.9 C 42 %
2288 16-01-2020 21:14:18 5.3 C 41 %
2289 16-01-2020 21:24:18 5.6 C 42 %
2290 16-01-2020 21:34:18 5.1 C 41 %
2291 16-01-2020 21:44:18 5 C 42 %
2292 16-01-2020 21:54:17 4.7 C 42 %
2293 16-01-2020 22:04:17 5.2 C 42 %
2294 16-01-2020 22:14:17 5 C 42 %
2295 16-01-2020 22:24:18 5 C 42 %
2296 16-01-2020 22:34:18 5.1 C 42 %
2297 16-01-2020 22:44:18 5.5 C 42 %
2298 16-01-2020 22:54:17 5.1 C 40 %
2299 16-01-2020 23:04:17 5 C 41 %
2300 16-01-2020 23:14:17 5.6 C 41 %
Sensor: Nr:Datum:Temp:Feuchte:
Aussen-T/F 2301 16-01-2020 23:24:17 6.8 C 36 %
2302 16-01-2020 23:34:17 7 C 34 %
2303 16-01-2020 23:44:17 6.4 C 35 %
2304 16-01-2020 23:54:17 5.8 C 36 %
2305 17-01-2020 00:04:17 5.6 C 37 %
2306 17-01-2020 00:14:17 5.3 C 39 %
2307 17-01-2020 00:24:17 5.7 C 40 %
2308 17-01-2020 00:34:18 5.2 C 40 %
2309 17-01-2020 00:44:18 5 C 40 %
2310 17-01-2020 00:54:17 5.1 C 41 %
2311 17-01-2020 01:04:17 5.2 C 41 %
2312 17-01-2020 01:14:17 5 C 41 %
2313 17-01-2020 01:24:17 4.9 C 42 %
2314 17-01-2020 01:34:18 4.8 C 42 %
2315 17-01-2020 01:44:18 4.6 C 41 %
2316 17-01-2020 01:54:17 4.6 C 41 %
2317 17-01-2020 02:04:17 5.5 C 41 %
2318 17-01-2020 02:14:17 4.2 C 39 %
2319 17-01-2020 02:24:17 4 C 40 %
2320 17-01-2020 02:34:18 4 C 43 %
2321 17-01-2020 02:44:18 3.7 C 44 %
2322 17-01-2020 02:54:17 3.9 C 45 %
2323 17-01-2020 03:04:17 3.8 C 44 %
2324 17-01-2020 03:14:17 3.8 C 44 %
2325 17-01-2020 03:24:17 3.7 C 45 %
Sensor: Nr:Datum:Temp:Feuchte:
Aussen-T/F 2326 17-01-2020 03:34:18 3.8 C 45 %
2327 17-01-2020 03:44:18 3.4 C 44 %
2328 17-01-2020 03:54:17 3.6 C 44 %
2329 17-01-2020 04:04:18 3.4 C 44 %
2330 17-01-2020 04:14:18 3.4 C 44 %
2331 17-01-2020 04:24:18 3.5 C 44 %
2332 17-01-2020 04:34:17 3.5 C 44 %
2333 17-01-2020 04:44:17 3.2 C 44 %
2334 17-01-2020 04:54:17 3 C 43 %
2335 17-01-2020 05:04:18 2.9 C 45 %
2336 17-01-2020 05:14:18 2.8 C 45 %
2337 17-01-2020 05:24:17 2.7 C 45 %
2338 17-01-2020 05:34:17 2.5 C 45 %
2339 17-01-2020 05:44:17 2.3 C 45 %
2340 17-01-2020 05:54:17 2.4 C 45 %
2341 17-01-2020 06:04:17 2.1 C 45 %
2342 17-01-2020 06:14:17 2 C 45 %
2343 17-01-2020 06:24:17 1.8 C 45 %
2344 17-01-2020 06:34:17 1.8 C 45 %
2345 17-01-2020 06:44:17 1.8 C 46 %
2346 17-01-2020 06:54:17 1.7 C 45 %
2347 17-01-2020 07:04:18 1.8 C 45 %
2348 17-01-2020 07:14:18 1.5 C 45 %
2349 17-01-2020 07:24:17 1.3 C 45 %
2350 17-01-2020 07:34:17 1.2 C 45 %
Sensor: Nr:Datum:Temp:Feuchte:
Aussen-T/F 2351 17-01-2020 07:44:17 1.4 C 45 %
2352 17-01-2020 07:54:17 1.6 C 46 %
2353 17-01-2020 08:04:18 1.9 C 46 %
2354 17-01-2020 08:14:18 2.2 C 45 %
2355 17-01-2020 08:24:17 2 C 45 %
2356 17-01-2020 08:34:17 2.2 C 45 %
2357 17-01-2020 08:44:17 2.3 C 45 %
2358 17-01-2020 08:54:18 2.3 C 45 %
2359 17-01-2020 09:04:17 2.4 C 45 %
2360 17-01-2020 09:14:17 2.2 C 44 %
2361 17-01-2020 09:24:17 2 C 44 %
2362 17-01-2020 09:34:17 2.1 C 44 %
2363 17-01-2020 09:44:17 2.9 C 45 %
2364 17-01-2020 09:54:17 3 C 44 %
2365 17-01-2020 10:04:17 3.1 C 44 %
2366 17-01-2020 10:14:17 3.4 C 44 %
2367 17-01-2020 10:24:17 3.5 C 44 %
2368 17-01-2020 10:34:18 3.7 C 44 %
2369 17-01-2020 10:44:18 4 C 43 %
2370 17-01-2020 10:54:17 4.1 C 42 %
2371 17-01-2020 11:04:17 4.4 C 42 %
2372 17-01-2020 11:14:17 4.4 C 41 %
2373 17-01-2020 11:24:17 4.6 C 42 %
2374 17-01-2020 11:34:18 5.8 C 42 %
2375 17-01-2020 11:44:18 6 C 40 %
Sensor: Nr:Datum:Temp:Feuchte:
Aussen-T/F 2376 17-01-2020 11:54:17 6.3 C 37 %
2377 17-01-2020 12:04:17 6.7 C 36 %
2378 17-01-2020 12:14:17 6.8 C 36 %
2379 17-01-2020 12:24:17 7 C 35 %
2380 17-01-2020 12:34:17 7.2 C 36 %
2381 17-01-2020 12:44:17 7.3 C 35 %
2382 17-01-2020 12:54:17 7.3 C 35 %
2383 17-01-2020 13:04:18 7.3 C 35 %
2384 17-01-2020 13:14:18 7.7 C 34 %
2385 17-01-2020 13:24:18 8.6 C 33 %
2386 17-01-2020 13:34:18 8.9 C 32 %
2387 17-01-2020 13:44:18 9.3 C 31 %
2388 17-01-2020 13:54:17 9 C 31 %
2389 17-01-2020 14:04:17 9.2 C 31 %
2390 17-01-2020 14:14:17 9.3 C 31 %
2391 17-01-2020 14:24:17 9.3 C 31 %
2392 17-01-2020 14:34:17 9.1 C 31 %
2393 17-01-2020 14:44:17 8.8 C 33 %
2394 17-01-2020 14:54:17 8.6 C 35 %
2395 17-01-2020 15:04:17 8.5 C 35 %
2396 17-01-2020 15:14:17 8.3 C 36 %
2397 17-01-2020 15:24:17 8.3 C 36 %
2398 17-01-2020 15:34:18 8.2 C 36 %
2399 17-01-2020 15:44:18 8.1 C 38 %
2400 17-01-2020 15:54:17 8.1 C 37 %
Sensor: Nr:Datum:Temp:Feuchte:
Aussen-T/F 2401 17-01-2020 16:04:18 8 C 37 %
2402 17-01-2020 16:14:18 8 C 37 %
2403 17-01-2020 16:24:17 8.1 C 36 %
2404 17-01-2020 16:34:17 8.1 C 37 %
2405 17-01-2020 16:44:17 7.9 C 37 %
2406 17-01-2020 16:54:17 7.8 C 38 %
2407 17-01-2020 17:04:17 7.9 C 38 %
2408 17-01-2020 17:14:17 8.5 C 35 %
2409 17-01-2020 17:24:17 8.5 C 35 %
2410 17-01-2020 17:34:17 8.4 C 34 %
2411 17-01-2020 17:44:17 8.2 C 35 %
2412 17-01-2020 17:54:17 8.5 C 34 %
2413 17-01-2020 18:04:17 8.7 C 32 %
2414 17-01-2020 18:14:18 8.5 C 33 %
2415 17-01-2020 18:24:18 8.4 C 33 %
2416 17-01-2020 18:34:18 8.3 C 33 %
2417 17-01-2020 18:44:18 8.3 C 34 %
2418 17-01-2020 18:54:18 7.8 C 35 %
2419 17-01-2020 19:04:17 7.1 C 36 %
2420 17-01-2020 19:14:17 7.6 C 35 %
2421 17-01-2020 19:24:17 6.3 C 37 %
2422 17-01-2020 19:34:17 5.9 C 40 %
2423 17-01-2020 19:44:17 5.9 C 41 %
2424 17-01-2020 19:54:17 5.9 C 42 %
2425 17-01-2020 20:04:17 6 C 42 %
Sensor: Nr:Datum:Temp:Feuchte:
Aussen-T/F 2426 17-01-2020 20:14:17 6.3 C 42 %
2427 17-01-2020 20:24:17 6.6 C 40 %
2428 17-01-2020 20:34:17 7.9 C 32 %
2429 17-01-2020 20:44:17 7.7 C 31 %
2430 17-01-2020 20:54:18 7.9 C 31 %
2431 17-01-2020 21:04:17 7.8 C 30 %
2432 17-01-2020 21:14:17 7.4 C 31 %
2433 17-01-2020 21:24:17 6.9 C 31 %
2434 17-01-2020 21:34:17 6.7 C 31 %
2435 17-01-2020 21:44:17 6.8 C 31 %
2436 17-01-2020 21:54:18 6.3 C 31 %
2437 17-01-2020 22:04:17 5.8 C 31 %
2438 17-01-2020 22:14:17 5 C 32 %
2439 17-01-2020 22:24:17 4.4 C 35 %
2440 17-01-2020 22:34:18 4.2 C 36 %
2441 17-01-2020 22:44:18 4.2 C 35 %
2442 17-01-2020 22:54:17 3.9 C 37 %
2443 17-01-2020 23:04:17 4 C 37 %
2444 17-01-2020 23:14:17 3.3 C 39 %
2445 17-01-2020 23:24:17 3.6 C 39 %
2446 17-01-2020 23:34:18 3.6 C 39 %
2447 17-01-2020 23:44:18 3.1 C 38 %
2448 17-01-2020 23:54:17 2.6 C 40 %
2449 18-01-2020 00:04:17 2.6 C 41 %
2450 18-01-2020 00:14:17 2.6 C 43 %
Sensor: Nr:Datum:Temp:Feuchte:
Aussen-T/F 2451 18-01-2020 00:24:18 2.8 C 43 %
2452 18-01-2020 00:34:17 3.2 C 43 %
2453 18-01-2020 00:44:17 3.2 C 42 %
2454 18-01-2020 00:54:17 4.2 C 36 %
2455 18-01-2020 01:04:18 4.1 C 36 %
2456 18-01-2020 01:14:18 4 C 36 %
2457 18-01-2020 01:24:17 3.7 C 37 %
2458 18-01-2020 01:34:18 3.8 C 39 %
2459 18-01-2020 01:44:18 3.9 C 39 %
2460 18-01-2020 01:54:17 4.2 C 35 %
2461 18-01-2020 02:04:17 4 C 35 %
2462 18-01-2020 02:14:17 3.4 C 39 %
2463 18-01-2020 02:24:17 3.8 C 40 %
2464 18-01-2020 02:34:17 3.3 C 39 %
2465 18-01-2020 02:44:17 3.6 C 39 %
2466 18-01-2020 02:54:18 3.9 C 36 %
2467 18-01-2020 03:04:17 4.9 C 32 %
2468 18-01-2020 03:14:17 4.9 C 31 %
2469 18-01-2020 03:24:17 4.6 C 31 %
2470 18-01-2020 03:34:17 4.4 C 31 %
2471 18-01-2020 03:44:17 4.5 C 32 %
2472 18-01-2020 03:54:17 4.3 C 32 %
2473 18-01-2020 04:04:17 4.1 C 32 %
2474 18-01-2020 04:14:17 4.1 C 32 %
2475 18-01-2020 04:24:17 4.3 C 32 %
Sensor: Nr:Datum:Temp:Feuchte:
Aussen-T/F 2476 18-01-2020 04:34:18 4.2 C 32 %
2477 18-01-2020 04:44:18 4 C 32 %
2478 18-01-2020 04:54:17 4.1 C 32 %
2479 18-01-2020 05:04:17 4.1 C 31 %
2480 18-01-2020 05:14:17 3.7 C 33 %
2481 18-01-2020 05:24:17 3.8 C 32 %
2482 18-01-2020 05:34:18 3.8 C 32 %
2483 18-01-2020 05:44:18 3.9 C 32 %
2484 18-01-2020 05:54:17 3.2 C 33 %
2485 18-01-2020 06:04:17 3.4 C 32 %
2486 18-01-2020 06:14:17 4 C 31 %
2487 18-01-2020 06:24:17 3.6 C 32 %
2488 18-01-2020 06:34:18 3.8 C 32 %
2489 18-01-2020 06:44:18 3.6 C 32 %
2490 18-01-2020 06:54:17 3.7 C 31 %
2491 18-01-2020 07:04:17 3.2 C 32 %
2492 18-01-2020 07:14:17 3.4 C 32 %
2493 18-01-2020 07:24:17 3 C 33 %
2494 18-01-2020 07:34:18 2.7 C 34 %
2495 18-01-2020 07:44:18 4 C 31 %
2496 18-01-2020 07:54:17 3.7 C 32 %
2497 18-01-2020 08:04:18 4 C 31 %
2498 18-01-2020 08:14:18 4.3 C 31 %
2499 18-01-2020 08:24:17 3.8 C 32 %
2500 18-01-2020 08:34:17 3.7 C 32 %
Sensor: Nr:Datum:Temp:Feuchte:
Aussen-T/F 2501 18-01-2020 08:44:17 3.6 C 32 %
2502 18-01-2020 08:54:17 3.6 C 32 %
2503 18-01-2020 09:04:18 4.1 C 30 %
2504 18-01-2020 09:14:18 3.9 C 32 %
2505 18-01-2020 09:24:18 4.2 C 30 %
2506 18-01-2020 09:34:17 4 C 31 %
2507 18-01-2020 09:44:17 4.1 C 31 %
2508 18-01-2020 09:54:17 4.3 C 31 %
2509 18-01-2020 10:04:17 4.6 C 30 %
2510 18-01-2020 10:14:17 4.9 C 30 %
2511 18-01-2020 10:24:17 4.7 C 30 %
2512 18-01-2020 10:34:18 4.4 C 30 %
2513 18-01-2020 10:44:18 5.1 C 30 %
2514 18-01-2020 10:54:17 5 C 29 %
2515 18-01-2020 11:04:17 5.2 C 28 %
2516 18-01-2020 11:14:17 5.3 C 27 %
2517 18-01-2020 11:24:17 5.3 C 27 %
2518 18-01-2020 11:34:18 5.5 C 27 %
2519 18-01-2020 11:44:18 5.6 C 27 %
2520 18-01-2020 11:54:17 5.6 C 27 %
2521 18-01-2020 12:04:18 6 C 27 %
2522 18-01-2020 12:14:18 6 C 26 %
2523 18-01-2020 12:24:17 5.9 C 26 %
2524 18-01-2020 12:34:17 6 C 26 %
2525 18-01-2020 12:44:17 5.7 C 26 %
Sensor: Nr:Datum:Temp:Feuchte:
Aussen-T/F 2526 18-01-2020 12:54:17 5.9 C 26 %
2527 18-01-2020 13:04:17 6.1 C 25 %
2528 18-01-2020 13:14:17 5.8 C 25 %
2529 18-01-2020 13:24:17 6 C 25 %
2530 18-01-2020 13:34:18 5.7 C 27 %
2531 18-01-2020 13:44:18 5.4 C 27 %
2532 18-01-2020 13:54:17 5.8 C 26 %
2533 18-01-2020 14:04:17 5.7 C 27 %
2534 18-01-2020 14:14:17 5.6 C 26 %
2535 18-01-2020 14:24:17 6 C 26 %
2536 18-01-2020 14:34:18 6.4 C 25 %
2537 18-01-2020 14:44:18 6.5 C 23 %
2538 18-01-2020 14:54:17 6.6 C 20 %
2539 18-01-2020 15:04:17 6.6 C 20 %
2540 18-01-2020 15:14:17 6.4 C 21 %
2541 18-01-2020 15:24:17 6.3 C 21 %
2542 18-01-2020 15:34:17 6.1 C 23 %
2543 18-01-2020 15:44:17 5.9 C 25 %
2544 18-01-2020 15:54:17 5.7 C 25 %
2545 18-01-2020 16:04:17 5.7 C 25 %
2546 18-01-2020 16:14:17 5.3 C 25 %
2547 18-01-2020 16:24:17 5.1 C 25 %
2548 18-01-2020 16:34:18 5 C 26 %
2549 18-01-2020 16:44:18 4.6 C 27 %
2550 18-01-2020 16:54:17 4.8 C 28 %
Sensor: Nr:Datum:Temp:Feuchte:
Aussen-T/F 2551 18-01-2020 17:04:17 5 C 26 %
2552 18-01-2020 17:14:17 4.7 C 27 %
2553 18-01-2020 17:24:18 4.2 C 28 %
2554 18-01-2020 17:34:17 3.5 C 31 %
2555 18-01-2020 17:44:17 3.3 C 31 %
2556 18-01-2020 17:54:17 3.1 C 32 %
2557 18-01-2020 18:04:18 2.6 C 34 %
2558 18-01-2020 18:14:18 2.3 C 36 %
2559 18-01-2020 18:24:17 2 C 37 %
2560 18-01-2020 18:34:17 2.5 C 38 %
2561 18-01-2020 18:44:17 3.2 C 33 %
2562 18-01-2020 18:54:17 3.1 C 31 %
2563 18-01-2020 19:04:18 2.5 C 32 %
2564 18-01-2020 19:14:18 1.6 C 38 %
2565 18-01-2020 19:24:18 1 C 39 %
2566 18-01-2020 19:34:17 0.7 C 41 %
2567 18-01-2020 19:44:17 0.7 C 45 %
2568 18-01-2020 19:54:17 0.7 C 45 %
2569 18-01-2020 20:04:18 0.5 C 44 %
2570 18-01-2020 20:14:18 0.4 C 45 %
2571 18-01-2020 20:24:17 0.3 C 44 %
2572 18-01-2020 20:34:18 0.2 C 43 %
2573 18-01-2020 20:44:18 0.2 C 43 %
2574 18-01-2020 20:54:17 0 C 43 %
2575 18-01-2020 21:04:17 0.3 C 44 %
Sensor: Nr:Datum:Temp:Feuchte:
Aussen-T/F 2576 18-01-2020 21:14:17 1 C 43 %
2577 18-01-2020 21:24:17 1.5 C 42 %
2578 18-01-2020 21:34:17 1.6 C 40 %
2579 18-01-2020 21:44:17 1.8 C 39 %
2580 18-01-2020 21:54:17 1.7 C 37 %
2581 18-01-2020 22:04:18 1.5 C 38 %
2582 18-01-2020 22:14:18 1.1 C 39 %
2583 18-01-2020 22:24:17 1.1 C 41 %
2584 18-01-2020 22:34:17 2 C 37 %
2585 18-01-2020 22:44:18 2 C 36 %
2586 18-01-2020 22:54:17 2.3 C 36 %
2587 18-01-2020 23:04:17 2.3 C 35 %
2588 18-01-2020 23:14:17 2.6 C 35 %
2589 18-01-2020 23:24:17 2.4 C 35 %
2590 18-01-2020 23:34:17 2.8 C 35 %
2591 18-01-2020 23:44:17 2.7 C 36 %
2592 18-01-2020 23:54:17 2.1 C 38 %
2593 19-01-2020 00:04:18 1.8 C 42 %
2594 19-01-2020 00:14:18 2.2 C 44 %
2595 19-01-2020 00:24:17 2.2 C 44 %
2596 19-01-2020 00:34:17 2.2 C 43 %
2597 19-01-2020 00:44:17 2.5 C 41 %
2598 19-01-2020 00:54:17 2.3 C 41 %
2599 19-01-2020 01:04:17 2.4 C 41 %
2600 19-01-2020 01:14:17 2.2 C 40 %
Sensor: Nr:Datum:Temp:Feuchte:
Aussen-T/F 2601 19-01-2020 01:24:17 2 C 40 %
2602 19-01-2020 01:34:17 2 C 43 %
2603 19-01-2020 01:44:17 2 C 44 %
2604 19-01-2020 01:54:18 1.9 C 45 %
2605 19-01-2020 02:04:17 2 C 44 %
2606 19-01-2020 02:14:17 1.9 C 45 %
2607 19-01-2020 02:24:17 1.9 C 45 %
2608 19-01-2020 02:34:17 1.9 C 45 %
2609 19-01-2020 02:44:17 1.6 C 45 %
2610 19-01-2020 02:54:18 1.8 C 46 %
2611 19-01-2020 03:04:17 1.9 C 46 %
2612 19-01-2020 03:14:17 2 C 45 %
2613 19-01-2020 03:24:17 2 C 45 %
2614 19-01-2020 03:34:17 2.1 C 45 %
2615 19-01-2020 03:44:17 2.1 C 45 %
2616 19-01-2020 03:54:17 2.1 C 45 %
2617 19-01-2020 04:04:17 2.1 C 45 %
2618 19-01-2020 04:14:17 2.1 C 45 %
2619 19-01-2020 04:24:17 2.1 C 45 %
2620 19-01-2020 04:34:18 2.2 C 45 %
2621 19-01-2020 04:44:18 2.1 C 44 %
2622 19-01-2020 04:54:17 2 C 44 %
2623 19-01-2020 05:04:18 2.1 C 45 %
2624 19-01-2020 05:14:18 2.2 C 45 %
2625 19-01-2020 05:24:17 2.2 C 45 %
Sensor: Nr:Datum:Temp:Feuchte:
Aussen-T/F 2626 19-01-2020 05:34:18 2.2 C 45 %
2627 19-01-2020 05:44:18 2.2 C 44 %
2628 19-01-2020 05:54:17 2.2 C 44 %
2629 19-01-2020 06:04:18 2.2 C 44 %
2630 19-01-2020 06:14:18 2.2 C 44 %
2631 19-01-2020 06:24:17 2.2 C 43 %
2632 19-01-2020 06:34:18 2.2 C 43 %
2633 19-01-2020 06:44:18 2.2 C 44 %
2634 19-01-2020 06:54:17 2.3 C 44 %
2635 19-01-2020 07:04:17 2.3 C 45 %
2636 19-01-2020 07:14:17 2.3 C 44 %
2637 19-01-2020 07:24:17 2.3 C 44 %
2638 19-01-2020 07:34:17 2.3 C 44 %
2639 19-01-2020 07:44:17 2.3 C 44 %
2640 19-01-2020 07:54:17 2.4 C 42 %
2641 19-01-2020 08:04:17 2.4 C 42 %
2642 19-01-2020 08:14:17 2.3 C 43 %
2643 19-01-2020 08:24:18 2.3 C 43 %
2644 19-01-2020 08:34:17 2.4 C 43 %
2645 19-01-2020 08:44:17 2.5 C 43 %
2646 19-01-2020 08:54:17 2.6 C 42 %
2647 19-01-2020 09:04:18 2.5 C 42 %
2648 19-01-2020 09:14:18 2.6 C 42 %
2649 19-01-2020 09:24:18 2.6 C 41 %
2650 19-01-2020 09:34:17 2.7 C 40 %
Sensor: Nr:Datum:Temp:Feuchte:
Aussen-T/F 2651 19-01-2020 09:44:17 2.7 C 40 %
2652 19-01-2020 09:54:18 2.7 C 40 %
2653 19-01-2020 10:04:18 2.7 C 40 %
2654 19-01-2020 10:14:18 2.7 C 40 %
2655 19-01-2020 10:24:17 2.9 C 38 %
2656 19-01-2020 10:34:17 3.1 C 38 %
2657 19-01-2020 10:44:17 3.3 C 36 %
2658 19-01-2020 10:54:17 3.6 C 35 %
2659 19-01-2020 11:04:18 3.4 C 36 %
2660 19-01-2020 11:14:18 3.5 C 36 %
2661 19-01-2020 11:24:18 3.4 C 36 %
2662 19-01-2020 11:34:17 3.5 C 36 %
2663 19-01-2020 11:44:17 3.8 C 35 %
2664 19-01-2020 11:54:17 4.1 C 33 %
2665 19-01-2020 12:04:18 4.1 C 33 %
2666 19-01-2020 12:14:18 4 C 33 %
2667 19-01-2020 12:24:18 3.8 C 35 %
2668 19-01-2020 12:34:17 4.1 C 35 %
2669 19-01-2020 12:44:17 4.1 C 34 %
2670 19-01-2020 12:54:18 4.1 C 34 %
2671 19-01-2020 13:04:17 4.1 C 34 %
2672 19-01-2020 13:14:17 4.4 C 33 %
2673 19-01-2020 13:24:17 4.1 C 33 %
2674 19-01-2020 13:34:18 4.1 C 34 %
2675 19-01-2020 13:44:18 4.2 C 33 %
Sensor: Nr:Datum:Temp:Feuchte:
Aussen-T/F 2676 19-01-2020 13:54:17 4.5 C 34 %
2677 19-01-2020 14:04:17 5.2 C 32 %
2678 19-01-2020 14:14:17 4.8 C 32 %
2679 19-01-2020 14:24:17 4.7 C 32 %
2680 19-01-2020 14:34:17 4.5 C 31 %
2681 19-01-2020 14:44:17 4.5 C 31 %
2682 19-01-2020 14:54:18 4.7 C 31 %
2683 19-01-2020 15:04:17 4.5 C 31 %
2684 19-01-2020 15:14:17 4.5 C 32 %
2685 19-01-2020 15:24:17 4.5 C 32 %
2686 19-01-2020 15:34:17 4.6 C 31 %
2687 19-01-2020 15:44:17 4.8 C 31 %
2688 19-01-2020 15:54:18 4.4 C 31 %
2689 19-01-2020 16:04:17 4.1 C 32 %
2690 19-01-2020 16:14:17 4.1 C 32 %
2691 19-01-2020 16:24:17 4.1 C 34 %
2692 19-01-2020 16:34:18 4.1 C 35 %
2693 19-01-2020 16:44:18 3.8 C 36 %
2694 19-01-2020 16:54:17 3.6 C 39 %
2695 19-01-2020 17:04:18 3.5 C 42 %
2696 19-01-2020 17:14:18 3.4 C 43 %
2697 19-01-2020 17:24:18 3.3 C 45 %
2698 19-01-2020 17:34:18 3.3 C 45 %
2699 19-01-2020 17:44:18 3.3 C 45 %
2700 19-01-2020 17:54:17 3.4 C 44 %
Sensor: Nr:Datum:Temp:Feuchte:
Aussen-T/F 2701 19-01-2020 18:04:18 3.3 C 44 %
2702 19-01-2020 18:14:18 3.4 C 43 %
2703 19-01-2020 18:24:18 3.2 C 44 %
2704 19-01-2020 18:34:17 3.3 C 45 %
2705 19-01-2020 18:44:17 3.4 C 44 %
2706 19-01-2020 18:54:17 3.4 C 44 %
2707 19-01-2020 19:04:18 3.3 C 44 %
2708 19-01-2020 19:14:18 3.4 C 43 %
2709 19-01-2020 19:24:17 3.4 C 43 %
2710 19-01-2020 19:34:18 3.4 C 43 %
2711 19-01-2020 19:44:18 3.3 C 43 %
2712 19-01-2020 19:54:17 3.3 C 44 %
2713 19-01-2020 20:04:17 3.2 C 44 %
2714 19-01-2020 20:14:17 3.2 C 44 %
2715 19-01-2020 20:25:17 3.3 C 44 %
2716 19-01-2020 20:34:18 3.3 C 44 %
2717 19-01-2020 20:44:18 3.3 C 44 %
2718 19-01-2020 20:54:17 3.2 C 44 %
2719 19-01-2020 21:14:17 3.2 C 43 %
2720 19-01-2020 21:14:17 3.2 C 43 %
2721 19-01-2020 21:24:17 3.2 C 44 %
2722 19-01-2020 21:34:18 3.2 C 44 %
2723 19-01-2020 21:44:18 3.1 C 44 %
2724 19-01-2020 21:54:17 3.2 C 44 %
2725 19-01-2020 22:04:17 3.1 C 44 %
Sensor: Nr:Datum:Temp:Feuchte:
Aussen-T/F 2726 19-01-2020 22:14:17 3.1 C 44 %
2727 19-01-2020 22:24:17 3.2 C 44 %
2728 19-01-2020 22:34:17 3.3 C 44 %
2729 19-01-2020 22:44:17 3.3 C 43 %
2730 19-01-2020 22:55:17 3.3 C 43 %
2731 19-01-2020 23:05:17 3.2 C 42 %
2732 19-01-2020 23:14:18 2.8 C 43 %
2733 19-01-2020 23:24:18 2.2 C 43 %
2734 19-01-2020 23:35:17 2.2 C 44 %
2735 19-01-2020 23:44:17 2.1 C 45 %
2736 19-01-2020 23:54:17 2 C 45 %
2737 20-01-2020 00:05:17 2.1 C 45 %
2738 20-01-2020 00:14:18 2.4 C 45 %
2739 20-01-2020 00:24:18 2.1 C 45 %
2740 20-01-2020 00:34:17 2.5 C 45 %
2741 20-01-2020 00:44:18 2.5 C 45 %
2742 20-01-2020 00:55:17 2.5 C 45 %
2743 20-01-2020 01:04:18 2.3 C 45 %
2744 20-01-2020 01:14:18 2.4 C 45 %
2745 20-01-2020 01:24:18 2.2 C 45 %
2746 20-01-2020 01:34:17 2.5 C 45 %
2747 20-01-2020 01:44:17 2.4 C 45 %
2748 20-01-2020 01:55:17 2.2 C 45 %
2749 20-01-2020 02:05:18 1.7 C 45 %
2750 20-01-2020 02:15:18 1.7 C 45 %
Sensor: Nr:Datum:Temp:Feuchte:
Aussen-T/F 2751 20-01-2020 02:25:18 1.6 C 45 %
2752 20-01-2020 02:35:17 1.8 C 46 %
2753 20-01-2020 02:45:17 1.9 C 46 %
2754 20-01-2020 02:55:17 2.1 C 45 %
2755 20-01-2020 03:05:17 2 C 45 %
2756 20-01-2020 03:15:17 1.5 C 45 %
2757 20-01-2020 03:25:17 1.3 C 45 %
2758 20-01-2020 03:35:17 1.3 C 45 %
2759 20-01-2020 03:45:17 0.8 C 46 %
2760 20-01-2020 03:55:17 1 C 45 %
2761 20-01-2020 04:05:18 1.5 C 46 %
2762 20-01-2020 04:15:17 1.6 C 46 %
2763 20-01-2020 04:25:17 1.8 C 46 %
2764 20-01-2020 04:35:17 1.8 C 46 %
2765 20-01-2020 04:45:17 1.5 C 45 %
2766 20-01-2020 04:55:18 1.4 C 45 %
2767 20-01-2020 05:05:17 1.6 C 45 %
2768 20-01-2020 05:15:17 1.6 C 45 %
2769 20-01-2020 05:25:17 1.8 C 45 %
2770 20-01-2020 05:35:18 1.5 C 45 %
2771 20-01-2020 05:45:17 1.2 C 45 %
2772 20-01-2020 05:55:17 1.4 C 45 %
2773 20-01-2020 06:05:18 1.3 C 45 %
2774 20-01-2020 06:15:17 1.2 C 45 %
2775 20-01-2020 06:25:17 1.2 C 45 %
Sensor: Nr:Datum:Temp:Feuchte:
Aussen-T/F 2776 20-01-2020 06:35:17 1.4 C 45 %
2777 20-01-2020 06:45:18 1.4 C 45 %
2778 20-01-2020 06:55:18 1.3 C 45 %
2779 20-01-2020 07:05:17 1.1 C 45 %
2780 20-01-2020 07:15:17 1 C 45 %
2781 20-01-2020 07:25:17 1.1 C 45 %
2782 20-01-2020 07:35:17 0.7 C 46 %
2783 20-01-2020 07:45:17 0.4 C 46 %
2784 20-01-2020 07:55:17 0.2 C 46 %
2785 20-01-2020 08:05:18 0.1 C 46 %
2786 20-01-2020 08:15:18 0.4 C 46 %
2787 20-01-2020 08:25:18 0.8 C 46 %
2788 20-01-2020 08:35:17 0.6 C 46 %
2789 20-01-2020 08:45:17 1.3 C 45 %
2790 20-01-2020 08:55:17 1.4 C 45 %
2791 20-01-2020 09:05:17 1.5 C 45 %
2792 20-01-2020 09:15:17 1.7 C 45 %
2793 20-01-2020 09:25:17 1.9 C 45 %
2794 20-01-2020 09:35:17 2.2 C 45 %
2795 20-01-2020 09:45:18 2.3 C 45 %
2796 20-01-2020 09:55:18 2.5 C 45 %
2797 20-01-2020 10:05:18 2.8 C 45 %
2798 20-01-2020 10:15:17 2.7 C 45 %
2799 20-01-2020 10:25:17 3 C 43 %
2800 20-01-2020 10:35:17 3.5 C 43 %
Sensor: Nr:Datum:Temp:Feuchte:
Aussen-T/F 2801 20-01-2020 10:45:17 3.7 C 43 %
2802 20-01-2020 10:55:17 3.9 C 43 %
2803 20-01-2020 11:05:18 4 C 41 %
2804 20-01-2020 11:15:18 4.2 C 40 %
2805 20-01-2020 11:25:18 4.5 C 37 %
2806 20-01-2020 11:35:18 4.5 C 35 %
2807 20-01-2020 11:45:17 4.6 C 36 %
2808 20-01-2020 11:55:17 5 C 35 %
2809 20-01-2020 12:05:17 5.1 C 34 %
2810 20-01-2020 12:15:18 5.1 C 30 %
2811 20-01-2020 12:25:18 4.9 C 30 %
2812 20-01-2020 12:35:18 5 C 26 %
2813 20-01-2020 12:45:17 5.1 C 25 %
2814 20-01-2020 12:55:17 5.2 C 21 %
2815 20-01-2020 13:05:17 5.3 C 20 %
2816 20-01-2020 13:15:17 5.6 C 21 %
2817 20-01-2020 13:25:17 5.7 C 20 %
2818 20-01-2020 13:35:17 6.1 C 20 %
2819 20-01-2020 13:45:17 5.8 C 20 %
2820 20-01-2020 13:55:18 5.7 C 20 %
2821 20-01-2020 14:05:17 5.7 C 20 %
2822 20-01-2020 14:15:17 5.9 C 20 %
2823 20-01-2020 14:25:17 6 C 20 %
2824 20-01-2020 14:35:17 5.8 C 20 %
2825 20-01-2020 14:45:18 5.7 C 20 %
Sensor: Nr:Datum:Temp:Feuchte:
Aussen-T/F 2826 20-01-2020 14:55:18 5.6 C 20 %
2827 20-01-2020 15:05:17 5 C 20 %
2828 20-01-2020 15:15:17 4.8 C 25 %
2829 20-01-2020 15:25:17 4.9 C 20 %
2830 20-01-2020 15:35:17 5.2 C 20 %
2831 20-01-2020 15:45:17 5 C 20 %
2832 20-01-2020 15:55:18 4.8 C 20 %
2833 20-01-2020 16:05:17 4 C 26 %
2834 20-01-2020 16:15:17 3.9 C 29 %
2835 20-01-2020 16:25:17 3.7 C 30 %
2836 20-01-2020 16:35:17 3.4 C 31 %
2837 20-01-2020 16:45:18 3.1 C 30 %
2838 20-01-2020 16:55:18 2.6 C 31 %
2839 20-01-2020 17:05:17 2.2 C 30 %
2840 20-01-2020 17:15:17 1.9 C 32 %
2841 20-01-2020 17:25:17 1.8 C 32 %
2842 20-01-2020 17:35:17 1.6 C 33 %
2843 20-01-2020 17:45:18 1.2 C 34 %
2844 20-01-2020 17:55:18 1 C 35 %
2845 20-01-2020 18:05:18 0.8 C 36 %
2846 20-01-2020 18:15:17 0.4 C 38 %
2847 20-01-2020 18:25:17 0.1 C 40 %
2848 20-01-2020 18:35:17 0.2 C 40 %
2849 20-01-2020 18:45:17 0.2 C 40 %
2850 20-01-2020 18:55:17 -0.1 C 40 %
Sensor: Nr:Datum:Temp:Feuchte:
Aussen-T/F 2851 20-01-2020 19:05:18 -0.6 C 40 %
2852 20-01-2020 19:15:17 -1 C 41 %
2853 20-01-2020 19:25:18 -1.2 C 42 %
2854 20-01-2020 19:35:17 -1.2 C 43 %
2855 20-01-2020 19:45:17 -1.3 C 44 %
2856 20-01-2020 19:55:17 -1.5 C 44 %
2857 20-01-2020 20:05:18 -1.4 C 45 %
2858 20-01-2020 20:15:17 -1.4 C 45 %
2859 20-01-2020 20:25:17 -1.7 C 44 %
2860 20-01-2020 20:35:17 -1.8 C 45 %
2861 20-01-2020 20:45:18 -2 C 45 %
2862 20-01-2020 20:55:18 -2.1 C 45 %
2863 20-01-2020 21:05:18 -2.2 C 45 %
2864 20-01-2020 21:15:17 -2.3 C 45 %
2865 20-01-2020 21:25:17 -2.3 C 45 %
2866 20-01-2020 21:35:17 -2.3 C 45 %
2867 20-01-2020 21:45:17 -2.5 C 45 %
2868 20-01-2020 21:55:17 -2.5 C 45 %
2869 20-01-2020 22:05:18 -2.5 C 45 %
2870 20-01-2020 22:15:18 -2.7 C 45 %
2871 20-01-2020 22:25:18 -2.7 C 45 %
2872 20-01-2020 22:35:17 -2.7 C 46 %
2873 20-01-2020 22:45:17 -2.8 C 45 %
2874 20-01-2020 22:55:17 -2.8 C 45 %
2875 20-01-2020 23:05:17 -2.9 C 45 %
Sensor: Nr:Datum:Temp:Feuchte:
Aussen-T/F 2876 20-01-2020 23:15:17 -2.7 C 45 %
2877 20-01-2020 23:25:17 -2.9 C 45 %
2878 20-01-2020 23:35:18 -3.1 C 44 %
2879 20-01-2020 23:45:17 -2.6 C 45 %
2880 20-01-2020 23:55:17 -2.8 C 45 %
2881 21-01-2020 00:05:17 -2.5 C 45 %
2882 21-01-2020 00:15:18 -3 C 43 %
2883 21-01-2020 00:25:18 -3.1 C 44 %
2884 21-01-2020 00:35:17 -3.1 C 44 %
2885 21-01-2020 00:45:17 -3 C 44 %
2886 21-01-2020 00:55:17 -3.1 C 44 %
2887 21-01-2020 01:05:17 -3.3 C 44 %
2888 21-01-2020 01:15:17 -3.1 C 44 %
2889 21-01-2020 01:25:17 -3.3 C 44 %
2890 21-01-2020 01:35:18 -3.1 C 45 %
2891 21-01-2020 01:45:17 -3.3 C 44 %
2892 21-01-2020 01:55:17 -3.5 C 43 %
2893 21-01-2020 02:05:17 -3.6 C 43 %
2894 21-01-2020 02:15:17 -3.5 C 45 %
2895 21-01-2020 02:25:17 -3.7 C 44 %
2896 21-01-2020 02:35:17 -3.7 C 44 %
2897 21-01-2020 02:45:18 -3.8 C 44 %
2898 21-01-2020 02:55:18 -3.6 C 44 %
2899 21-01-2020 03:05:17 -3.9 C 43 %
2900 21-01-2020 03:15:17 -3.8 C 44 %
Sensor: Nr:Datum:Temp:Feuchte:
Aussen-T/F 2901 21-01-2020 03:25:17 -3.9 C 43 %
2902 21-01-2020 03:35:17 -4.2 C 43 %
2903 21-01-2020 03:45:17 -4.4 C 42 %
2904 21-01-2020 03:55:17 -4.3 C 43 %
2905 21-01-2020 04:05:18 -4.4 C 42 %
2906 21-01-2020 04:15:17 -4.5 C 42 %
2907 21-01-2020 04:25:17 -4.2 C 43 %
2908 21-01-2020 04:35:17 -4.3 C 43 %
2909 21-01-2020 04:45:17 -4.3 C 43 %
2910 21-01-2020 04:55:17 -4.5 C 43 %
2911 21-01-2020 05:05:18 -4.4 C 43 %
2912 21-01-2020 05:15:17 -4.5 C 43 %
2913 21-01-2020 05:25:17 -4.3 C 44 %
2914 21-01-2020 05:35:17 -4 C 45 %
2915 21-01-2020 05:45:17 -4.1 C 44 %
2916 21-01-2020 05:55:17 -3.9 C 45 %
2917 21-01-2020 06:05:18 -3.9 C 45 %
2918 21-01-2020 06:15:17 -3.7 C 45 %
2919 21-01-2020 06:25:17 -3.7 C 45 %
2920 21-01-2020 06:35:17 -3.5 C 45 %
2921 21-01-2020 06:45:17 -3.5 C 45 %
2922 21-01-2020 06:55:17 -3.3 C 45 %
2923 21-01-2020 07:05:17 -3.6 C 45 %
2924 21-01-2020 07:15:17 -3.6 C 45 %
2925 21-01-2020 07:25:17 -3.5 C 45 %
Sensor: Nr:Datum:Temp:Feuchte:
Aussen-T/F 2926 21-01-2020 07:35:17 -3.5 C 45 %
2927 21-01-2020 07:45:18 -3.5 C 45 %
2928 21-01-2020 07:55:18 -3.6 C 45 %
2929 21-01-2020 08:05:17 -3.3 C 45 %
2930 21-01-2020 08:15:17 -3.6 C 45 %
2931 21-01-2020 08:25:17 -3.5 C 45 %
2932 21-01-2020 08:35:17 -3.7 C 45 %
2933 21-01-2020 08:45:17 -3.8 C 45 %
2934 21-01-2020 08:55:18 -3.6 C 45 %
2935 21-01-2020 09:05:17 -3.6 C 45 %
2936 21-01-2020 09:15:17 -3.7 C 45 %
2937 21-01-2020 09:25:17 -3.5 C 45 %
2938 21-01-2020 09:35:17 -3.7 C 44 %
2939 21-01-2020 09:45:17 -3.9 C 44 %
2940 21-01-2020 09:55:17 -3.7 C 44 %
2941 21-01-2020 10:05:17 -3.6 C 45 %
2942 21-01-2020 10:15:18 -3.3 C 45 %
2943 21-01-2020 10:25:18 -3.1 C 45 %
2944 21-01-2020 10:35:17 -3 C 45 %
2945 21-01-2020 10:45:17 -3 C 44 %
2946 21-01-2020 10:55:17 -2.7 C 44 %
2947 21-01-2020 11:05:17 -3 C 44 %
2948 21-01-2020 11:15:17 -2.9 C 44 %
2949 21-01-2020 11:25:17 -2.5 C 45 %
2950 21-01-2020 11:35:17 -2.2 C 44 %
Sensor: Nr:Datum:Temp:Feuchte:
Aussen-T/F 2951 21-01-2020 11:45:18 -2 C 44 %
2952 21-01-2020 11:55:18 -1.6 C 45 %
2953 21-01-2020 12:05:18 -1.5 C 45 %
2954 21-01-2020 12:15:17 -1.5 C 45 %
2955 21-01-2020 12:25:17 -1.7 C 45 %
2956 21-01-2020 12:35:17 -1.2 C 46 %
2957 21-01-2020 12:45:18 -1.2 C 45 %
2958 21-01-2020 12:55:18 -1.2 C 45 %
2959 21-01-2020 13:05:18 -0.9 C 46 %
2960 21-01-2020 13:15:17 -1 C 45 %
2961 21-01-2020 13:25:18 -0.9 C 45 %
2962 21-01-2020 13:35:17 -0.7 C 45 %
2963 21-01-2020 13:45:17 -0.6 C 46 %
2964 21-01-2020 13:55:17 -0.8 C 45 %
2965 21-01-2020 14:05:17 -0.6 C 46 %
2966 21-01-2020 14:15:17 -0.3 C 46 %
2967 21-01-2020 14:25:17 -0.2 C 46 %
2968 21-01-2020 14:35:18 -0.3 C 46 %
2969 21-01-2020 14:45:18 -0.3 C 46 %
2970 21-01-2020 14:55:18 -0.3 C 46 %
2971 21-01-2020 15:05:17 -0.5 C 46 %
2972 21-01-2020 15:15:17 -0.6 C 46 %
2973 21-01-2020 15:25:17 -0.5 C 46 %
2974 21-01-2020 15:35:17 -0.4 C 46 %
2975 21-01-2020 15:45:17 -0.4 C 46 %
Sensor: Nr:Datum:Temp:Feuchte:
Aussen-T/F 2976 21-01-2020 15:55:18 -0.6 C 46 %
2977 21-01-2020 16:05:17 -0.8 C 46 %
2978 21-01-2020 16:15:17 -0.9 C 46 %
2979 21-01-2020 16:25:17 -0.9 C 46 %
2980 21-01-2020 16:35:17 -0.9 C 46 %
2981 21-01-2020 16:45:17 -1 C 46 %
2982 21-01-2020 16:55:17 -1.3 C 46 %
2983 21-01-2020 17:05:18 -1.4 C 46 %
2984 21-01-2020 17:15:17 -1.4 C 46 %
2985 21-01-2020 17:25:17 -1.5 C 46 %
2986 21-01-2020 17:35:17 -1.6 C 46 %
2987 21-01-2020 17:45:17 -1.7 C 46 %
2988 21-01-2020 17:55:18 -1.8 C 46 %
2989 21-01-2020 18:05:17 -1.9 C 46 %
2990 21-01-2020 18:15:17 -2.2 C 45 %
2991 21-01-2020 18:25:17 -2.2 C 45 %
2992 21-01-2020 18:35:17 -2.3 C 45 %
2993 21-01-2020 18:45:17 -2.4 C 45 %
2994 21-01-2020 18:55:17 -2.5 C 45 %
2995 21-01-2020 19:05:17 -2.1 C 46 %
2996 21-01-2020 19:15:17 -2.1 C 46 %
2997 21-01-2020 19:25:17 -2.3 C 45 %
2998 21-01-2020 19:35:17 -2.3 C 45 %
2999 21-01-2020 19:45:17 -2.3 C 45 %
3000 21-01-2020 19:55:18 -2.4 C 45 %
Sensor: Nr:Datum:Temp:Feuchte:
Aussen-T/F 3001 21-01-2020 20:05:18 -2.4 C 45 %
3002 21-01-2020 20:15:17 -2.5 C 45 %
3003 21-01-2020 20:25:17 -2.7 C 45 %
3004 21-01-2020 20:35:17 -2.5 C 45 %
3005 21-01-2020 20:45:18 -2.6 C 45 %
3006 21-01-2020 20:55:18 -2.7 C 45 %
3007 21-01-2020 21:05:18 -3 C 45 %
3008 21-01-2020 21:15:17 -3 C 45 %
3009 21-01-2020 21:25:18 -3 C 45 %
3010 21-01-2020 21:35:17 -2.9 C 45 %
3011 21-01-2020 21:45:17 -2.8 C 45 %
3012 21-01-2020 21:55:17 -2.7 C 45 %
3013 21-01-2020 22:05:18 -2.7 C 45 %
3014 21-01-2020 22:15:18 -2.9 C 45 %
3015 21-01-2020 22:25:18 -2.9 C 45 %
3016 21-01-2020 22:35:18 -3 C 45 %
3017 21-01-2020 22:45:17 -3.2 C 45 %
3018 21-01-2020 22:55:17 -3.3 C 45 %
3019 21-01-2020 23:05:18 -3.4 C 45 %
3020 21-01-2020 23:15:17 -3.2 C 45 %
3021 21-01-2020 23:25:18 -3.2 C 45 %
3022 21-01-2020 23:35:17 -3.2 C 45 %
3023 21-01-2020 23:45:17 -3.2 C 45 %
3024 21-01-2020 23:55:17 -3.2 C 45 %
3025 22-01-2020 00:05:17 -3.4 C 45 %
Sensor: Nr:Datum:Temp:Feuchte:
Aussen-T/F 3026 22-01-2020 00:15:17 -3.6 C 45 %
3027 22-01-2020 00:25:17 -3.8 C 45 %
3028 22-01-2020 00:35:17 -3.5 C 45 %
3029 22-01-2020 00:45:18 -3.4 C 45 %
3030 22-01-2020 00:55:18 -3.3 C 45 %
3031 22-01-2020 01:05:17 -3.5 C 45 %
3032 22-01-2020 01:15:18 -3.4 C 45 %
3033 22-01-2020 01:25:18 -3.5 C 45 %
3034 22-01-2020 01:35:17 -3.6 C 45 %
3035 22-01-2020 01:45:17 -3.6 C 45 %
3036 22-01-2020 01:55:17 -3.7 C 45 %
3037 22-01-2020 02:05:18 -3.8 C 45 %
3038 22-01-2020 02:15:18 -3.8 C 45 %
3039 22-01-2020 02:25:18 -3.9 C 45 %
3040 22-01-2020 02:35:18 -3.9 C 45 %
3041 22-01-2020 02:45:17 -3.9 C 45 %
3042 22-01-2020 02:55:17 -4 C 45 %
3043 22-01-2020 03:05:17 -4.1 C 44 %
3044 22-01-2020 03:15:17 -3.9 C 45 %
3045 22-01-2020 03:25:17 -3.9 C 45 %
3046 22-01-2020 03:35:18 -3.9 C 45 %
3047 22-01-2020 03:45:17 -3.9 C 45 %
3048 22-01-2020 03:55:17 -4 C 45 %
3049 22-01-2020 04:05:17 -3.9 C 45 %
3050 22-01-2020 04:15:18 -4 C 45 %
Sensor: Nr:Datum:Temp:Feuchte:
Aussen-T/F 3051 22-01-2020 04:25:18 -4 C 45 %
3052 22-01-2020 04:35:17 -3.9 C 45 %
3053 22-01-2020 04:45:17 -4 C 45 %
3054 22-01-2020 04:55:17 -3.9 C 45 %
3055 22-01-2020 05:05:17 -4 C 45 %
3056 22-01-2020 05:15:17 -3.9 C 45 %
3057 22-01-2020 05:25:17 -4 C 44 %
3058 22-01-2020 05:35:18 -3.9 C 44 %
3059 22-01-2020 05:45:17 -3.8 C 45 %
3060 22-01-2020 05:55:17 -3.9 C 45 %
3061 22-01-2020 06:05:17 -3.9 C 45 %
3062 22-01-2020 06:15:17 -3.9 C 44 %
3063 22-01-2020 06:25:17 -4 C 44 %
3064 22-01-2020 06:35:18 -4 C 44 %
3065 22-01-2020 06:45:17 -3.9 C 44 %
3066 22-01-2020 06:55:17 -3.8 C 44 %
3067 22-01-2020 07:05:17 -3.8 C 44 %
3068 22-01-2020 07:15:17 -3.5 C 45 %
3069 22-01-2020 07:25:17 -3.7 C 45 %
3070 22-01-2020 07:35:17 -3.5 C 45 %
3071 22-01-2020 07:45:18 -3.4 C 45 %
3072 22-01-2020 07:55:18 -3.4 C 45 %
3073 22-01-2020 08:05:17 -3.3 C 45 %
3074 22-01-2020 08:15:17 -3.6 C 45 %
3075 22-01-2020 08:25:17 -3.5 C 45 %
Sensor: Nr:Datum:Temp:Feuchte:
Aussen-T/F 3076 22-01-2020 08:35:18 -3.5 C 45 %
3077 22-01-2020 08:45:17 -3.4 C 45 %
3078 22-01-2020 08:55:17 -3.3 C 45 %
3079 22-01-2020 09:05:17 -3.3 C 45 %
3080 22-01-2020 09:15:17 -3.2 C 45 %
3081 22-01-2020 09:25:17 -3.2 C 45 %
3082 22-01-2020 09:35:18 -2.9 C 45 %
3083 22-01-2020 09:45:17 -2.9 C 44 %
3084 22-01-2020 09:55:17 -3 C 44 %
3085 22-01-2020 10:05:17 -2.9 C 45 %
3086 22-01-2020 10:15:17 -3 C 45 %
3087 22-01-2020 10:25:17 -3 C 45 %
3088 22-01-2020 10:35:17 -3 C 44 %
3089 22-01-2020 10:45:17 -2.9 C 45 %
3090 22-01-2020 10:55:17 -3.1 C 45 %
3091 22-01-2020 11:05:18 -3 C 45 %
3092 22-01-2020 11:15:18 -2.8 C 45 %
3093 22-01-2020 11:25:18 -2.5 C 45 %
3094 22-01-2020 11:35:17 -2 C 45 %
3095 22-01-2020 11:45:17 -1.9 C 44 %
3096 22-01-2020 11:55:17 -1.3 C 44 %
3097 22-01-2020 12:05:17 -1.8 C 42 %
3098 22-01-2020 12:15:17 -1.5 C 43 %
3099 22-01-2020 12:25:17 -1.1 C 45 %
3100 22-01-2020 12:35:18 -1 C 45 %
Sensor: Nr:Datum:Temp:Feuchte:
Aussen-T/F 3101 22-01-2020 12:45:17 -1.4 C 43 %
3102 22-01-2020 12:55:17 -1.2 C 44 %
3103 22-01-2020 13:05:17 -1.3 C 44 %
3104 22-01-2020 13:15:17 -1 C 44 %
3105 22-01-2020 13:25:17 -0.8 C 44 %
3106 22-01-2020 13:35:18 -0.6 C 44 %
3107 22-01-2020 13:45:17 -0.3 C 44 %
3108 22-01-2020 13:55:17 -0.2 C 43 %
3109 22-01-2020 14:05:17 -0.5 C 42 %
3110 22-01-2020 14:15:17 -0.7 C 41 %
3111 22-01-2020 14:25:17 -0.5 C 43 %
3112 22-01-2020 14:35:17 -0.6 C 42 %
3113 22-01-2020 14:45:17 -0.4 C 43 %
3114 22-01-2020 14:55:17 -0.6 C 42 %
3115 22-01-2020 15:05:18 -0.5 C 42 %
3116 22-01-2020 15:15:17 -0.6 C 41 %
3117 22-01-2020 15:25:17 -0.5 C 42 %
3118 22-01-2020 15:35:17 -0.5 C 41 %
3119 22-01-2020 15:45:18 -0.3 C 42 %
3120 22-01-2020 15:55:18 -0.3 C 42 %
3121 22-01-2020 16:05:17 -0.3 C 42 %
3122 22-01-2020 16:15:17 -0.2 C 43 %
3123 22-01-2020 16:25:17 -0.2 C 43 %
3124 22-01-2020 16:35:17 -0.3 C 42 %
3125 22-01-2020 16:45:17 -0.4 C 43 %
Sensor: Nr:Datum:Temp:Feuchte:
Aussen-T/F 3126 22-01-2020 16:55:18 -0.4 C 44 %
3127 22-01-2020 17:05:17 -0.4 C 45 %
3128 22-01-2020 17:15:18 -0.4 C 45 %
3129 22-01-2020 17:25:18 -0.5 C 45 %
3130 22-01-2020 17:35:17 -0.4 C 46 %
3131 22-01-2020 17:45:17 -0.4 C 46 %
3132 22-01-2020 17:55:17 -0.4 C 46 %
3133 22-01-2020 18:05:18 -0.4 C 46 %
3134 22-01-2020 18:15:17 -0.5 C 45 %
3135 22-01-2020 18:25:18 -0.6 C 46 %
3136 22-01-2020 18:35:17 -0.6 C 46 %
3137 22-01-2020 18:45:17 -0.5 C 46 %
3138 22-01-2020 18:55:17 -0.5 C 46 %
3139 22-01-2020 19:05:17 -0.4 C 46 %
3140 22-01-2020 19:15:17 -0.4 C 46 %
3141 22-01-2020 19:25:17 -0.3 C 46 %
3142 22-01-2020 19:35:17 -0.3 C 46 %
3143 22-01-2020 19:45:17 -0.3 C 46 %
3144 22-01-2020 19:55:17 -0.2 C 46 %
3145 22-01-2020 20:05:18 -0.2 C 46 %
3146 22-01-2020 20:15:17 -0.2 C 46 %
3147 22-01-2020 20:25:17 -0.2 C 46 %
3148 22-01-2020 20:35:17 -0.2 C 46 %
3149 22-01-2020 20:45:17 -0.2 C 46 %
3150 22-01-2020 20:55:17 -0.2 C 46 %
Sensor: Nr:Datum:Temp:Feuchte:
Aussen-T/F 3151 22-01-2020 21:05:18 -0.2 C 46 %
3152 22-01-2020 21:15:17 -0.1 C 46 %
3153 22-01-2020 21:25:18 -0.2 C 46 %
3154 22-01-2020 21:35:17 -0.1 C 46 %
3155 22-01-2020 21:45:18 -0.1 C 46 %
3156 22-01-2020 21:55:18 -0.1 C 46 %
3157 22-01-2020 22:05:17 -0.1 C 46 %
3158 22-01-2020 22:15:17 -0.1 C 46 %
3159 22-01-2020 22:25:17 0 C 46 %
3160 22-01-2020 22:35:18 -0.1 C 46 %
3161 22-01-2020 22:45:17 0 C 46 %
3162 22-01-2020 22:55:17 0 C 46 %
3163 22-01-2020 23:05:17 0 C 46 %
3164 22-01-2020 23:15:17 0 C 46 %
3165 22-01-2020 23:25:17 0 C 46 %
3166 22-01-2020 23:35:17 0.1 C 46 %
3167 22-01-2020 23:45:17 0.1 C 46 %
3168 22-01-2020 23:55:17 0.1 C 46 %
3169 23-01-2020 00:05:17 0.1 C 46 %
3170 23-01-2020 00:15:17 0.1 C 46 %
3171 23-01-2020 00:25:17 0.1 C 46 %
3172 23-01-2020 00:35:18 0.1 C 46 %
3173 23-01-2020 00:45:17 0.1 C 46 %
3174 23-01-2020 00:55:17 0.1 C 46 %
3175 23-01-2020 01:05:18 0.1 C 46 %
Sensor: Nr:Datum:Temp:Feuchte:
Aussen-T/F 3176 23-01-2020 01:15:18 0.1 C 46 %
3177 23-01-2020 01:25:18 0.2 C 46 %
3178 23-01-2020 01:35:17 0.1 C 46 %
3179 23-01-2020 01:45:17 0.1 C 46 %
3180 23-01-2020 01:55:18 0.2 C 46 %
3181 23-01-2020 02:05:17 0.2 C 46 %
3182 23-01-2020 02:15:17 0.2 C 46 %
3183 23-01-2020 02:25:17 0.2 C 46 %
3184 23-01-2020 02:35:17 0.3 C 46 %
3185 23-01-2020 02:45:17 0.2 C 46 %
3186 23-01-2020 02:55:18 0.2 C 46 %
3187 23-01-2020 03:05:17 0.3 C 46 %
3188 23-01-2020 03:15:17 0.3 C 46 %
3189 23-01-2020 03:25:17 0.3 C 46 %
3190 23-01-2020 03:35:17 0.3 C 46 %
3191 23-01-2020 03:45:17 0.3 C 46 %
3192 23-01-2020 03:55:18 0.3 C 46 %
3193 23-01-2020 04:05:17 0.3 C 46 %
3194 23-01-2020 04:15:17 0.3 C 46 %
3195 23-01-2020 04:25:17 0.3 C 46 %
3196 23-01-2020 04:35:18 0.3 C 46 %
3197 23-01-2020 04:45:17 0.4 C 46 %
3198 23-01-2020 04:55:17 0.3 C 46 %
3199 23-01-2020 05:05:17 0.4 C 46 %
3200 23-01-2020 05:15:18 0.3 C 46 %
Sensor: Nr:Datum:Temp:Feuchte:
Aussen-T/F 3201 23-01-2020 05:25:18 0.3 C 46 %
3202 23-01-2020 05:35:17 0.3 C 46 %
3203 23-01-2020 05:45:17 0.3 C 46 %
3204 23-01-2020 05:55:17 0.4 C 46 %
3205 23-01-2020 06:05:18 0.4 C 46 %
3206 23-01-2020 06:15:17 0.4 C 46 %
3207 23-01-2020 06:25:18 0.4 C 46 %
3208 23-01-2020 06:35:17 0.5 C 46 %
3209 23-01-2020 06:45:17 0.5 C 46 %
3210 23-01-2020 06:55:17 0.5 C 46 %
3211 23-01-2020 07:05:17 0.5 C 46 %
3212 23-01-2020 07:15:17 0.5 C 46 %
3213 23-01-2020 07:25:17 0.5 C 46 %
3214 23-01-2020 07:35:18 0.5 C 46 %
3215 23-01-2020 07:45:17 0.6 C 46 %
3216 23-01-2020 07:55:17 0.6 C 46 %
3217 23-01-2020 08:05:17 0.6 C 46 %
3218 23-01-2020 08:15:17 0.7 C 46 %
3219 23-01-2020 08:25:17 0.7 C 46 %
3220 23-01-2020 08:35:18 0.7 C 46 %
3221 23-01-2020 08:45:17 0.7 C 46 %
3222 23-01-2020 08:55:17 0.8 C 46 %
3223 23-01-2020 09:05:17 0.8 C 46 %
3224 23-01-2020 09:15:17 0.8 C 46 %
3225 23-01-2020 09:25:17 1.5 C 45 %
Sensor: Nr:Datum:Temp:Feuchte:
Aussen-T/F 3226 23-01-2020 09:35:17 1 C 45 %
3227 23-01-2020 09:45:18 1 C 45 %
3228 23-01-2020 09:55:18 1.1 C 45 %
3229 23-01-2020 10:05:17 1.1 C 45 %
3230 23-01-2020 10:15:17 1.1 C 44 %
3231 23-01-2020 10:25:17 1.3 C 44 %
3232 23-01-2020 10:35:17 1.3 C 44 %
3233 23-01-2020 10:45:17 1.4 C 44 %
3234 23-01-2020 10:55:17 1.4 C 43 %
3235 23-01-2020 11:05:18 1.6 C 42 %
3236 23-01-2020 11:15:17 1.7 C 42 %
3237 23-01-2020 11:25:17 1.7 C 41 %
3238 23-01-2020 11:35:17 1.8 C 40 %
3239 23-01-2020 11:45:17 1.7 C 40 %
3240 23-01-2020 11:55:17 1.8 C 40 %
3241 23-01-2020 12:05:17 1.9 C 40 %
3242 23-01-2020 12:15:17 1.9 C 40 %
3243 23-01-2020 12:25:17 1.8 C 38 %
3244 23-01-2020 12:35:17 2 C 37 %
3245 23-01-2020 12:45:18 2 C 37 %
3246 23-01-2020 12:55:18 2.1 C 37 %
3247 23-01-2020 13:05:18 2.1 C 37 %
3248 23-01-2020 13:15:17 2.1 C 37 %
3249 23-01-2020 13:25:17 2.2 C 37 %
3250 23-01-2020 13:35:17 2.3 C 36 %
Sensor: Nr:Datum:Temp:Feuchte:
Aussen-T/F 3251 23-01-2020 13:45:17 2.3 C 36 %
3252 23-01-2020 13:55:17 2.2 C 36 %
3253 23-01-2020 14:05:17 2.2 C 36 %
3254 23-01-2020 14:15:18 2.3 C 36 %
3255 23-01-2020 14:25:18 2.2 C 37 %
3256 23-01-2020 14:35:18 2.2 C 36 %
3257 23-01-2020 14:45:17 2.2 C 36 %
3258 23-01-2020 14:55:17 2.1 C 36 %
3259 23-01-2020 15:05:17 2.2 C 36 %
3260 23-01-2020 15:15:17 2.3 C 35 %
3261 23-01-2020 15:25:17 2.3 C 35 %
3262 23-01-2020 15:35:18 2.2 C 36 %
3263 23-01-2020 15:45:17 2.1 C 36 %
3264 23-01-2020 15:55:17 2.1 C 37 %
3265 23-01-2020 16:05:17 2 C 37 %
3266 23-01-2020 16:15:17 1.9 C 37 %
3267 23-01-2020 16:25:17 1.9 C 38 %
3268 23-01-2020 16:35:18 1.8 C 39 %
3269 23-01-2020 16:45:17 1.7 C 39 %
3270 23-01-2020 16:55:17 1.6 C 40 %
3271 23-01-2020 17:05:17 1.5 C 41 %
3272 23-01-2020 17:15:17 1.4 C 42 %
3273 23-01-2020 17:25:17 1.4 C 42 %
3274 23-01-2020 17:35:18 0.8 C 43 %
3275 23-01-2020 17:45:17 0.2 C 43 %
Sensor: Nr:Datum:Temp:Feuchte:
Aussen-T/F 3276 23-01-2020 17:55:17 -0.2 C 45 %
3277 23-01-2020 18:05:17 -0.5 C 45 %
3278 23-01-2020 18:15:17 -0.6 C 46 %
3279 23-01-2020 18:25:17 -0.7 C 46 %
3280 23-01-2020 18:35:18 -0.8 C 46 %
3281 23-01-2020 18:45:17 -0.7 C 46 %
3282 23-01-2020 18:55:17 -0.7 C 46 %
3283 23-01-2020 19:05:17 -1 C 46 %
3284 23-01-2020 19:15:17 -1.3 C 46 %
3285 23-01-2020 19:25:17 -1.7 C 46 %
3286 23-01-2020 19:35:18 -1.9 C 46 %
3287 23-01-2020 19:45:17 -1.6 C 46 %
3288 23-01-2020 19:55:17 -1.8 C 46 %
3289 23-01-2020 20:05:17 -2 C 46 %
3290 23-01-2020 20:15:17 -1.8 C 46 %
3291 23-01-2020 20:25:17 -2 C 45 %
3292 23-01-2020 20:35:18 -2 C 46 %
3293 23-01-2020 20:45:18 -1.7 C 46 %
3294 23-01-2020 20:55:18 -1.3 C 46 %
3295 23-01-2020 21:05:17 -1.1 C 46 %
3296 23-01-2020 21:15:17 -0.9 C 46 %
3297 23-01-2020 21:25:17 -0.8 C 46 %
3298 23-01-2020 21:35:18 -0.7 C 46 %
3299 23-01-2020 21:45:17 -0.7 C 46 %
3300 23-01-2020 21:55:17 -0.6 C 46 %
Sensor: Nr:Datum:Temp:Feuchte:
Aussen-T/F 3301 23-01-2020 22:05:17 -0.6 C 46 %
3302 23-01-2020 22:15:17 -0.6 C 46 %
3303 23-01-2020 22:25:17 -0.5 C 46 %
3304 23-01-2020 22:35:17 -0.4 C 46 %
3305 23-01-2020 22:45:18 -0.3 C 46 %
3306 23-01-2020 22:55:18 -0.2 C 46 %
3307 23-01-2020 23:05:18 -0.2 C 46 %
3308 23-01-2020 23:15:17 -0.2 C 46 %
3309 23-01-2020 23:25:17 -0.2 C 46 %
3310 23-01-2020 23:35:17 -0.1 C 46 %
3311 23-01-2020 23:45:17 -0.1 C 46 %
3312 23-01-2020 23:55:17 -0.1 C 46 %
3313 24-01-2020 00:05:18 0 C 46 %
3314 24-01-2020 00:15:17 0.1 C 45 %
3315 24-01-2020 00:25:17 0 C 45 %
3316 24-01-2020 00:35:17 0.2 C 42 %
3317 24-01-2020 00:45:17 0.1 C 42 %
3318 24-01-2020 00:55:17 0.1 C 42 %
3319 24-01-2020 01:05:17 0.1 C 41 %
3320 24-01-2020 01:15:18 0.1 C 41 %
3321 24-01-2020 01:25:18 0 C 40 %
3322 24-01-2020 01:35:17 0 C 40 %
3323 24-01-2020 01:45:17 0 C 40 %
3324 24-01-2020 01:55:17 0 C 39 %
3325 24-01-2020 02:05:18 -0.1 C 40 %
Sensor: Nr:Datum:Temp:Feuchte:
Aussen-T/F 3326 24-01-2020 02:15:17 -0.1 C 40 %
3327 24-01-2020 02:25:17 -0.1 C 40 %
3328 24-01-2020 02:35:17 -0.1 C 40 %
3329 24-01-2020 02:45:18 -0.1 C 40 %
3330 24-01-2020 02:55:18 0 C 39 %
3331 24-01-2020 03:05:17 -0.1 C 39 %
3332 24-01-2020 03:15:17 -0.1 C 39 %
3333 24-01-2020 03:25:17 -0.1 C 39 %
3334 24-01-2020 03:35:17 0 C 38 %
3335 24-01-2020 03:45:17 0 C 38 %
3336 24-01-2020 03:55:18 -0.1 C 39 %
3337 24-01-2020 04:05:17 -0.1 C 39 %
3338 24-01-2020 04:15:17 -0.1 C 38 %
3339 24-01-2020 04:25:17 -0.1 C 38 %
3340 24-01-2020 04:35:17 -0.1 C 38 %
3341 24-01-2020 04:45:17 -0.1 C 38 %
3342 24-01-2020 04:55:18 -0.1 C 38 %
3343 24-01-2020 05:05:17 -0.1 C 38 %
3344 24-01-2020 05:15:17 -0.2 C 38 %
3345 24-01-2020 05:25:17 -0.1 C 38 %
3346 24-01-2020 05:35:17 -0.2 C 38 %
3347 24-01-2020 05:45:18 -0.2 C 38 %
3348 24-01-2020 05:55:18 -0.2 C 38 %
3349 24-01-2020 06:05:17 -0.2 C 38 %
3350 24-01-2020 06:15:18 -0.2 C 38 %
Sensor: Nr:Datum:Temp:Feuchte:
Aussen-T/F 3351 24-01-2020 06:25:18 -0.2 C 38 %
3352 24-01-2020 06:35:18 -0.2 C 38 %
3353 24-01-2020 06:45:17 -0.2 C 38 %
3354 24-01-2020 06:55:17 -0.2 C 38 %
3355 24-01-2020 07:05:17 -0.2 C 38 %
3356 24-01-2020 07:15:17 -0.3 C 38 %
3357 24-01-2020 07:25:17 -0.3 C 38 %
3358 24-01-2020 07:35:18 -0.3 C 38 %
3359 24-01-2020 07:45:17 -0.3 C 37 %
3360 24-01-2020 07:55:17 -0.3 C 37 %
3361 24-01-2020 08:05:17 -0.3 C 37 %
3362 24-01-2020 08:15:17 -0.3 C 37 %
3363 24-01-2020 08:25:17 -0.3 C 37 %
3364 24-01-2020 08:35:17 -0.3 C 36 %
3365 24-01-2020 08:45:17 -0.3 C 36 %
3366 24-01-2020 08:55:17 -0.3 C 36 %
3367 24-01-2020 09:05:17 -0.3 C 36 %
3368 24-01-2020 09:15:17 -0.2 C 36 %
3369 24-01-2020 09:25:17 -0.1 C 36 %
3370 24-01-2020 09:35:18 0 C 36 %
3371 24-01-2020 09:45:17 0.1 C 36 %
3372 24-01-2020 09:55:17 0.2 C 35 %
3373 24-01-2020 10:05:17 0.2 C 35 %
3374 24-01-2020 10:15:17 0.2 C 35 %
3375 24-01-2020 10:25:17 0.4 C 35 %
Sensor: Nr:Datum:Temp:Feuchte:
Aussen-T/F 3376 24-01-2020 10:35:17 0.5 C 35 %
3377 24-01-2020 10:45:17 0.6 C 35 %
3378 24-01-2020 10:55:17 0.4 C 34 %
3379 24-01-2020 11:05:17 0.7 C 34 %
3380 24-01-2020 11:15:17 0.7 C 34 %
3381 24-01-2020 11:25:17 0.9 C 34 %
3382 24-01-2020 11:35:17 1 C 33 %
3383 24-01-2020 11:45:18 1.2 C 32 %
3384 24-01-2020 11:55:18 1.3 C 32 %
3385 24-01-2020 12:05:17 1.6 C 31 %
3386 24-01-2020 12:15:17 1.6 C 31 %
3387 24-01-2020 12:25:17 1.9 C 31 %
3388 24-01-2020 12:35:17 1.5 C 31 %
3389 24-01-2020 12:45:17 1.7 C 30 %
3390 24-01-2020 12:55:17 2.1 C 30 %
3391 24-01-2020 13:05:18 1.9 C 30 %
3392 24-01-2020 13:15:18 2 C 29 %
3393 24-01-2020 13:25:18 2.4 C 30 %
3394 24-01-2020 13:35:18 3 C 28 %
3395 24-01-2020 13:45:17 3.2 C 27 %
3396 24-01-2020 13:55:18 2.5 C 27 %
3397 24-01-2020 14:05:17 2.2 C 27 %
3398 24-01-2020 14:15:17 2.7 C 28 %
3399 24-01-2020 14:25:17 2.6 C 29 %
3400 24-01-2020 14:35:17 2.8 C 28 %
Sensor: Nr:Datum:Temp:Feuchte:
Aussen-T/F 3401 24-01-2020 14:45:18 2.7 C 28 %
3402 24-01-2020 14:55:18 2.5 C 29 %
3403 24-01-2020 15:05:17 2.6 C 29 %
3404 24-01-2020 15:15:17 2.5 C 29 %
3405 24-01-2020 15:25:17 2.4 C 30 %
3406 24-01-2020 15:35:17 2.3 C 30 %
3407 24-01-2020 15:45:17 2.3 C 30 %
3408 24-01-2020 15:55:18 2.3 C 30 %
3409 24-01-2020 16:05:17 2.2 C 30 %
3410 24-01-2020 16:15:17 2 C 30 %
3411 24-01-2020 16:25:17 2.1 C 30 %
3412 24-01-2020 16:35:18 1.9 C 31 %
3413 24-01-2020 16:45:17 1.8 C 32 %
3414 24-01-2020 16:55:17 1.8 C 32 %
3415 24-01-2020 17:05:17 1.7 C 32 %
3416 24-01-2020 17:15:17 1.6 C 32 %
3417 24-01-2020 17:25:17 1.5 C 33 %
3418 24-01-2020 17:35:17 1.5 C 35 %
3419 24-01-2020 17:45:17 1.3 C 35 %
3420 24-01-2020 17:55:17 1.3 C 35 %
3421 24-01-2020 18:05:17 1.3 C 36 %
3422 24-01-2020 18:15:17 1.4 C 36 %
3423 24-01-2020 18:25:17 1.2 C 36 %
3424 24-01-2020 18:35:18 1.2 C 36 %
3425 24-01-2020 18:45:17 1.2 C 36 %
Sensor: Nr:Datum:Temp:Feuchte:
Aussen-T/F 3426 24-01-2020 18:55:17 1.3 C 36 %
3427 24-01-2020 19:05:17 1.2 C 37 %
3428 24-01-2020 19:15:17 1.2 C 37 %
3429 24-01-2020 19:25:17 1.2 C 37 %
3430 24-01-2020 19:35:18 1.2 C 37 %
3431 24-01-2020 19:45:17 1.2 C 37 %
3432 24-01-2020 19:55:17 1.4 C 37 %
3433 24-01-2020 20:05:17 1.4 C 37 %
3434 24-01-2020 20:15:17 1.3 C 37 %
3435 24-01-2020 20:25:17 1.4 C 37 %
3436 24-01-2020 20:31:17 1 C 36 %
3437 24-01-2020 20:35:17 1.4 C 37 %
3438 24-01-2020 20:41:17 1 C 36 %
3439 24-01-2020 20:45:18 1.4 C 37 %
3440 24-01-2020 20:51:17 1 C 36 %
3441 24-01-2020 20:55:18 1.4 C 37 %
3442 24-01-2020 21:01:17 0.9 C 37 %
3443 24-01-2020 21:05:17 1.3 C 37 %
3444 24-01-2020 21:11:17 0.9 C 38 %
3445 24-01-2020 21:15:17 1.2 C 37 %
3446 24-01-2020 21:21:17 0.9 C 38 %
3447 24-01-2020 21:25:17 1.2 C 37 %
3448 24-01-2020 21:31:17 0.8 C 38 %
3449 24-01-2020 21:35:17 1.1 C 36 %
3450 24-01-2020 21:41:17 0.8 C 38 %
Sensor: Nr:Datum:Temp:Feuchte:
Aussen-T/F 3451 24-01-2020 23:05:17 0.8 C 38 %
3452 24-01-2020 23:15:17 0.8 C 38 %
3453 24-01-2020 23:25:17 0.7 C 37 %
3454 24-01-2020 23:35:18 0.7 C 37 %
3455 24-01-2020 23:45:17 0.7 C 37 %
3456 24-01-2020 23:55:17 0.7 C 37 %
3457 25-01-2020 00:05:18 0.6 C 37 %
3458 25-01-2020 00:15:17 0.6 C 37 %
3459 25-01-2020 00:25:17 0.7 C 38 %
3460 25-01-2020 00:35:17 0.6 C 38 %
3461 25-01-2020 00:45:17 0.6 C 38 %
3462 25-01-2020 00:55:17 0.6 C 39 %
3463 25-01-2020 01:05:17 0.7 C 39 %
3464 25-01-2020 01:15:17 0.6 C 39 %
3465 25-01-2020 01:25:17 0.7 C 40 %
3466 25-01-2020 01:35:18 0.7 C 40 %
3467 25-01-2020 01:45:17 0.6 C 40 %
3468 25-01-2020 01:55:17 0.6 C 40 %
3469 25-01-2020 02:05:17 0.6 C 40 %
3470 25-01-2020 02:15:18 0.5 C 40 %
3471 25-01-2020 02:25:18 0.5 C 40 %
3472 25-01-2020 02:35:17 0.6 C 40 %
3473 25-01-2020 02:45:17 0.6 C 40 %
3474 25-01-2020 02:55:18 0.6 C 40 %
3475 25-01-2020 03:05:17 0.6 C 40 %
Sensor: Nr:Datum:Temp:Feuchte:
Aussen-T/F 3476 25-01-2020 03:15:17 0.5 C 40 %
3477 25-01-2020 03:25:17 0.5 C 40 %
3478 25-01-2020 03:35:17 0.5 C 40 %
3479 25-01-2020 03:45:18 0.5 C 40 %
3480 25-01-2020 03:55:18 0.4 C 40 %
3481 25-01-2020 04:05:18 0.4 C 40 %
3482 25-01-2020 04:15:17 0.4 C 40 %
3483 25-01-2020 04:25:18 0.4 C 40 %
3484 25-01-2020 04:35:17 0.3 C 40 %
3485 25-01-2020 04:45:17 0.4 C 40 %
3486 25-01-2020 04:55:17 0.4 C 40 %
3487 25-01-2020 05:05:18 0.4 C 40 %
3488 25-01-2020 05:15:18 0.4 C 40 %
3489 25-01-2020 05:25:18 0.4 C 40 %
3490 25-01-2020 05:35:17 0.3 C 40 %
3491 25-01-2020 05:45:17 0.3 C 39 %
3492 25-01-2020 05:55:17 0.3 C 40 %
3493 25-01-2020 06:05:17 0.3 C 40 %
3494 25-01-2020 06:15:18 0.4 C 40 %
3495 25-01-2020 06:25:18 0.3 C 40 %
3496 25-01-2020 06:35:17 0.3 C 40 %
3497 25-01-2020 06:45:17 0.4 C 40 %
3498 25-01-2020 06:55:17 0.4 C 40 %
3499 25-01-2020 07:05:18 0.4 C 40 %
3500 25-01-2020 07:15:17 0.5 C 40 %
Sensor: Nr:Datum:Temp:Feuchte:
Aussen-T/F 3501 25-01-2020 07:25:17 0.5 C 40 %
3502 25-01-2020 07:35:17 0.5 C 41 %
3503 25-01-2020 07:45:18 0.5 C 41 %
3504 25-01-2020 07:55:18 0.4 C 41 %
3505 25-01-2020 08:05:17 0.5 C 42 %
3506 25-01-2020 08:15:17 0.5 C 42 %
3507 25-01-2020 08:25:17 0.6 C 42 %
3508 25-01-2020 08:35:18 0.6 C 42 %
3509 25-01-2020 08:45:17 0.6 C 42 %
3510 25-01-2020 08:55:17 0.8 C 42 %
3511 25-01-2020 09:05:18 0.8 C 41 %
3512 25-01-2020 09:15:17 0.9 C 41 %
3513 25-01-2020 09:25:18 1.1 C 40 %
3514 25-01-2020 09:35:17 1.2 C 40 %
3515 25-01-2020 09:45:18 1.2 C 40 %
3516 25-01-2020 09:55:18 1.2 C 41 %
3517 25-01-2020 10:05:18 1.5 C 41 %
3518 25-01-2020 10:15:18 1.6 C 41 %
3519 25-01-2020 10:25:18 1.7 C 41 %
3520 25-01-2020 10:35:17 1.9 C 40 %
3521 25-01-2020 10:45:17 2.1 C 40 %
3522 25-01-2020 10:55:17 2.2 C 38 %
3523 25-01-2020 11:05:17 2.4 C 39 %
3524 25-01-2020 11:15:17 2.5 C 38 %
3525 25-01-2020 11:25:18 2.4 C 39 %
Sensor: Nr:Datum:Temp:Feuchte:
Aussen-T/F 3526 25-01-2020 11:35:18 2.9 C 38 %
3527 25-01-2020 11:45:17 2.8 C 37 %
3528 25-01-2020 11:55:17 3 C 37 %
3529 25-01-2020 12:05:18 3.3 C 36 %
3530 25-01-2020 12:15:18 3.4 C 35 %
3531 25-01-2020 12:25:18 3.6 C 35 %
3532 25-01-2020 12:35:18 3.7 C 35 %
3533 25-01-2020 12:45:18 3.7 C 35 %
3534 25-01-2020 12:55:18 3.7 C 35 %
3535 25-01-2020 13:05:17 3.5 C 35 %
3536 25-01-2020 13:15:17 3.5 C 35 %
3537 25-01-2020 13:25:17 3.4 C 36 %
3538 25-01-2020 13:35:17 3.6 C 36 %
3539 25-01-2020 13:45:17 3.8 C 35 %
3540 25-01-2020 13:55:17 3.9 C 35 %
3541 25-01-2020 14:05:18 4.2 C 34 %
3542 25-01-2020 14:15:18 4.2 C 34 %
3543 25-01-2020 14:25:18 4.1 C 35 %
3544 25-01-2020 14:35:18 4.2 C 34 %
3545 25-01-2020 14:45:17 4.4 C 34 %
3546 25-01-2020 14:55:18 4.5 C 34 %
3547 25-01-2020 15:05:18 4.5 C 34 %
3548 25-01-2020 15:15:18 4.4 C 34 %
3549 25-01-2020 15:25:18 4.3 C 34 %
3550 25-01-2020 15:35:17 4.2 C 34 %
Sensor: Nr:Datum:Temp:Feuchte:
Aussen-T/F 3551 25-01-2020 15:45:18 4.1 C 35 %
3552 25-01-2020 15:55:18 4.2 C 35 %
3553 25-01-2020 16:05:18 4.2 C 35 %
3554 25-01-2020 16:15:17 4.1 C 35 %
3555 25-01-2020 16:25:17 4.1 C 35 %
3556 25-01-2020 16:35:17 3.9 C 36 %
3557 25-01-2020 16:45:17 3.9 C 37 %
3558 25-01-2020 16:55:17 3.8 C 37 %
3559 25-01-2020 17:05:17 3.7 C 37 %
3560 25-01-2020 17:15:17 3.6 C 38 %
3561 25-01-2020 17:25:17 3.6 C 38 %
3562 25-01-2020 17:35:17 3.6 C 39 %
3563 25-01-2020 17:45:17 3.9 C 39 %
3564 25-01-2020 17:55:17 3.5 C 39 %
3565 25-01-2020 18:05:18 3.4 C 39 %
3566 25-01-2020 18:15:17 3.4 C 39 %
3567 25-01-2020 18:25:17 3.3 C 40 %
3568 25-01-2020 18:35:17 3.3 C 40 %
3569 25-01-2020 18:45:17 3.2 C 40 %
3570 25-01-2020 18:55:17 3.2 C 40 %
3571 25-01-2020 19:05:18 3.2 C 40 %
3572 25-01-2020 19:15:17 3.2 C 40 %
3573 25-01-2020 19:25:17 3.2 C 40 %
3574 25-01-2020 19:35:17 3.2 C 40 %
3575 25-01-2020 19:45:17 3.2 C 40 %
Sensor: Nr:Datum:Temp:Feuchte:
Aussen-T/F 3576 25-01-2020 19:55:17 3.1 C 41 %
3577 25-01-2020 20:05:18 3.1 C 41 %
3578 25-01-2020 20:15:18 3 C 41 %
3579 25-01-2020 20:25:18 3 C 42 %
3580 25-01-2020 20:35:17 2.9 C 43 %
3581 25-01-2020 20:45:17 2.8 C 43 %
3582 25-01-2020 20:55:17 2.6 C 42 %
3583 25-01-2020 21:05:17 2.5 C 41 %
3584 25-01-2020 21:15:18 2.5 C 41 %
3585 25-01-2020 21:25:18 2.3 C 41 %
3586 25-01-2020 21:35:18 2.2 C 41 %
3587 25-01-2020 21:45:17 2.1 C 42 %
3588 25-01-2020 21:55:18 1.9 C 43 %
3589 25-01-2020 22:05:18 1.8 C 43 %
3590 25-01-2020 22:15:18 1.7 C 43 %
3591 25-01-2020 22:25:18 1.6 C 42 %
3592 25-01-2020 22:35:17 1.5 C 43 %
3593 25-01-2020 22:45:17 1.5 C 43 %
3594 25-01-2020 22:55:17 1.4 C 43 %
3595 25-01-2020 23:05:17 1.4 C 43 %
3596 25-01-2020 23:15:17 1.3 C 43 %
3597 25-01-2020 23:25:17 1.1 C 43 %
3598 25-01-2020 23:35:17 1.1 C 43 %
3599 25-01-2020 23:45:17 1.1 C 43 %
3600 25-01-2020 23:55:17 1 C 43 %
Sensor: Nr:Datum:Temp:Feuchte:
Aussen-T/F 3601 26-01-2020 00:05:18 1 C 44 %
3602 26-01-2020 00:15:18 1.1 C 44 %
3603 26-01-2020 00:25:18 1 C 43 %
3604 26-01-2020 00:35:18 1 C 44 %
3605 26-01-2020 00:45:17 1 C 44 %
3606 26-01-2020 00:55:18 1 C 43 %
3607 26-01-2020 01:05:17 0.8 C 44 %
3608 26-01-2020 01:15:17 0.7 C 44 %
3609 26-01-2020 01:25:17 0.7 C 44 %
3610 26-01-2020 01:35:17 0.7 C 45 %
3611 26-01-2020 01:45:18 0.8 C 45 %
3612 26-01-2020 01:55:18 0.8 C 45 %
3613 26-01-2020 02:05:18 0.8 C 45 %
3614 26-01-2020 02:15:17 0.8 C 45 %
3615 26-01-2020 02:25:17 0.8 C 45 %
3616 26-01-2020 02:35:17 0.8 C 44 %
3617 26-01-2020 02:45:17 0.7 C 44 %
3618 26-01-2020 02:55:17 0.8 C 44 %
3619 26-01-2020 03:05:17 0.7 C 44 %
3620 26-01-2020 03:15:17 0.7 C 44 %
3621 26-01-2020 03:25:17 0.6 C 44 %
3622 26-01-2020 03:35:17 0.7 C 45 %
3623 26-01-2020 03:45:17 0.6 C 45 %
3624 26-01-2020 03:55:17 0.6 C 45 %
3625 26-01-2020 04:05:17 0.6 C 45 %
Sensor: Nr:Datum:Temp:Feuchte:
Aussen-T/F 3626 26-01-2020 04:15:17 0.6 C 45 %
3627 26-01-2020 04:25:17 0.7 C 45 %
3628 26-01-2020 04:35:18 0.7 C 45 %
3629 26-01-2020 04:45:18 0.7 C 44 %
3630 26-01-2020 04:55:18 0.7 C 44 %
3631 26-01-2020 05:05:18 0.7 C 44 %
3632 26-01-2020 05:15:18 0.6 C 43 %
3633 26-01-2020 05:25:18 0.7 C 43 %
3634 26-01-2020 05:35:18 0.6 C 43 %
3635 26-01-2020 05:45:18 0.6 C 43 %
3636 26-01-2020 05:55:18 0.6 C 43 %
3637 26-01-2020 06:05:18 0.6 C 44 %
3638 26-01-2020 06:15:17 0.5 C 44 %
3639 26-01-2020 06:25:17 0.6 C 44 %
3640 26-01-2020 06:35:17 0.6 C 44 %
3641 26-01-2020 06:45:18 0.6 C 44 %
3642 26-01-2020 06:55:18 0.6 C 44 %
3643 26-01-2020 07:05:17 0.7 C 45 %
3644 26-01-2020 07:15:17 0.7 C 44 %
3645 26-01-2020 07:25:17 0.7 C 44 %
3646 26-01-2020 07:35:18 0.7 C 45 %
3647 26-01-2020 07:45:17 0.7 C 45 %
3648 26-01-2020 07:55:18 0.7 C 45 %
3649 26-01-2020 08:05:18 0.7 C 45 %
3650 26-01-2020 08:15:18 0.6 C 45 %
Sensor: Nr:Datum:Temp:Feuchte:
Aussen-T/F 3651 26-01-2020 08:25:18 0.6 C 45 %
3652 26-01-2020 08:35:18 0.6 C 45 %
3653 26-01-2020 08:45:17 0.7 C 45 %
3654 26-01-2020 08:55:17 0.7 C 45 %
3655 26-01-2020 09:05:18 0.9 C 45 %
3656 26-01-2020 09:15:18 0.9 C 44 %
3657 26-01-2020 09:25:18 1 C 42 %
3658 26-01-2020 09:35:18 1 C 41 %
3659 26-01-2020 09:45:17 1 C 40 %
3660 26-01-2020 09:55:17 0.8 C 41 %
3661 26-01-2020 10:05:18 0.7 C 41 %
3662 26-01-2020 10:15:18 0.9 C 42 %
3663 26-01-2020 10:25:18 1.1 C 40 %
3664 26-01-2020 10:35:18 1.6 C 40 %
3665 26-01-2020 10:45:18 1.9 C 38 %
3666 26-01-2020 10:55:18 2.1 C 37 %
3667 26-01-2020 11:05:18 2.2 C 37 %
3668 26-01-2020 11:15:18 2.3 C 37 %
3669 26-01-2020 11:25:18 2.4 C 37 %
3670 26-01-2020 11:35:18 2.3 C 37 %
3671 26-01-2020 11:45:17 2.4 C 38 %
3672 26-01-2020 11:55:18 2.9 C 38 %
3673 26-01-2020 12:05:18 4.2 C 34 %
3674 26-01-2020 12:15:18 4.9 C 32 %
3675 26-01-2020 12:25:18 4 C 32 %
Sensor: Nr:Datum:Temp:Feuchte:
Aussen-T/F 3676 26-01-2020 12:35:18 3.8 C 35 %
3677 26-01-2020 12:45:17 3.8 C 36 %
3678 26-01-2020 12:55:17 3.9 C 37 %
3679 26-01-2020 13:05:18 3.9 C 37 %
3680 26-01-2020 13:15:18 4 C 36 %
3681 26-01-2020 13:25:18 4.2 C 36 %
3682 26-01-2020 13:35:18 4.4 C 36 %
3683 26-01-2020 13:45:17 4.5 C 37 %
3684 26-01-2020 13:55:17 4.5 C 37 %
3685 26-01-2020 14:05:18 4.6 C 38 %
3686 26-01-2020 14:15:17 4.7 C 37 %
3687 26-01-2020 14:25:17 4.7 C 37 %
3688 26-01-2020 14:35:17 4.8 C 37 %
3689 26-01-2020 14:45:18 4.8 C 37 %
3690 26-01-2020 14:55:18 5.7 C 35 %
3691 26-01-2020 15:05:18 6.6 C 33 %
3692 26-01-2020 15:15:18 6.3 C 32 %
3693 26-01-2020 15:25:18 6 C 33 %
3694 26-01-2020 15:35:18 5.5 C 35 %
3695 26-01-2020 15:45:17 4.9 C 36 %
3696 26-01-2020 15:55:17 4.7 C 38 %
3697 26-01-2020 16:05:18 4.6 C 38 %
3698 26-01-2020 16:15:18 4.2 C 39 %
3699 26-01-2020 16:25:18 4 C 39 %
3700 26-01-2020 16:35:18 3.7 C 41 %
Sensor: Nr:Datum:Temp:Feuchte:
Aussen-T/F 3701 26-01-2020 16:45:18 3.7 C 41 %
3702 26-01-2020 16:55:18 4.1 C 38 %
3703 26-01-2020 17:05:18 3.6 C 39 %
3704 26-01-2020 17:15:18 3.5 C 39 %
3705 26-01-2020 17:25:18 3.3 C 40 %
3706 26-01-2020 17:35:17 3.5 C 40 %
3707 26-01-2020 17:45:17 3.8 C 39 %
3708 26-01-2020 17:55:17 3.8 C 39 %
3709 26-01-2020 18:05:17 3.8 C 38 %
3710 26-01-2020 18:15:18 3.8 C 38 %
3711 26-01-2020 18:25:18 3.9 C 38 %
3712 26-01-2020 18:35:18 3.8 C 38 %
3713 26-01-2020 18:45:17 3.5 C 39 %
3714 26-01-2020 18:55:17 3.4 C 39 %
3715 26-01-2020 19:05:17 3.3 C 40 %
3716 26-01-2020 19:15:17 3.1 C 40 %
3717 26-01-2020 19:25:18 3 C 41 %
3718 26-01-2020 19:35:18 3.2 C 41 %
3719 26-01-2020 19:45:17 3.2 C 40 %
3720 26-01-2020 19:55:18 3 C 40 %
3721 26-01-2020 20:05:18 3 C 42 %
3722 26-01-2020 20:15:18 2.9 C 42 %
3723 26-01-2020 20:25:18 3 C 42 %
3724 26-01-2020 20:35:18 2.9 C 43 %
3725 26-01-2020 20:45:18 2.7 C 43 %
Sensor: Nr:Datum:Temp:Feuchte:
Aussen-T/F 3726 26-01-2020 20:55:18 2.4 C 44 %
3727 26-01-2020 21:05:17 2.2 C 43 %
3728 26-01-2020 21:15:17 2 C 45 %
3729 26-01-2020 21:25:17 2.1 C 45 %
3730 26-01-2020 21:35:17 2.2 C 45 %
3731 26-01-2020 21:45:17 1.9 C 46 %
3732 26-01-2020 21:55:17 1.5 C 45 %
3733 26-01-2020 22:05:17 1.4 C 46 %
3734 26-01-2020 22:15:17 0.9 C 47 %
3735 26-01-2020 22:25:17 0.6 C 46 %
3736 26-01-2020 22:35:18 0.3 C 46 %
3737 26-01-2020 22:45:17 0.3 C 46 %
3738 26-01-2020 22:55:18 0.3 C 46 %
3739 26-01-2020 23:05:18 0.9 C 48 %
3740 26-01-2020 23:15:18 0.2 C 47 %
3741 26-01-2020 23:25:18 1.4 C 46 %
3742 26-01-2020 23:35:17 1.4 C 46 %
3743 26-01-2020 23:45:17 1.5 C 46 %
3744 26-01-2020 23:55:17 1.6 C 46 %
3745 27-01-2020 00:05:17 2 C 45 %
3746 27-01-2020 00:15:17 1.9 C 46 %
3747 27-01-2020 00:25:17 1.9 C 46 %
3748 27-01-2020 00:35:17 1.8 C 46 %
3749 27-01-2020 00:45:18 1.7 C 46 %
3750 27-01-2020 00:55:18 1.6 C 45 %
Sensor: Nr:Datum:Temp:Feuchte:
Aussen-T/F 3751 27-01-2020 01:05:17 1.6 C 45 %
3752 27-01-2020 01:15:17 1.5 C 45 %
3753 27-01-2020 01:25:17 1.2 C 45 %
3754 27-01-2020 01:35:17 0.8 C 46 %
3755 27-01-2020 01:45:17 0.8 C 46 %
3756 27-01-2020 01:55:17 0.5 C 46 %
3757 27-01-2020 02:05:17 1 C 45 %
3758 27-01-2020 02:15:17 1.6 C 46 %
3759 27-01-2020 02:25:17 1.9 C 46 %
3760 27-01-2020 02:35:18 2 C 45 %
3761 27-01-2020 02:45:18 2.1 C 45 %
3762 27-01-2020 02:55:18 2.3 C 45 %
3763 27-01-2020 03:05:18 2.3 C 45 %
3764 27-01-2020 03:15:17 2.4 C 45 %
3765 27-01-2020 03:25:17 2.6 C 45 %
3766 27-01-2020 03:35:17 2.4 C 45 %
3767 27-01-2020 03:45:17 2 C 44 %
3768 27-01-2020 03:55:17 2.4 C 44 %
3769 27-01-2020 04:05:17 3 C 44 %
3770 27-01-2020 04:15:17 3 C 43 %
3771 27-01-2020 04:25:17 3.5 C 44 %
3772 27-01-2020 04:35:17 3.5 C 44 %
3773 27-01-2020 04:45:18 3.6 C 44 %
3774 27-01-2020 04:55:18 3.7 C 44 %
3775 27-01-2020 05:05:18 3.6 C 44 %
Sensor: Nr:Datum:Temp:Feuchte:
Aussen-T/F 3776 27-01-2020 05:15:17 4 C 43 %
3777 27-01-2020 05:25:17 4 C 43 %
3778 27-01-2020 05:35:18 4 C 43 %
3779 27-01-2020 05:45:17 4 C 43 %
3780 27-01-2020 05:55:17 4.2 C 43 %
3781 27-01-2020 06:05:18 4.3 C 43 %
3782 27-01-2020 06:15:18 4.8 C 43 %
3783 27-01-2020 06:25:18 5.1 C 42 %
3784 27-01-2020 06:35:17 5.4 C 42 %
3785 27-01-2020 06:45:17 5.9 C 42 %
3786 27-01-2020 06:55:17 6.1 C 41 %
3787 27-01-2020 07:05:17 5.9 C 41 %
3788 27-01-2020 07:15:18 5.9 C 41 %
3789 27-01-2020 07:25:18 5.9 C 42 %
3790 27-01-2020 07:35:18 5.8 C 42 %
3791 27-01-2020 07:45:18 5.7 C 42 %
3792 27-01-2020 07:55:18 5.6 C 42 %
3793 27-01-2020 08:05:18 5.5 C 42 %
3794 27-01-2020 08:15:17 5.5 C 42 %
3795 27-01-2020 08:25:17 5.7 C 43 %
3796 27-01-2020 08:35:17 5.8 C 43 %
3797 27-01-2020 08:45:17 5.8 C 43 %
3798 27-01-2020 08:55:17 5.9 C 41 %
3799 27-01-2020 09:05:17 6 C 40 %
3800 27-01-2020 09:15:17 6.4 C 40 %
Sensor: Nr:Datum:Temp:Feuchte:
Aussen-T/F 3801 27-01-2020 09:25:17 6.8 C 37 %
3802 27-01-2020 09:35:18 6.7 C 37 %
3803 27-01-2020 09:45:17 7.1 C 36 %
3804 27-01-2020 09:55:17 7.6 C 34 %
3805 27-01-2020 10:05:18 7.9 C 32 %
3806 27-01-2020 10:15:18 8 C 32 %
3807 27-01-2020 10:25:18 8 C 32 %
3808 27-01-2020 10:35:17 8 C 32 %
3809 27-01-2020 10:45:18 8 C 32 %
3810 27-01-2020 10:55:18 8 C 32 %
3811 27-01-2020 11:05:17 7.9 C 33 %
3812 27-01-2020 11:15:17 7.8 C 33 %
3813 27-01-2020 11:25:17 7.8 C 34 %
3814 27-01-2020 11:35:17 7.9 C 33 %
3815 27-01-2020 11:45:18 7.8 C 33 %
3816 27-01-2020 11:55:18 7.9 C 34 %
3817 27-01-2020 12:05:17 8 C 32 %
3818 27-01-2020 12:15:17 8.4 C 32 %
3819 27-01-2020 12:25:17 8.6 C 32 %
3820 27-01-2020 12:35:17 8.7 C 31 %
3821 27-01-2020 12:45:17 9 C 31 %
3822 27-01-2020 12:55:17 9 C 30 %
3823 27-01-2020 13:05:18 9 C 30 %
3824 27-01-2020 13:15:17 8.7 C 31 %
3825 27-01-2020 13:25:17 7.9 C 32 %
Sensor: Nr:Datum:Temp:Feuchte:
Aussen-T/F 3826 27-01-2020 13:35:17 7.4 C 34 %
3827 27-01-2020 13:45:17 7.3 C 35 %
3828 27-01-2020 13:55:17 7.1 C 36 %
3829 27-01-2020 14:05:18 7.2 C 36 %
3830 27-01-2020 14:15:17 7.1 C 36 %
3831 27-01-2020 14:25:17 7.1 C 38 %
3832 27-01-2020 14:35:17 7 C 36 %
3833 27-01-2020 14:45:17 7 C 37 %
3834 27-01-2020 14:55:17 7 C 38 %
3835 27-01-2020 15:05:18 6.9 C 38 %
3836 27-01-2020 15:15:17 6.8 C 40 %
3837 27-01-2020 15:25:17 6.8 C 37 %
3838 27-01-2020 15:35:17 6.9 C 37 %
3839 27-01-2020 15:45:17 6.7 C 37 %
3840 27-01-2020 15:55:17 6.7 C 37 %
3841 27-01-2020 16:05:17 6.6 C 38 %
3842 27-01-2020 16:15:18 6.5 C 40 %
3843 27-01-2020 16:25:18 6.5 C 40 %
3844 27-01-2020 16:35:18 6.4 C 40 %
3845 27-01-2020 16:45:17 6.4 C 39 %
3846 27-01-2020 16:55:17 6.3 C 40 %
3847 27-01-2020 17:05:17 6.3 C 39 %
3848 27-01-2020 17:15:17 6.4 C 39 %
3849 27-01-2020 17:25:17 6.6 C 37 %
3850 27-01-2020 17:35:17 6.3 C 38 %
Sensor: Nr:Datum:Temp:Feuchte:
Aussen-T/F 3851 27-01-2020 17:45:17 6.2 C 39 %
3852 27-01-2020 17:55:17 6.5 C 37 %
3853 27-01-2020 18:05:17 6.4 C 37 %
3854 27-01-2020 18:15:17 6.5 C 37 %
3855 27-01-2020 18:25:18 6.4 C 37 %
3856 27-01-2020 18:35:18 6.4 C 37 %
3857 27-01-2020 18:45:17 6.6 C 36 %
3858 27-01-2020 18:55:17 6.4 C 36 %
3859 27-01-2020 19:05:18 6.3 C 36 %
3860 27-01-2020 19:15:17 6.2 C 37 %
3861 27-01-2020 19:25:17 6.1 C 39 %
3862 27-01-2020 19:35:17 6.1 C 40 %
3863 27-01-2020 19:45:18 6.1 C 40 %
3864 27-01-2020 19:55:18 5.9 C 42 %
3865 27-01-2020 20:05:18 5.9 C 43 %
3866 27-01-2020 20:15:18 5.8 C 42 %
3867 27-01-2020 20:25:18 5.9 C 40 %
3868 27-01-2020 20:35:18 5.6 C 41 %
3869 27-01-2020 20:45:18 5.4 C 42 %
3870 27-01-2020 20:55:18 5.4 C 43 %
3871 27-01-2020 21:05:18 5.4 C 43 %
3872 27-01-2020 21:15:18 5.4 C 43 %
3873 27-01-2020 21:25:18 5.3 C 42 %
3874 27-01-2020 21:35:18 5.4 C 43 %
3875 27-01-2020 21:45:18 5.4 C 43 %
Sensor: Nr:Datum:Temp:Feuchte:
Aussen-T/F 3876 27-01-2020 21:55:18 5.3 C 42 %
3877 27-01-2020 22:05:17 5.3 C 43 %
3878 27-01-2020 22:15:17 5.3 C 43 %
3879 27-01-2020 22:25:17 5.3 C 43 %
3880 27-01-2020 22:35:17 5.5 C 42 %
3881 27-01-2020 22:45:17 5.5 C 41 %
3882 27-01-2020 22:55:17 5.6 C 40 %
3883 27-01-2020 23:05:17 5.6 C 40 %
3884 27-01-2020 23:15:17 5.6 C 41 %
3885 27-01-2020 23:25:17 5.7 C 41 %
3886 27-01-2020 23:35:17 5.5 C 40 %
3887 27-01-2020 23:45:17 5.7 C 40 %
3888 27-01-2020 23:55:17 5.8 C 39 %
3889 28-01-2020 00:05:18 5.9 C 38 %
3890 28-01-2020 00:15:17 6 C 37 %
3891 28-01-2020 00:25:18 6 C 37 %
3892 28-01-2020 00:35:18 6 C 37 %
3893 28-01-2020 00:45:17 6.3 C 36 %
3894 28-01-2020 00:55:18 6.7 C 36 %
3895 28-01-2020 01:05:18 6.7 C 35 %
3896 28-01-2020 01:15:17 6.8 C 35 %
3897 28-01-2020 01:25:17 6.8 C 35 %
3898 28-01-2020 01:35:17 6.9 C 35 %
3899 28-01-2020 01:45:17 6.8 C 35 %
3900 28-01-2020 01:55:17 7 C 35 %
Sensor: Nr:Datum:Temp:Feuchte:
Aussen-T/F 3901 28-01-2020 02:05:18 6.8 C 35 %
3902 28-01-2020 02:15:18 7 C 34 %
3903 28-01-2020 02:25:18 7.4 C 33 %
3904 28-01-2020 02:35:17 7 C 33 %
3905 28-01-2020 02:45:17 6.8 C 35 %
3906 28-01-2020 02:55:17 7.4 C 33 %
3907 28-01-2020 03:05:17 7.4 C 33 %
3908 28-01-2020 03:15:17 7.6 C 32 %
3909 28-01-2020 03:25:18 7.6 C 31 %
3910 28-01-2020 03:35:18 7.6 C 31 %
3911 28-01-2020 03:45:18 6.8 C 33 %
3912 28-01-2020 03:55:18 6.4 C 36 %
3913 28-01-2020 04:05:18 5.8 C 39 %
3914 28-01-2020 04:15:17 5.6 C 38 %
3915 28-01-2020 04:25:17 5.6 C 38 %
3916 28-01-2020 04:35:17 5.6 C 39 %
3917 28-01-2020 04:45:18 5.4 C 41 %
3918 28-01-2020 04:55:18 5.6 C 38 %
3919 28-01-2020 05:05:18 5.8 C 38 %
3920 28-01-2020 05:15:18 6.1 C 35 %
3921 28-01-2020 05:25:18 6.1 C 35 %
3922 28-01-2020 05:35:18 5.5 C 37 %
3923 28-01-2020 05:45:17 5.7 C 38 %
3924 28-01-2020 05:55:17 6 C 35 %
3925 28-01-2020 06:05:18 6.3 C 34 %
Sensor: Nr:Datum:Temp:Feuchte:
Aussen-T/F 3926 28-01-2020 06:15:17 6 C 36 %
3927 28-01-2020 06:25:17 5.6 C 37 %
3928 28-01-2020 06:35:17 5.3 C 38 %
3929 28-01-2020 06:45:18 4.9 C 38 %
3930 28-01-2020 06:55:18 4.6 C 38 %
3931 28-01-2020 07:05:18 4.2 C 41 %
3932 28-01-2020 07:15:18 4.2 C 40 %
3933 28-01-2020 07:25:18 4 C 42 %
3934 28-01-2020 07:35:17 4.1 C 44 %
3935 28-01-2020 07:45:18 4.7 C 38 %
3936 28-01-2020 07:55:18 4.2 C 38 %
3937 28-01-2020 08:05:18 4.5 C 38 %
3938 28-01-2020 08:15:17 4.2 C 40 %
3939 28-01-2020 08:25:17 4.1 C 37 %
3940 28-01-2020 08:35:17 4.1 C 39 %
3941 28-01-2020 08:45:17 4.2 C 38 %
3942 28-01-2020 08:55:17 4.3 C 40 %
3943 28-01-2020 09:05:17 4.3 C 40 %
3944 28-01-2020 09:15:17 4.2 C 41 %
3945 28-01-2020 09:25:17 4.1 C 38 %
3946 28-01-2020 09:35:18 3.8 C 39 %
3947 28-01-2020 09:45:17 4 C 36 %
3948 28-01-2020 09:55:17 4.2 C 35 %
3949 28-01-2020 10:05:18 4.1 C 36 %
3950 28-01-2020 10:15:17 4.3 C 35 %
Sensor: Nr:Datum:Temp:Feuchte:
Aussen-T/F 3951 28-01-2020 10:25:17 4.4 C 35 %
3952 28-01-2020 10:35:17 4.7 C 33 %
3953 28-01-2020 10:45:17 4.7 C 33 %
3954 28-01-2020 10:55:17 4.9 C 33 %
3955 28-01-2020 11:05:17 5.1 C 32 %
3956 28-01-2020 11:15:17 4.7 C 33 %
3957 28-01-2020 11:25:17 5.1 C 32 %
3958 28-01-2020 11:35:17 5.2 C 31 %
3959 28-01-2020 11:45:17 5.5 C 31 %
3960 28-01-2020 11:55:17 5.3 C 31 %
3961 28-01-2020 12:05:17 5.6 C 31 %
3962 28-01-2020 12:15:18 6 C 27 %
3963 28-01-2020 12:25:18 6.3 C 25 %
3964 28-01-2020 12:35:17 6.2 C 25 %
3965 28-01-2020 12:45:18 6.4 C 25 %
3966 28-01-2020 12:55:18 6.5 C 23 %
3967 28-01-2020 13:05:17 6.4 C 20 %
3968 28-01-2020 13:15:17 6.4 C 23 %
3969 28-01-2020 13:25:17 6.6 C 21 %
3970 28-01-2020 13:35:17 6.4 C 20 %
3971 28-01-2020 13:45:17 6.2 C 20 %
3972 28-01-2020 13:55:17 6.1 C 23 %
3973 28-01-2020 14:05:17 6.2 C 23 %
3974 28-01-2020 14:15:17 6 C 23 %
3975 28-01-2020 14:25:17 6.1 C 20 %
Sensor: Nr:Datum:Temp:Feuchte:
Aussen-T/F 3976 28-01-2020 14:35:18 6.1 C 20 %
3977 28-01-2020 14:45:17 5.9 C 23 %
3978 28-01-2020 14:55:18 5.9 C 20 %
3979 28-01-2020 15:05:18 6.6 C 20 %
3980 28-01-2020 15:15:17 6.5 C 20 %
3981 28-01-2020 15:25:17 6.4 C 20 %
3982 28-01-2020 15:35:18 5.6 C 21 %
3983 28-01-2020 15:45:17 5.7 C 20 %
3984 28-01-2020 15:55:17 5.2 C 21 %
3985 28-01-2020 16:05:18 5.1 C 23 %
3986 28-01-2020 16:15:18 5 C 21 %
3987 28-01-2020 16:25:18 4.9 C 20 %
3988 28-01-2020 16:35:17 4.8 C 20 %
3989 28-01-2020 16:45:18 4.6 C 20 %
3990 28-01-2020 16:55:18 4.3 C 20 %
3991 28-01-2020 17:05:17 4.2 C 20 %
3992 28-01-2020 17:15:17 4.2 C 20 %
3993 28-01-2020 17:25:17 3.9 C 23 %
3994 28-01-2020 17:35:17 4.3 C 21 %
3995 28-01-2020 17:45:17 4.1 C 21 %
3996 28-01-2020 17:55:17 4 C 21 %
3997 28-01-2020 18:05:17 3.8 C 23 %
3998 28-01-2020 18:15:18 3.5 C 25 %
3999 28-01-2020 18:25:18 3.5 C 26 %
4000 28-01-2020 18:35:18 3.3 C 27 %
Sensor: Nr:Datum:Temp:Feuchte:
Aussen-T/F 4001 28-01-2020 18:45:17 3.8 C 26 %
4002 28-01-2020 18:55:18 3.7 C 26 %
4003 28-01-2020 19:05:18 3.7 C 26 %
4004 28-01-2020 19:15:17 3.9 C 25 %
4005 28-01-2020 19:25:17 4 C 23 %
4006 28-01-2020 19:35:17 4 C 23 %
4007 28-01-2020 19:45:17 3.8 C 25 %
4008 28-01-2020 19:55:17 3.4 C 26 %
4009 28-01-2020 20:05:17 3.5 C 26 %
4010 28-01-2020 20:15:18 3.7 C 26 %
4011 28-01-2020 20:25:18 4 C 26 %
4012 28-01-2020 20:35:18 4 C 26 %
4013 28-01-2020 20:45:18 3.8 C 27 %
4014 28-01-2020 20:55:18 3.8 C 27 %
4015 28-01-2020 21:05:18 3.7 C 27 %
4016 28-01-2020 21:15:18 3.5 C 28 %
4017 28-01-2020 21:25:18 3.3 C 28 %
4018 28-01-2020 21:35:18 3.4 C 28 %
4019 28-01-2020 21:45:17 3.4 C 28 %
4020 28-01-2020 21:55:18 3.2 C 30 %
4021 28-01-2020 22:05:18 3.5 C 30 %
4022 28-01-2020 22:15:18 3.5 C 30 %
4023 28-01-2020 22:25:18 3.6 C 30 %
4024 28-01-2020 22:35:17 3.6 C 30 %
4025 28-01-2020 22:45:18 3.3 C 30 %
Sensor: Nr:Datum:Temp:Feuchte:
Aussen-T/F 4026 28-01-2020 22:55:18 3.6 C 30 %
4027 28-01-2020 23:05:18 3.5 C 31 %
4028 28-01-2020 23:15:18 3.6 C 31 %
4029 28-01-2020 23:25:18 3.6 C 31 %
4030 28-01-2020 23:35:18 3.9 C 30 %
4031 28-01-2020 23:45:18 4.2 C 29 %
4032 28-01-2020 23:55:18 4.2 C 29 %
4033 29-01-2020 00:05:18 3.7 C 31 %
4034 29-01-2020 00:15:18 3.6 C 31 %
4035 29-01-2020 00:25:18 3.9 C 31 %
4036 29-01-2020 00:35:18 4 C 30 %
4037 29-01-2020 00:45:17 3.5 C 32 %
4038 29-01-2020 00:55:17 3.2 C 35 %
4039 29-01-2020 01:05:17 2.9 C 37 %
4040 29-01-2020 01:15:17 2.9 C 36 %
4041 29-01-2020 01:25:17 3 C 35 %
4042 29-01-2020 01:35:18 3.2 C 35 %
4043 29-01-2020 01:45:17 3.2 C 35 %
4044 29-01-2020 01:55:17 3.3 C 34 %
4045 29-01-2020 02:05:18 3.2 C 34 %
4046 29-01-2020 02:15:17 3.2 C 35 %
4047 29-01-2020 02:25:17 3 C 36 %
4048 29-01-2020 02:35:17 2.6 C 39 %
4049 29-01-2020 02:45:17 2.8 C 39 %
4050 29-01-2020 02:55:17 2.9 C 38 %
Sensor: Nr:Datum:Temp:Feuchte:
Aussen-T/F 4051 29-01-2020 03:05:17 2.8 C 39 %
4052 29-01-2020 03:15:17 2.9 C 38 %
4053 29-01-2020 03:25:17 3.1 C 36 %
4054 29-01-2020 03:35:18 2.9 C 37 %
4055 29-01-2020 03:45:17 2.9 C 37 %
4056 29-01-2020 03:55:18 2.7 C 38 %
4057 29-01-2020 04:05:18 2.7 C 40 %
4058 29-01-2020 04:15:18 2.6 C 40 %
4059 29-01-2020 04:25:18 2.8 C 37 %
4060 29-01-2020 04:35:17 3.1 C 35 %
4061 29-01-2020 04:45:18 3.3 C 34 %
4062 29-01-2020 04:55:18 3.2 C 34 %
4063 29-01-2020 05:05:17 3.3 C 33 %
4064 29-01-2020 05:15:17 3.4 C 33 %
4065 29-01-2020 05:25:17 3.5 C 33 %
4066 29-01-2020 05:35:17 3.5 C 33 %
4067 29-01-2020 05:45:17 3.4 C 33 %
4068 29-01-2020 05:55:17 3.4 C 33 %
4069 29-01-2020 06:05:17 3.3 C 33 %
4070 29-01-2020 06:15:17 3.3 C 33 %
4071 29-01-2020 06:25:18 3.2 C 33 %
4072 29-01-2020 06:35:17 3.2 C 33 %
4073 29-01-2020 06:45:17 3.3 C 33 %
4074 29-01-2020 06:55:17 2.8 C 35 %
4075 29-01-2020 07:05:17 3.6 C 33 %
Sensor: Nr:Datum:Temp:Feuchte:
Aussen-T/F 4076 29-01-2020 07:15:17 3.5 C 33 %
4077 29-01-2020 07:25:18 3.8 C 32 %
4078 29-01-2020 07:35:18 3.7 C 32 %
4079 29-01-2020 07:45:18 3.5 C 32 %
4080 29-01-2020 07:55:18 3.6 C 32 %
4081 29-01-2020 08:05:18 3.6 C 32 %
4082 29-01-2020 08:15:18 3.6 C 32 %
4083 29-01-2020 08:25:18 3.6 C 32 %
4084 29-01-2020 08:35:18 4 C 30 %
4085 29-01-2020 08:45:17 4.1 C 30 %
4086 29-01-2020 08:55:18 4.1 C 30 %
4087 29-01-2020 09:05:18 4.1 C 30 %
4088 29-01-2020 09:15:17 4.1 C 30 %
4089 29-01-2020 09:25:17 4.2 C 30 %
4090 29-01-2020 09:35:17 4 C 30 %
4091 29-01-2020 09:45:17 3.6 C 32 %
4092 29-01-2020 09:55:17 3.7 C 33 %
4093 29-01-2020 10:05:18 4.1 C 31 %
4094 29-01-2020 10:15:17 4.2 C 30 %
4095 29-01-2020 10:25:17 4.3 C 30 %
4096 29-01-2020 10:35:17 4.3 C 30 %
4097 29-01-2020 10:45:17 4.5 C 30 %
4098 29-01-2020 10:55:17 4.7 C 30 %
4099 29-01-2020 11:05:17 4.6 C 30 %
4100 29-01-2020 11:15:18 4.9 C 30 %
Sensor: Nr:Datum:Temp:Feuchte:
Aussen-T/F 4101 29-01-2020 11:25:18 4.9 C 30 %
4102 29-01-2020 11:35:17 5.3 C 30 %
4103 29-01-2020 11:45:18 5.6 C 29 %
4104 29-01-2020 11:55:18 6.4 C 28 %
4105 29-01-2020 12:05:17 6.4 C 27 %
4106 29-01-2020 12:15:17 6 C 27 %
4107 29-01-2020 12:25:17 6.6 C 26 %
4108 29-01-2020 12:35:18 6.5 C 25 %
4109 29-01-2020 12:45:17 6.7 C 25 %
4110 29-01-2020 12:55:17 6.6 C 20 %
4111 29-01-2020 13:05:17 6.8 C 20 %
4112 29-01-2020 13:15:17 6.9 C 20 %
4113 29-01-2020 13:25:17 6.8 C 20 %
4114 29-01-2020 13:35:18 7.3 C 20 %
4115 29-01-2020 13:45:18 7.4 C 20 %
4116 29-01-2020 13:55:18 7.4 C 20 %
4117 29-01-2020 14:05:17 7.4 C 20 %
4118 29-01-2020 14:15:17 7.5 C 20 %
4119 29-01-2020 14:25:17 7 C 20 %
4120 29-01-2020 14:35:18 6.9 C 20 %
4121 29-01-2020 14:45:17 7.1 C 20 %
4122 29-01-2020 14:55:17 6.9 C 20 %
4123 29-01-2020 15:05:17 6.9 C 20 %
4124 29-01-2020 15:15:18 6.7 C 20 %
4125 29-01-2020 15:25:18 6.9 C 20 %
Sensor: Nr:Datum:Temp:Feuchte:
Aussen-T/F 4126 29-01-2020 15:35:17 6.8 C 20 %
4127 29-01-2020 15:45:17 6.9 C 20 %
4128 29-01-2020 15:55:17 6.9 C 20 %
4129 29-01-2020 16:05:17 6.7 C 20 %
4130 29-01-2020 16:15:18 6.9 C 20 %
4131 29-01-2020 16:25:18 6.9 C 20 %
4132 29-01-2020 16:35:17 7.2 C 20 %
4133 29-01-2020 16:45:18 6.9 C 20 %
4134 29-01-2020 16:55:18 6.6 C 20 %
4135 29-01-2020 17:05:17 6.3 C 20 %
4136 29-01-2020 17:15:17 5.9 C 20 %
4137 29-01-2020 17:25:18 5.2 C 20 %
4138 29-01-2020 17:35:18 4.5 C 20 %
4139 29-01-2020 17:45:18 4.4 C 20 %
4140 29-01-2020 17:55:18 4.3 C 20 %
4141 29-01-2020 18:05:18 3.8 C 21 %
4142 29-01-2020 18:15:17 4.1 C 20 %
4143 29-01-2020 18:25:17 3.3 C 26 %
4144 29-01-2020 18:35:18 3.1 C 28 %
4145 29-01-2020 18:45:17 3.6 C 26 %
4146 29-01-2020 18:55:18 3.1 C 27 %
4147 29-01-2020 19:05:18 2.3 C 30 %
4148 29-01-2020 19:15:17 2.3 C 31 %
4149 29-01-2020 19:25:17 2.6 C 30 %
4150 29-01-2020 19:35:17 2.4 C 30 %
Sensor: Nr:Datum:Temp:Feuchte:
Aussen-T/F 4151 29-01-2020 19:45:18 2.7 C 30 %
4152 29-01-2020 19:55:18 1.8 C 33 %
4153 29-01-2020 20:05:18 1.3 C 35 %
4154 29-01-2020 20:15:17 2.3 C 34 %
4155 29-01-2020 20:25:17 1.9 C 36 %
4156 29-01-2020 20:35:18 1.8 C 35 %
4157 29-01-2020 20:45:17 2.4 C 35 %
4158 29-01-2020 20:55:18 2.4 C 35 %
4159 29-01-2020 21:05:18 2.6 C 35 %
4160 29-01-2020 21:15:18 2.1 C 36 %
4161 29-01-2020 21:25:18 2.2 C 35 %
4162 29-01-2020 21:35:18 2.6 C 35 %
4163 29-01-2020 21:45:18 2.4 C 35 %
4164 29-01-2020 21:55:18 2.2 C 36 %
4165 29-01-2020 22:05:18 1.9 C 39 %
4166 29-01-2020 22:15:17 2.6 C 38 %
4167 29-01-2020 22:25:17 3.4 C 35 %
4168 29-01-2020 22:35:17 3.8 C 35 %
4169 29-01-2020 22:45:18 3.9 C 35 %
4170 29-01-2020 22:55:18 4.4 C 33 %
4171 29-01-2020 23:05:17 4.6 C 32 %
4172 29-01-2020 23:15:17 4.6 C 33 %
4173 29-01-2020 23:25:17 4.6 C 32 %
4174 29-01-2020 23:35:18 4.8 C 32 %
4175 29-01-2020 23:45:18 4.9 C 32 %
Sensor: Nr:Datum:Temp:Feuchte:
Aussen-T/F 4176 29-01-2020 23:55:18 5.1 C 31 %
4177 30-01-2020 00:05:17 5.1 C 31 %
4178 30-01-2020 00:15:17 5.2 C 31 %
4179 30-01-2020 00:25:17 5.2 C 31 %
4180 30-01-2020 00:35:17 5.1 C 31 %
4181 30-01-2020 00:45:17 5.3 C 31 %
4182 30-01-2020 00:55:17 5.4 C 31 %
4183 30-01-2020 01:05:17 5.6 C 31 %
4184 30-01-2020 01:15:17 5.5 C 31 %
4185 30-01-2020 01:25:18 5.8 C 31 %
4186 30-01-2020 01:35:18 5.7 C 31 %
4187 30-01-2020 01:45:17 5.7 C 31 %
4188 30-01-2020 01:55:18 5.8 C 30 %
4189 30-01-2020 02:05:18 5.7 C 31 %
4190 30-01-2020 02:15:18 5.8 C 31 %
4191 30-01-2020 02:25:18 5.6 C 31 %
4192 30-01-2020 02:35:17 5.6 C 31 %
4193 30-01-2020 02:45:17 5.3 C 31 %
4194 30-01-2020 02:55:17 5.1 C 32 %
4195 30-01-2020 03:05:17 5.4 C 32 %
4196 30-01-2020 03:15:17 5.4 C 32 %
4197 30-01-2020 03:25:17 5.8 C 31 %
4198 30-01-2020 03:35:18 5.9 C 31 %
4199 30-01-2020 03:45:17 6 C 30 %
4200 30-01-2020 03:55:17 6 C 30 %
Sensor: Nr:Datum:Temp:Feuchte:
Aussen-T/F 4201 30-01-2020 04:05:18 6 C 31 %
4202 30-01-2020 04:15:17 5.3 C 31 %
4203 30-01-2020 04:25:17 5.5 C 31 %
4204 30-01-2020 04:35:18 5.5 C 31 %
4205 30-01-2020 04:45:18 5 C 32 %
4206 30-01-2020 04:55:18 4.7 C 33 %
4207 30-01-2020 05:05:18 5 C 33 %
4208 30-01-2020 05:15:17 4.8 C 34 %
4209 30-01-2020 05:25:17 5.1 C 32 %
4210 30-01-2020 05:35:17 5 C 33 %
4211 30-01-2020 05:45:17 4.8 C 33 %
4212 30-01-2020 05:55:17 5.1 C 32 %
4213 30-01-2020 06:05:18 4.9 C 33 %
4214 30-01-2020 06:15:17 5.1 C 32 %
4215 30-01-2020 06:25:17 5 C 32 %
4216 30-01-2020 06:35:17 5 C 32 %
4217 30-01-2020 06:45:17 4.9 C 32 %
4218 30-01-2020 06:55:17 5 C 31 %
4219 30-01-2020 07:05:17 4.9 C 32 %
4220 30-01-2020 07:15:17 5.2 C 31 %
4221 30-01-2020 07:25:17 5.3 C 31 %
4222 30-01-2020 07:35:17 4.8 C 32 %
4223 30-01-2020 07:45:17 4.4 C 32 %
4224 30-01-2020 07:55:17 4.4 C 33 %
4225 30-01-2020 08:05:18 4.5 C 33 %
Sensor: Nr:Datum:Temp:Feuchte:
Aussen-T/F 4226 30-01-2020 08:15:17 4.3 C 34 %
4227 30-01-2020 08:25:17 4.3 C 35 %
4228 30-01-2020 08:35:18 4.5 C 35 %
4229 30-01-2020 08:45:17 5 C 33 %
4230 30-01-2020 08:55:18 5.2 C 32 %
4231 30-01-2020 09:05:18 5.4 C 32 %
4232 30-01-2020 09:15:17 5.4 C 32 %
4233 30-01-2020 09:25:17 5.3 C 32 %
4234 30-01-2020 09:35:17 5.6 C 32 %
4235 30-01-2020 09:45:17 5.5 C 32 %
4236 30-01-2020 09:55:17 6.3 C 30 %
4237 30-01-2020 10:05:17 6.4 C 30 %
4238 30-01-2020 10:15:17 6.7 C 30 %
4239 30-01-2020 10:25:17 7 C 29 %
4240 30-01-2020 10:35:17 6.8 C 30 %
4241 30-01-2020 10:45:17 6.8 C 30 %
4242 30-01-2020 10:55:17 7 C 30 %
4243 30-01-2020 11:05:18 7.1 C 30 %
4244 30-01-2020 11:15:17 7.4 C 30 %
4245 30-01-2020 11:25:17 7.5 C 30 %
4246 30-01-2020 11:35:17 7.9 C 30 %
4247 30-01-2020 11:45:17 8.2 C 29 %
4248 30-01-2020 11:55:17 8.1 C 29 %
4249 30-01-2020 12:05:17 8.1 C 29 %
4250 30-01-2020 12:15:17 8 C 29 %
Sensor: Nr:Datum:Temp:Feuchte:
Aussen-T/F 4251 30-01-2020 12:25:17 8.1 C 29 %
4252 30-01-2020 12:35:17 8.6 C 29 %
4253 30-01-2020 12:45:17 8.8 C 28 %
4254 30-01-2020 12:55:17 8.9 C 28 %
4255 30-01-2020 13:05:17 9.2 C 27 %
4256 30-01-2020 13:15:17 9.4 C 26 %
4257 30-01-2020 13:25:17 9.7 C 25 %
4258 30-01-2020 13:35:18 9.7 C 25 %
4259 30-01-2020 13:45:18 10 C 23 %
4260 30-01-2020 13:55:18 10.3 C 23 %
4261 30-01-2020 14:05:17 10.5 C 23 %
4262 30-01-2020 14:15:17 10.6 C 22 %
4263 30-01-2020 14:25:17 10.5 C 20 %
4264 30-01-2020 14:35:17 10.5 C 20 %
4265 30-01-2020 14:45:17 10.7 C 20 %
4266 30-01-2020 14:55:17 10.9 C 20 %
4267 30-01-2020 15:05:17 10.8 C 20 %
4268 30-01-2020 15:15:17 10.6 C 20 %
4269 30-01-2020 15:25:17 10.5 C 20 %
4270 30-01-2020 15:35:17 10.6 C 20 %
4271 30-01-2020 15:45:17 10.3 C 20 %
4272 30-01-2020 15:55:17 10.2 C 20 %
4273 30-01-2020 16:05:17 10 C 20 %
4274 30-01-2020 16:15:18 9.4 C 21 %
4275 30-01-2020 16:25:18 9.1 C 21 %
Sensor: Nr:Datum:Temp:Feuchte:
Aussen-T/F 4276 30-01-2020 16:35:18 9.1 C 23 %
4277 30-01-2020 16:45:18 8.9 C 25 %
4278 30-01-2020 16:55:18 8.6 C 25 %
4279 30-01-2020 17:05:18 9.1 C 25 %
4280 30-01-2020 17:15:17 8.9 C 26 %
4281 30-01-2020 17:25:17 8.9 C 26 %
4282 30-01-2020 17:35:18 9 C 26 %
4283 30-01-2020 17:45:18 9 C 26 %
4284 30-01-2020 17:55:18 9.1 C 26 %
4285 30-01-2020 18:05:18 9.2 C 26 %
4286 30-01-2020 18:15:17 9.1 C 26 %
4287 30-01-2020 18:25:17 9.1 C 27 %
4288 30-01-2020 18:35:17 9.1 C 27 %
4289 30-01-2020 18:45:17 9 C 28 %
4290 30-01-2020 18:55:17 8.3 C 31 %
4291 30-01-2020 19:05:17 8.2 C 34 %
4292 30-01-2020 19:15:17 8 C 35 %
4293 30-01-2020 19:25:17 8.2 C 35 %
4294 30-01-2020 19:35:18 8.5 C 35 %
4295 30-01-2020 19:45:18 8.9 C 33 %
4296 30-01-2020 19:55:18 9 C 32 %
4297 30-01-2020 20:05:18 9.2 C 32 %
4298 30-01-2020 20:15:17 9.2 C 32 %
4299 30-01-2020 20:25:17 9.2 C 32 %
4300 30-01-2020 20:35:17 9.3 C 32 %
Sensor: Nr:Datum:Temp:Feuchte:
Aussen-T/F 4301 30-01-2020 20:45:17 9.3 C 32 %
4302 30-01-2020 20:55:17 9.6 C 32 %
4303 30-01-2020 21:05:17 9.6 C 32 %
4304 30-01-2020 21:15:17 9.6 C 32 %
4305 30-01-2020 21:25:17 9.6 C 32 %
4306 30-01-2020 21:35:17 9.8 C 32 %
4307 30-01-2020 21:45:17 9.8 C 32 %
4308 30-01-2020 21:55:17 10 C 32 %
4309 30-01-2020 22:05:17 10.1 C 32 %
4310 30-01-2020 22:15:17 10.2 C 32 %
4311 30-01-2020 22:25:17 10.2 C 32 %
4312 30-01-2020 22:35:18 10.1 C 32 %
4313 30-01-2020 22:45:17 10.1 C 32 %
4314 30-01-2020 22:55:17 10.4 C 32 %
4315 30-01-2020 23:05:17 10.4 C 32 %
4316 30-01-2020 23:15:17 10.5 C 33 %
4317 30-01-2020 23:25:17 10.7 C 33 %
4318 30-01-2020 23:35:18 10.8 C 33 %
4319 30-01-2020 23:45:18 11.1 C 32 %
4320 30-01-2020 23:55:18 11 C 32 %
4321 31-01-2020 00:05:17 11.2 C 32 %
4322 31-01-2020 00:15:17 11.6 C 32 %
4323 31-01-2020 00:25:17 11.5 C 32 %
4324 31-01-2020 00:35:17 11.7 C 32 %
4325 31-01-2020 00:45:17 11.9 C 32 %
Sensor: Nr:Datum:Temp:Feuchte:
Aussen-T/F 4326 31-01-2020 00:55:17 12 C 31 %
4327 31-01-2020 01:05:17 12.1 C 31 %
4328 31-01-2020 01:15:17 12.2 C 31 %
4329 31-01-2020 01:25:17 12.6 C 31 %
4330 31-01-2020 01:35:18 12.8 C 31 %
4331 31-01-2020 01:45:17 12.9 C 31 %
4332 31-01-2020 01:55:18 12.8 C 31 %
4333 31-01-2020 02:05:18 13 C 30 %
4334 31-01-2020 02:15:17 13.1 C 30 %
4335 31-01-2020 02:25:17 12.9 C 31 %
4336 31-01-2020 02:35:17 13.1 C 30 %
4337 31-01-2020 02:45:18 12.9 C 30 %
4338 31-01-2020 02:55:18 12.8 C 30 %
4339 31-01-2020 03:05:18 13 C 30 %
4340 31-01-2020 03:15:17 13 C 30 %
4341 31-01-2020 03:25:17 12.9 C 31 %
4342 31-01-2020 03:35:17 12.9 C 31 %
4343 31-01-2020 03:45:17 12.9 C 31 %
4344 31-01-2020 03:55:17 12.8 C 31 %
4345 31-01-2020 04:05:17 12.9 C 31 %
4346 31-01-2020 04:15:17 12.8 C 31 %
4347 31-01-2020 04:25:17 12.7 C 31 %
4348 31-01-2020 04:35:17 12.8 C 31 %
4349 31-01-2020 04:45:17 12.7 C 31 %
4350 31-01-2020 04:55:17 12.7 C 31 %
Sensor: Nr:Datum:Temp:Feuchte:
Aussen-T/F 4351 31-01-2020 05:05:18 12.8 C 31 %
4352 31-01-2020 05:15:17 12.7 C 31 %
4353 31-01-2020 05:25:17 12.6 C 31 %
4354 31-01-2020 05:35:17 12.7 C 31 %
4355 31-01-2020 05:45:18 12.7 C 31 %
4356 31-01-2020 05:55:18 12.5 C 31 %
4357 31-01-2020 06:05:17 12.7 C 30 %
4358 31-01-2020 06:15:17 12.8 C 30 %
4359 31-01-2020 06:25:17 12.4 C 30 %
4360 31-01-2020 06:35:18 12.4 C 31 %
4361 31-01-2020 06:45:17 12.3 C 31 %
4362 31-01-2020 06:55:17 12.4 C 31 %
4363 31-01-2020 07:05:18 12.3 C 31 %
4364 31-01-2020 07:15:18 12.2 C 31 %
4365 31-01-2020 07:25:18 12.1 C 31 %
4366 31-01-2020 07:35:17 12.3 C 31 %
4367 31-01-2020 07:45:18 12.4 C 30 %
4368 31-01-2020 07:55:18 12.5 C 30 %
4369 31-01-2020 08:05:18 12.3 C 30 %
4370 31-01-2020 08:15:17 12.4 C 30 %
4371 31-01-2020 08:25:17 12.5 C 30 %
4372 31-01-2020 08:35:17 12.5 C 30 %
4373 31-01-2020 08:45:17 12.7 C 30 %
4374 31-01-2020 08:55:17 12.7 C 30 %
4375 31-01-2020 09:05:18 12.8 C 30 %
Sensor: Nr:Datum:Temp:Feuchte:
Aussen-T/F 4376 31-01-2020 09:15:18 12.9 C 29 %
4377 31-01-2020 09:25:18 13 C 28 %
4378 31-01-2020 09:35:17 13.1 C 28 %
4379 31-01-2020 09:45:17 13.2 C 28 %
4380 31-01-2020 09:55:17 13.3 C 27 %
4381 31-01-2020 10:05:17 13.2 C 27 %
4382 31-01-2020 10:15:17 13.3 C 27 %
4383 31-01-2020 10:25:17 13.5 C 27 %
4384 31-01-2020 10:35:18 13.5 C 27 %
4385 31-01-2020 10:45:18 13.4 C 27 %
4386 31-01-2020 10:55:18 13.5 C 26 %
4387 31-01-2020 11:05:17 13.7 C 26 %
4388 31-01-2020 11:15:18 13.7 C 26 %
4389 31-01-2020 11:25:18 13.8 C 26 %
4390 31-01-2020 11:35:18 13.8 C 26 %
4391 31-01-2020 11:45:18 13.8 C 26 %
4392 31-01-2020 11:55:18 13.6 C 25 %
4393 31-01-2020 12:05:17 13.4 C 25 %
4394 31-01-2020 12:15:17 13.5 C 25 %
4395 31-01-2020 12:25:17 13.5 C 25 %
4396 31-01-2020 12:35:17 13.7 C 25 %
4397 31-01-2020 12:45:17 14.1 C 25 %
4398 31-01-2020 12:55:17 14.2 C 25 %
4399 31-01-2020 13:05:17 14.4 C 25 %
4400 31-01-2020 13:15:18 14.4 C 24 %
Sensor: Nr:Datum:Temp:Feuchte:
Aussen-T/F 4401 31-01-2020 13:25:18 14.6 C 23 %
4402 31-01-2020 13:35:17 14.8 C 23 %
4403 31-01-2020 13:45:17 14.7 C 23 %
4404 31-01-2020 13:55:17 14.4 C 23 %
4405 31-01-2020 14:05:18 14.6 C 23 %
4406 31-01-2020 14:15:18 14.4 C 23 %
4407 31-01-2020 14:25:18 14.3 C 23 %
4408 31-01-2020 14:35:17 14.3 C 23 %
4409 31-01-2020 14:45:17 14.2 C 24 %
4410 31-01-2020 14:55:17 14.2 C 24 %
4411 31-01-2020 15:05:17 13.8 C 25 %
4412 31-01-2020 15:15:18 13.7 C 25 %
4413 31-01-2020 15:25:18 13.7 C 25 %
4414 31-01-2020 15:35:18 13.6 C 25 %
4415 31-01-2020 15:45:18 13.4 C 25 %
4416 31-01-2020 15:55:18 13.2 C 25 %
4417 31-01-2020 16:05:17 13 C 25 %
4418 31-01-2020 16:15:17 12.9 C 26 %
4419 31-01-2020 16:25:17 12.9 C 25 %
4420 31-01-2020 16:35:17 12.7 C 26 %
4421 31-01-2020 16:45:17 12.3 C 26 %
4422 31-01-2020 16:55:17 12.8 C 26 %
4423 31-01-2020 17:05:18 12.5 C 26 %
4424 31-01-2020 17:15:18 12.3 C 26 %
4425 31-01-2020 17:25:18 12 C 26 %
Sensor: Nr:Datum:Temp:Feuchte:
Aussen-T/F 4426 31-01-2020 17:35:18 12.1 C 26 %
4427 31-01-2020 17:45:18 12.1 C 26 %
4428 31-01-2020 17:55:18 11.7 C 27 %
4429 31-01-2020 18:05:17 12.1 C 26 %
4430 31-01-2020 18:15:17 12 C 26 %
4431 31-01-2020 18:25:17 12 C 27 %
4432 31-01-2020 18:35:17 12.2 C 27 %
4433 31-01-2020 18:45:17 12.4 C 27 %
4434 31-01-2020 18:55:17 12.4 C 27 %
4435 31-01-2020 19:05:17 12.5 C 27 %
4436 31-01-2020 19:15:17 12.4 C 27 %
4437 31-01-2020 19:25:17 12.6 C 27 %
4438 31-01-2020 19:35:18 12.6 C 27 %
4439 31-01-2020 19:45:17 12.6 C 27 %
4440 31-01-2020 19:55:17 12.5 C 27 %
4441 31-01-2020 20:05:18 12.4 C 27 %
4442 31-01-2020 20:15:18 12.4 C 28 %
4443 31-01-2020 20:25:18 12.4 C 28 %
4444 31-01-2020 20:35:18 12.2 C 27 %
4445 31-01-2020 20:45:17 12.4 C 27 %
4446 31-01-2020 20:55:18 12 C 28 %
4447 31-01-2020 21:05:18 12.1 C 28 %
4448 31-01-2020 21:16:17 12.1 C 28 %
4449 31-01-2020 21:26:17 12.2 C 29 %
4450 31-01-2020 21:35:17 12.5 C 28 %
Sensor: Nr:Datum:Temp:Feuchte:
Aussen-T/F 4451 31-01-2020 21:46:17 12.5 C 28 %
4452 31-01-2020 21:55:17 12.5 C 28 %
4453 31-01-2020 22:06:17 12.7 C 28 %
4454 31-01-2020 22:16:17 12.8 C 27 %
4455 31-01-2020 22:26:17 12.7 C 27 %
4456 31-01-2020 22:35:17 12.7 C 27 %
4457 31-01-2020 22:45:18 12.6 C 27 %
4458 31-01-2020 22:55:18 12.6 C 27 %
4459 31-01-2020 23:05:17 12.6 C 27 %
4460 31-01-2020 23:15:17 12.6 C 27 %
4461 31-01-2020 23:25:17 12.6 C 27 %
4462 31-01-2020 23:35:18 12.5 C 27 %
4463 31-01-2020 23:45:18 12.6 C 27 %
4464 31-01-2020 23:55:18 12.5 C 27 %
4465 01-02-2020 00:06:17 12.6 C 27 %
4466 01-02-2020 00:16:17 12.6 C 28 %
4467 01-02-2020 00:26:17 12.6 C 28 %
4468 01-02-2020 00:35:17 12.5 C 28 %
4469 01-02-2020 00:45:17 12.4 C 28 %
4470 01-02-2020 00:55:17 12.4 C 28 %
4471 01-02-2020 01:05:18 12.3 C 28 %
4472 01-02-2020 01:16:17 12.3 C 28 %
4473 01-02-2020 01:26:17 12.3 C 28 %
4474 01-02-2020 01:36:17 12.3 C 27 %
4475 01-02-2020 01:45:18 12.1 C 27 %
Sensor: Nr:Datum:Temp:Feuchte:
Aussen-T/F 4476 01-02-2020 01:55:18 12.1 C 27 %
4477 01-02-2020 02:06:17 12 C 27 %
4478 01-02-2020 02:15:17 11.6 C 28 %
4479 01-02-2020 02:25:17 11.8 C 28 %
4480 01-02-2020 02:35:18 11.3 C 29 %
4481 01-02-2020 02:46:17 11.2 C 29 %
4482 01-02-2020 02:56:17 11.6 C 28 %
4483 01-02-2020 03:06:17 11.3 C 28 %
4484 01-02-2020 03:16:18 11.8 C 28 %
4485 01-02-2020 03:26:18 11.8 C 28 %
4486 01-02-2020 03:36:17 12.1 C 27 %
4487 01-02-2020 03:46:17 12.2 C 27 %
4488 01-02-2020 03:56:17 12.3 C 27 %
4489 01-02-2020 04:06:18 12 C 27 %
4490 01-02-2020 04:16:18 11.7 C 28 %
4491 01-02-2020 04:26:18 11.8 C 29 %
4492 01-02-2020 04:36:17 11.7 C 29 %
4493 01-02-2020 04:46:17 11.6 C 29 %
4494 01-02-2020 04:56:17 11.7 C 29 %
4495 01-02-2020 05:06:18 11.6 C 29 %
4496 01-02-2020 05:16:18 11.7 C 29 %
4497 01-02-2020 05:26:18 11.5 C 29 %
4498 01-02-2020 05:36:18 11.6 C 29 %
4499 01-02-2020 05:46:18 11.5 C 30 %
4500 01-02-2020 05:56:19 11.9 C 30 %
Sensor: Nr:Datum:Temp:Feuchte:
Aussen-T/F 4501 01-02-2020 06:06:18 12 C 28 %
4502 01-02-2020 06:16:17 11.8 C 30 %
4503 01-02-2020 06:26:17 11.7 C 30 %
4504 01-02-2020 06:36:17 11.4 C 30 %
4505 01-02-2020 06:46:17 11.8 C 30 %
4506 01-02-2020 06:56:17 11.9 C 30 %
4507 01-02-2020 07:06:17 11.8 C 30 %
4508 01-02-2020 07:16:18 11.9 C 30 %
4509 01-02-2020 07:26:18 12.2 C 30 %
4510 01-02-2020 07:36:18 12.1 C 30 %
4511 01-02-2020 07:46:17 12.2 C 30 %
4512 01-02-2020 07:56:17 12.1 C 30 %
4513 01-02-2020 08:06:18 11.4 C 34 %
4514 01-02-2020 08:16:18 11.1 C 36 %
4515 01-02-2020 08:26:18 10.9 C 39 %
4516 01-02-2020 08:36:18 10.9 C 39 %
4517 01-02-2020 08:46:17 10.9 C 39 %
4518 01-02-2020 08:56:17 11.2 C 37 %
4519 01-02-2020 09:06:18 11.1 C 37 %
4520 01-02-2020 09:16:17 11.4 C 36 %
4521 01-02-2020 09:26:17 11.6 C 35 %
4522 01-02-2020 09:36:17 11.5 C 36 %
4523 01-02-2020 09:46:17 11.7 C 36 %
4524 01-02-2020 09:56:17 11.7 C 36 %
4525 01-02-2020 10:06:17 11.8 C 35 %
Sensor: Nr:Datum:Temp:Feuchte:
Aussen-T/F 4526 01-02-2020 10:16:17 12.3 C 33 %
4527 01-02-2020 10:26:17 12.2 C 34 %
4528 01-02-2020 10:36:17 12.2 C 34 %
4529 01-02-2020 10:46:17 12.1 C 35 %
4530 01-02-2020 10:56:17 12 C 35 %
4531 01-02-2020 11:06:17 12 C 35 %
4532 01-02-2020 11:16:17 12 C 35 %
4533 01-02-2020 11:26:17 12 C 35 %
4534 01-02-2020 11:36:17 12 C 35 %
4535 01-02-2020 11:46:17 12.1 C 35 %
4536 01-02-2020 11:56:17 11.9 C 36 %
4537 01-02-2020 12:06:17 12 C 35 %
4538 01-02-2020 12:16:16 11.9 C 36 %
4539 01-02-2020 12:26:16 12 C 35 %
4540 01-02-2020 12:36:16 12 C 35 %
4541 01-02-2020 12:46:17 12 C 35 %
4542 01-02-2020 12:56:17 12 C 35 %
4543 01-02-2020 13:06:17 12.2 C 35 %
4544 01-02-2020 13:16:17 12.1 C 35 %
4545 01-02-2020 13:26:17 12 C 36 %
4546 01-02-2020 13:36:17 11.9 C 36 %
4547 01-02-2020 13:46:17 11.8 C 37 %
4548 01-02-2020 13:56:17 11.7 C 39 %
4549 01-02-2020 14:06:17 11.6 C 40 %
4550 01-02-2020 14:16:17 11.5 C 40 %
Sensor: Nr:Datum:Temp:Feuchte:
Aussen-T/F 4551 01-02-2020 14:26:17 11.4 C 40 %
4552 01-02-2020 14:36:16 11.3 C 37 %
4553 01-02-2020 14:46:17 10.9 C 36 %
4554 01-02-2020 14:56:17 10.6 C 36 %
4555 01-02-2020 15:06:17 10.6 C 38 %
4556 01-02-2020 15:16:17 10.5 C 39 %
4557 01-02-2020 15:26:17 10.3 C 38 %
4558 01-02-2020 15:36:17 10.7 C 36 %
4559 01-02-2020 15:46:17 11.7 C 32 %
4560 01-02-2020 15:56:17 11.2 C 35 %
4561 01-02-2020 16:06:17 11.1 C 34 %
4562 01-02-2020 16:16:16 11.1 C 33 %
4563 01-02-2020 16:26:16 11.2 C 32 %
4564 01-02-2020 16:36:16 10.9 C 35 %
4565 01-02-2020 16:46:16 10.8 C 35 %
4566 01-02-2020 16:56:16 11 C 33 %
4567 01-02-2020 17:06:16 11.1 C 33 %
4568 01-02-2020 17:16:16 10.9 C 34 %
4569 01-02-2020 17:26:16 10.9 C 34 %
4570 01-02-2020 17:36:17 11 C 32 %
4571 01-02-2020 17:46:16 11.4 C 31 %
4572 01-02-2020 17:56:16 11.5 C 30 %
4573 01-02-2020 18:06:17 11.3 C 30 %
4574 01-02-2020 18:16:17 11.1 C 31 %
4575 01-02-2020 18:26:18 11.5 C 30 %
Sensor: Nr:Datum:Temp:Feuchte:
Aussen-T/F 4576 01-02-2020 18:36:17 11.5 C 30 %
4577 01-02-2020 18:46:17 11.2 C 31 %
4578 01-02-2020 18:56:17 11.2 C 31 %
4579 01-02-2020 19:06:17 11.3 C 31 %
4580 01-02-2020 19:16:17 10.7 C 33 %
4581 01-02-2020 19:26:17 10.5 C 33 %
4582 01-02-2020 19:36:16 10 C 38 %
4583 01-02-2020 19:46:17 9.8 C 40 %
4584 01-02-2020 19:56:17 10.4 C 36 %
4585 01-02-2020 20:06:16 10.6 C 34 %
4586 01-02-2020 20:16:17 10.7 C 32 %
4587 01-02-2020 20:26:18 10.1 C 33 %
4588 01-02-2020 20:36:17 9.9 C 34 %
4589 01-02-2020 20:46:17 9.4 C 35 %
4590 01-02-2020 20:56:17 8.6 C 35 %
4591 01-02-2020 21:06:17 8.5 C 34 %
4592 01-02-2020 21:16:16 9.4 C 30 %
4593 01-02-2020 21:26:16 9.5 C 30 %
4594 01-02-2020 21:36:16 9.4 C 30 %
4595 01-02-2020 21:46:16 9.4 C 30 %
4596 01-02-2020 21:56:16 9.4 C 28 %
4597 01-02-2020 22:06:16 9.4 C 28 %
4598 01-02-2020 22:16:16 8.9 C 29 %
4599 01-02-2020 22:26:16 8.9 C 29 %
4600 01-02-2020 22:36:17 8.9 C 28 %
Sensor: Nr:Datum:Temp:Feuchte:
Aussen-T/F 4601 01-02-2020 22:46:16 8.6 C 29 %
4602 01-02-2020 22:56:16 8.6 C 28 %
4603 01-02-2020 23:06:17 8.1 C 28 %
4604 01-02-2020 23:16:17 8.3 C 28 %
4605 01-02-2020 23:26:17 8 C 28 %
4606 01-02-2020 23:36:16 8 C 28 %
4607 01-02-2020 23:46:16 7.6 C 30 %
4608 01-02-2020 23:56:16 7.7 C 30 %
4609 02-02-2020 00:06:16 8 C 28 %
4610 02-02-2020 00:16:16 7.6 C 28 %
4611 02-02-2020 00:26:16 7.9 C 28 %
4612 02-02-2020 00:36:16 7.6 C 28 %
4613 02-02-2020 00:46:16 7.7 C 28 %
4614 02-02-2020 00:56:16 7.8 C 28 %
4615 02-02-2020 01:06:17 7.8 C 28 %
4616 02-02-2020 01:16:16 7.9 C 28 %
4617 02-02-2020 01:26:16 7.9 C 28 %
4618 02-02-2020 01:36:16 8 C 28 %
4619 02-02-2020 01:46:16 7.8 C 28 %
4620 02-02-2020 01:56:16 7.9 C 28 %
4621 02-02-2020 02:06:17 7.8 C 28 %
4622 02-02-2020 02:16:15 7.7 C 28 %
4623 02-02-2020 02:26:15 7.9 C 28 %
4624 02-02-2020 02:36:16 7.9 C 28 %
4625 02-02-2020 02:46:17 7.9 C 28 %
Sensor: Nr:Datum:Temp:Feuchte:
Aussen-T/F 4626 02-02-2020 02:56:17 7.9 C 28 %
4627 02-02-2020 03:06:17 8 C 28 %
4628 02-02-2020 03:16:17 7.9 C 28 %
4629 02-02-2020 03:26:17 7.8 C 28 %
4630 02-02-2020 03:36:18 7.8 C 28 %
4631 02-02-2020 03:46:18 7.8 C 27 %
4632 02-02-2020 03:56:18 7.7 C 28 %
4633 02-02-2020 04:06:18 7.6 C 28 %
4634 02-02-2020 04:16:17 7.6 C 28 %
4635 02-02-2020 04:26:17 7.3 C 28 %
4636 02-02-2020 04:36:17 7.2 C 28 %
4637 02-02-2020 04:46:18 7 C 28 %
4638 02-02-2020 04:56:18 7.1 C 28 %
4639 02-02-2020 05:06:17 7 C 28 %
4640 02-02-2020 05:16:17 7.1 C 28 %
4641 02-02-2020 05:26:17 6.9 C 30 %
4642 02-02-2020 05:36:18 6.8 C 30 %
4643 02-02-2020 05:46:17 6.9 C 30 %
4644 02-02-2020 05:56:17 6.8 C 30 %
4645 02-02-2020 06:06:18 6.9 C 30 %
4646 02-02-2020 06:16:17 6.7 C 31 %
4647 02-02-2020 06:26:17 6.8 C 30 %
4648 02-02-2020 06:36:17 6.7 C 31 %
4649 02-02-2020 06:46:18 6.6 C 32 %
4650 02-02-2020 06:56:18 6.5 C 32 %
Sensor: Nr:Datum:Temp:Feuchte:
Aussen-T/F 4651 02-02-2020 07:06:18 6.2 C 36 %
4652 02-02-2020 07:16:17 6 C 40 %
4653 02-02-2020 07:26:17 6 C 42 %
4654 02-02-2020 07:36:17 6.1 C 44 %
4655 02-02-2020 07:46:17 6.1 C 44 %
4656 02-02-2020 07:56:17 6.3 C 44 %
4657 02-02-2020 08:06:18 6.2 C 44 %
4658 02-02-2020 08:16:17 6.2 C 44 %
4659 02-02-2020 08:26:17 6.2 C 44 %
4660 02-02-2020 08:36:17 6.2 C 44 %
4661 02-02-2020 08:46:17 6.3 C 44 %
4662 02-02-2020 08:56:17 6.2 C 44 %
4663 02-02-2020 09:06:17 6.3 C 44 %
4664 02-02-2020 09:16:17 6.3 C 44 %
4665 02-02-2020 09:26:17 6.2 C 43 %
4666 02-02-2020 09:36:18 6.4 C 44 %
4667 02-02-2020 09:46:17 6.6 C 44 %
4668 02-02-2020 09:56:18 6.7 C 43 %
4669 02-02-2020 10:06:18 6.7 C 43 %
4670 02-02-2020 10:16:18 7 C 41 %
4671 02-02-2020 10:26:18 6.9 C 42 %
4672 02-02-2020 10:36:18 7 C 41 %
4673 02-02-2020 10:46:17 7.1 C 41 %
4674 02-02-2020 10:56:17 7.2 C 42 %
4675 02-02-2020 11:06:18 7.4 C 42 %
Sensor: Nr:Datum:Temp:Feuchte:
Aussen-T/F 4676 02-02-2020 11:16:17 7.6 C 42 %
4677 02-02-2020 11:26:17 8 C 41 %
4678 02-02-2020 11:36:17 8 C 40 %
4679 02-02-2020 11:46:17 7.9 C 40 %
4680 02-02-2020 11:56:17